[[{"header":{"parameterUnit":"m.s-1","parameterCategory":1,"la1":31.0,"la2":29.5877,"lo1":-88.7671,"lo2":-86.6584,"dy":0.0162,"dx":0.0185,"nx":115,"ny":88,"refTime":"2024-07-18T06:00:00:Z","depth":0,"parameterNumber":2,"parameterNumberName":"U-component_of_WINDS"},"data":[0.0,0.0,0.0,0.0,0.0,0.0,0.0,0.0,0.0,0.0,0.0,0.0,0.0,0.0,0.0,0.0,0.0,0.0,0.0,0.0,0.0,0.0,0.0,0.0,0.0,0.0,0.0,0.0,0.0,0.0,0.0,0.0,0.0,0.0,0.0,0.0,0.0,0.0,0.0,0.0,0.0,0.0,0.0,0.0,0.0,0.0,0.0,0.0,0.0,0.0,0.0,0.0,0.0,0.0,0.0,0.0,0.0,0.0,0.0,0.0,0.0,0.0,0.0,0.0,0.0,0.0,0.0,0.0,0.0,0.0,0.0,0.0,0.0,0.0,0.0,0.0,0.0,0.0,0.0,0.0,0.0,0.0,0.0,0.0,0.0,0.0,0.0,0.0,0.0,0.0,0.0,0.0,0.0,0.0,0.0,0.0,0.0,0.0,0.0,0.0,0.0,0.0,0.0,0.0,0.0,0.0,0.0,0.0,0.0,0.0,0.0,0.0,0.0,0.0,0.0,0.0,0.0,0.0,0.0,0.0,0.0,0.0,0.0,0.0,0.0,0.0,0.0,0.0,0.0,0.0,0.0,0.0,0.0,0.0,0.0,0.0,0.0,0.0,0.0,0.0,0.0,0.0,0.0,0.0,0.0,0.0,0.0,0.0,0.0,0.0,0.0,0.0,0.0,0.0,0.0,0.0,0.0,0.0,0.0,0.0,0.0,0.0,0.0,0.0,0.0,0.0,0.0,0.0,0.0,0.0,0.0,0.0,0.0,0.0,0.0,0.0,0.0,0.0,0.0,0.0,0.0,0.0,0.0,0.0,0.0,0.0,0.0,0.0,0.0,0.0,0.0,0.0,0.0,0.0,0.0,0.0,0.0,0.0,0.0,0.0,0.0,0.0,0.0,0.0,0.0,0.0,0.0,0.0,0.0,0.0,0.0,0.0,0.0,0.0,0.0,0.0,0.0,0.0,0.0,0.0,0.0,0.0,0.0,0.0,0.0,0.0,0.0,0.0,0.0,0.0,0.0,0.0,0.0,0.0,0.0,0.0,0.0,0.0,0.0,0.0,0.0,0.0,0.0,0.0,0.0,0.0,0.0,0.0,0.0,0.0,0.0,0.0,0.0,0.0,0.0,0.0,0.0,0.0,0.0,0.0,0.0,0.0,0.0,0.0,0.0,0.0,0.0,0.0,0.0,0.0,0.0,0.0,0.0,0.0,0.0,0.0,0.0,0.0,0.0,0.0,0.0,0.0,0.0,0.0,0.0,0.0,0.0,0.0,0.0,0.0,0.0,0.0,0.0,0.0,0.0,0.0,0.0,0.0,0.0,0.0,0.0,0.0,0.0,0.0,0.0,0.0,0.0,0.0,0.0,0.0,0.0,0.0,0.0,0.0,0.0,0.0,0.0,0.0,0.0,0.0,0.0,0.0,0.0,0.0,0.0,0.0,0.0,0.0,0.0,0.0,0.0,0.0,0.0,0.0,0.0,0.0,0.0,0.0,0.0,0.0,0.0,0.0,0.0,0.0,0.0,0.0,0.0,0.0,0.0,0.0,0.0,0.0,0.0,0.0,0.0,0.0,0.0,0.0,0.0,0.0,0.0,0.0,0.0,0.0,0.0,0.0,0.0,0.0,0.0,0.0,0.0,0.0,0.0,0.0,0.0,0.0,0.0,0.0,0.0,0.0,0.0,0.0,0.0,0.0,0.0,0.0,0.0,0.0,0.0,0.0,0.0,0.0,0.0,0.0,0.0,0.0,0.0,0.0,0.0,0.0,0.0,0.0,0.0,0.0,0.0,0.0,0.0,0.0,0.0,0.0,0.0,0.0,0.0,0.0,0.0,0.0,0.0,0.0,0.0,0.0,0.0,0.0,0.0,0.0,0.0,0.0,0.0,0.0,0.0,0.0,0.0,0.0,0.0,0.0,0.0,0.0,0.0,0.0,0.0,0.0,0.0,0.0,0.0,0.0,0.0,0.0,0.0,0.0,0.0,0.0,0.0,0.0,0.0,0.0,0.0,0.0,0.0,0.0,0.0,0.0,0.0,0.0,0.0,0.0,0.0,0.0,0.0,0.0,0.0,0.0,0.0,0.0,0.0,0.0,0.0,0.0,0.0,0.0,0.0,0.0,0.0,0.0,0.0,0.0,0.0,0.0,0.0,0.0,0.0,0.0,0.0,0.0,0.0,0.0,0.0,0.0,0.0,0.0,0.0,0.0,0.0,0.0,0.0,0.0,0.0,0.0,0.0,0.0,0.0,0.0,0.0,0.0,0.0,0.0,0.0,0.0,0.0,0.0,0.0,0.0,0.0,0.0,0.0,0.0,0.0,0.0,0.0,0.0,0.0,0.0,0.0,0.0,0.0,0.0,0.0,0.0,0.0,0.0,0.0,0.0,0.0,0.0,0.0,0.0,0.0,0.0,0.0,0.0,0.0,0.0,0.0,0.0,0.0,0.0,0.0,0.0,0.0,0.0,0.0,0.0,0.0,0.0,0.0,0.0,0.0,0.0,0.0,0.0,0.0,0.0,0.0,0.0,0.0,0.0,0.0,0.0,0.0,0.0,0.0,0.0,0.0,0.0,0.0,0.0,0.0,0.0,0.0,0.0,0.0,0.0,0.0,0.0,0.0,0.0,0.0,0.0,0.0,0.0,0.0,0.0,0.0,0.0,0.0,0.0,0.0,0.0,0.0,0.0,0.0,0.0,0.0,0.0,0.0,0.0,0.0,0.0,0.0,0.0,0.0,0.0,0.0,0.0,0.0,0.0,0.0,0.0,0.0,0.0,0.0,0.0,0.0,0.0,0.0,0.0,0.0,0.0,0.0,0.0,0.0,0.0,0.0,0.0,0.0,0.0,0.0,0.0,0.0,0.0,0.0,0.0,0.0,0.0,0.0,0.0,0.0,0.0,0.0,0.0,0.0,0.0,0.0,0.0,0.0,0.0,0.0,0.0,0.0,0.0,0.0,0.0,0.0,0.0,0.0,0.0,0.0,0.0,0.0,0.0,0.0,0.0,0.0,0.0,0.0,0.0,0.0,0.0,0.0,0.0,0.0,0.0,0.0,0.0,0.0,0.0,0.0,0.0,0.0,0.0,0.0,0.0,0.0,0.0,0.0,0.0,0.0,0.0,0.0,0.0,0.0,0.0,0.0,0.0,0.0,0.0,0.0,0.0,0.0,0.0,0.0,0.0,0.0,0.0,0.0,0.0,0.0,0.0,0.0,0.0,0.0,0.0,0.0,0.0,0.0,0.0,0.0,0.0,0.0,0.0,0.0,0.0,0.0,0.0,0.0,0.0,0.0,0.0,0.0,0.0,0.0,0.0,0.0,0.0,0.0,0.0,0.0,0.0,0.0,0.0,0.0,0.0,0.0,0.0,0.0,0.0,0.0,0.0,0.0,0.0,0.0,0.0,0.0,0.0,0.0,0.0,0.0,0.0,0.0,0.0,0.0,0.0,0.0,0.0,0.0,0.0,0.0,0.0,0.0,0.0,0.0,0.0,0.0,0.0,0.0,0.0,0.0,0.0,0.0,0.0,0.0,0.0,0.0,0.0,0.0,0.0,0.0,0.0,0.0,0.0,0.0,0.0,0.0,0.0,0.0,0.0,0.0,0.0,0.0,0.0,0.0,0.0,0.0,0.0,0.0,0.0,0.0,0.0,0.0,0.0,0.0,0.0,0.0,0.0,0.0,0.0,0.0,0.0,0.0,0.0,0.0,0.0,0.0,0.0,0.0,0.0,0.0,0.0,0.0,0.0,0.0,0.0,0.0,0.0,0.0,0.0,0.0,0.0,0.0,0.0,0.0,0.0,0.0,0.0,0.0,0.0,0.0,0.0,0.0,0.0,0.0,0.0,0.0,0.0,0.0,0.0,0.0,0.0,0.0,0.0,0.0,0.0,0.0,0.0,0.0,0.0,0.0,0.0,0.0,0.0,0.0,0.0,0.0,0.0,0.0,0.0,0.0,0.0,0.0,0.0,0.0,0.0,0.0,0.0,0.0,0.0,0.0,0.0,0.0,0.0,0.0,0.0,0.0,0.0,0.0,0.0,0.0,0.0,0.0,0.0,0.0,0.0,0.0,0.0,0.0,0.0,0.0,0.0,0.0,0.0,0.0,0.0,0.0,0.0,0.0,0.0,0.0,0.0,0.0,0.0,0.0,0.0,0.0,0.0,0.0,0.0,0.0,0.0,0.0,0.0,0.0,0.0,0.0,0.0,0.0,0.0,0.0,0.0,0.0,0.0,0.0,0.0,0.0,0.0,0.0,0.0,0.0,0.0,-2.6906,0.0,0.0,0.0,0.0,0.0,0.0,0.0,0.0,0.0,0.0,0.0,0.0,0.0,0.0,0.0,0.0,0.0,0.0,0.0,0.0,0.0,0.0,0.0,0.0,0.0,0.0,0.0,0.0,0.0,0.0,0.0,0.0,0.0,0.0,0.0,0.0,0.0,0.0,0.0,0.0,0.0,0.0,0.0,0.0,0.0,0.0,0.0,0.0,0.0,0.0,0.0,0.0,0.0,0.0,0.0,0.0,0.0,0.0,0.0,0.0,0.0,0.0,0.0,0.0,0.0,0.0,0.0,0.0,0.0,0.0,0.0,0.0,0.0,0.0,0.0,0.0,0.0,0.0,0.0,0.0,0.0,0.0,0.0,0.0,0.0,0.0,0.0,0.0,0.0,0.0,0.0,0.0,0.0,0.0,0.0,0.0,0.0,0.0,0.0,0.0,0.0,0.0,0.0,0.0,0.0,0.0,0.0,0.0,0.0,0.0,-2.9641,-3.0049,-2.8803,-2.7926,-2.7544,0.0,0.0,0.0,0.0,0.0,0.0,0.0,0.0,0.0,0.0,0.0,0.0,0.0,0.0,0.0,0.0,0.0,0.0,0.0,0.0,0.0,0.0,0.0,0.0,0.0,0.0,0.0,0.0,0.0,0.0,0.0,0.0,0.0,0.0,0.0,0.0,0.0,0.0,0.0,0.0,0.0,0.0,0.0,0.0,0.0,0.0,0.0,0.0,0.0,0.0,0.0,0.0,0.0,0.0,0.0,0.0,0.0,0.0,0.0,0.0,0.0,0.0,0.0,0.0,0.0,0.0,0.0,0.0,0.0,0.0,0.0,0.0,0.0,0.0,0.0,0.0,0.0,0.0,0.0,0.0,0.0,0.0,0.0,0.0,0.0,0.0,0.0,0.0,0.0,0.0,0.0,0.0,0.0,0.0,0.0,0.0,0.0,0.0,0.0,0.0,0.0,0.0,0.0,0.0,0.0,0.0,0.0,0.0,0.0,0.0,0.0,0.0,-2.9214,-2.832,-2.8097,0.0,0.0,0.0,0.0,0.0,0.0,0.0,0.0,0.0,0.0,0.0,0.0,0.0,0.0,0.0,0.0,0.0,0.0,0.0,0.0,0.0,0.0,0.0,0.0,0.0,0.0,0.0,0.0,0.0,0.0,0.0,0.0,0.0,0.0,0.0,0.0,0.0,0.0,0.0,0.0,0.0,0.0,0.0,0.0,0.0,0.0,0.0,0.0,0.0,0.0,0.0,0.0,0.0,0.0,0.0,0.0,0.0,0.0,0.0,0.0,0.0,0.0,0.0,0.0,0.0,0.0,0.0,0.0,0.0,0.0,0.0,0.0,0.0,0.0,0.0,0.0,0.0,0.0,0.0,0.0,0.0,0.0,0.0,0.0,0.0,0.0,0.0,0.0,0.0,0.0,0.0,0.0,0.0,0.0,0.0,0.0,0.0,0.0,0.0,0.0,0.0,0.0,0.0,0.0,0.0,0.0,0.0,0.0,0.0,0.0,-2.8265,-3.0616,-2.9777,0.0,-2.8243,0.0,0.0,0.0,0.0,0.0,0.0,0.0,0.0,0.0,0.0,0.0,0.0,0.0,0.0,0.0,0.0,0.0,0.0,0.0,0.0,0.0,0.0,0.0,0.0,0.0,0.0,0.0,0.0,0.0,0.0,0.0,0.0,0.0,0.0,0.0,0.0,0.0,0.0,0.0,0.0,0.0,0.0,0.0,0.0,0.0,0.0,0.0,0.0,0.0,0.0,0.0,0.0,0.0,0.0,0.0,0.0,0.0,0.0,0.0,0.0,0.0,0.0,0.0,0.0,0.0,0.0,0.0,0.0,0.0,0.0,0.0,0.0,0.0,0.0,0.0,0.0,0.0,0.0,0.0,0.0,0.0,0.0,0.0,0.0,0.0,0.0,0.0,0.0,0.0,0.0,0.0,0.0,0.0,0.0,0.0,0.0,0.0,0.0,0.0,0.0,0.0,0.0,0.0,0.0,0.0,0.0,0.0,0.0,0.0,0.0,-2.9154,-3.0674,-2.9855,-2.878,0.0,0.0,0.0,0.0,0.0,0.0,0.0,0.0,0.0,0.0,0.0,0.0,0.0,0.0,0.0,0.0,0.0,0.0,0.0,0.0,0.0,0.0,0.0,0.0,0.0,0.0,0.0,0.0,0.0,0.0,0.0,0.0,0.0,0.0,0.0,0.0,0.0,0.0,0.0,0.0,0.0,0.0,0.0,0.0,0.0,0.0,0.0,0.0,0.0,0.0,0.0,0.0,0.0,0.0,0.0,0.0,0.0,0.0,0.0,0.0,0.0,0.0,0.0,0.0,0.0,0.0,0.0,0.0,0.0,0.0,0.0,0.0,0.0,0.0,0.0,0.0,0.0,0.0,0.0,0.0,0.0,0.0,0.0,0.0,0.0,0.0,0.0,0.0,0.0,0.0,0.0,0.0,0.0,0.0,0.0,0.0,0.0,0.0,0.0,0.0,0.0,0.0,0.0,0.0,0.0,0.0,0.0,0.0,0.0,0.0,-2.8739,-2.9641,-3.0577,-2.9855,-2.8622,-2.6951,0.0,0.0,0.0,0.0,0.0,0.0,0.0,0.0,0.0,0.0,0.0,0.0,0.0,0.0,0.0,0.0,0.0,0.0,0.0,0.0,0.0,0.0,0.0,0.0,0.0,0.0,0.0,0.0,0.0,0.0,0.0,0.0,0.0,0.0,0.0,0.0,0.0,0.0,0.0,0.0,0.0,0.0,0.0,0.0,0.0,0.0,0.0,0.0,0.0,0.0,0.0,0.0,0.0,0.0,0.0,0.0,0.0,0.0,0.0,0.0,0.0,0.0,0.0,0.0,0.0,0.0,0.0,0.0,0.0,0.0,0.0,0.0,0.0,0.0,0.0,0.0,0.0,0.0,0.0,0.0,0.0,0.0,0.0,0.0,0.0,0.0,0.0,0.0,0.0,0.0,0.0,0.0,0.0,0.0,0.0,0.0,0.0,0.0,0.0,0.0,0.0,0.0,0.0,0.0,0.0,0.0,0.0,0.0,-3.035,-2.9065,-2.9057,-3.0655,-2.9855,-2.8612,0.0,0.0,0.0,0.0,0.0,0.0,0.0,0.0,0.0,0.0,0.0,0.0,0.0,0.0,0.0,0.0,0.0,0.0,0.0,0.0,0.0,0.0,0.0,0.0,0.0,0.0,0.0,0.0,0.0,0.0,0.0,0.0,0.0,0.0,0.0,0.0,0.0,0.0,0.0,0.0,0.0,0.0,0.0,0.0,0.0,0.0,0.0,0.0,0.0,0.0,0.0,0.0,0.0,0.0,0.0,0.0,0.0,0.0,0.0,0.0,0.0,0.0,0.0,0.0,0.0,0.0,0.0,0.0,0.0,0.0,0.0,0.0,0.0,0.0,0.0,0.0,0.0,0.0,0.0,0.0,0.0,0.0,0.0,0.0,0.0,0.0,0.0,0.0,0.0,0.0,0.0,0.0,0.0,0.0,0.0,0.0,0.0,0.0,0.0,0.0,0.0,0.0,0.0,0.0,0.0,0.0,0.0,0.0,0.0,-2.748,-2.7953,-2.9541,-3.2131,-2.991,-2.8278,0.0,0.0,0.0,0.0,0.0,0.0,0.0,0.0,0.0,0.0,0.0,0.0,0.0,0.0,0.0,0.0,0.0,0.0,0.0,0.0,0.0,0.0,0.0,0.0,0.0,0.0,0.0,0.0,0.0,0.0,0.0,0.0,0.0,0.0,0.0,0.0,0.0,0.0,0.0,0.0,0.0,0.0,0.0,0.0,0.0,0.0,0.0,0.0,0.0,0.0,0.0,0.0,0.0,0.0,0.0,0.0,0.0,0.0,0.0,0.0,0.0,0.0,0.0,0.0,0.0,0.0,0.0,0.0,0.0,0.0,0.0,0.0,0.0,0.0,0.0,0.0,0.0,0.0,0.0,0.0,0.0,0.0,0.0,0.0,0.0,0.0,0.0,0.0,0.0,0.0,0.0,0.0,0.0,0.0,0.0,0.0,0.0,0.0,0.0,0.0,0.0,0.0,0.0,0.0,0.0,0.0,0.0,0.0,0.0,-2.7344,0.0,-3.0714,-3.2237,-2.9902,-2.8001,0.0,0.0,0.0,0.0,0.0,0.0,0.0,0.0,0.0,0.0,0.0,0.0,0.0,0.0,0.0,0.0,0.0,0.0,0.0,0.0,0.0,0.0,0.0,0.0,0.0,0.0,0.0,0.0,0.0,0.0,0.0,0.0,0.0,0.0,0.0,0.0,0.0,0.0,0.0,0.0,0.0,0.0,0.0,0.0,0.0,0.0,0.0,0.0,0.0,0.0,0.0,0.0,0.0,0.0,0.0,0.0,0.0,0.0,0.0,0.0,0.0,0.0,0.0,0.0,0.0,0.0,0.0,0.0,0.0,0.0,0.0,0.0,0.0,0.0,0.0,0.0,0.0,0.0,0.0,0.0,0.0,0.0,0.0,0.0,0.0,0.0,0.0,0.0,0.0,0.0,0.0,0.0,0.0,0.0,0.0,0.0,0.0,0.0,0.0,0.0,0.0,0.0,0.0,0.0,0.0,0.0,0.0,0.0,-2.7356,-3.0586,-3.23,-3.2344,-3.0815,-2.9858,-2.7809,0.0,0.0,0.0,0.0,0.0,0.0,0.0,0.0,0.0,0.0,0.0,0.0,0.0,0.0,0.0,0.0,0.0,0.0,0.0,0.0,0.0,0.0,0.0,0.0,0.0,0.0,0.0,0.0,0.0,0.0,0.0,0.0,0.0,0.0,0.0,0.0,0.0,0.0,0.0,0.0,0.0,0.0,0.0,0.0,0.0,0.0,0.0,0.0,0.0,0.0,0.0,0.0,0.0,0.0,0.0,0.0,0.0,0.0,0.0,0.0,0.0,0.0,0.0,0.0,0.0,0.0,0.0,0.0,0.0,0.0,0.0,0.0,0.0,0.0,0.0,0.0,0.0,0.0,0.0,0.0,0.0,0.0,0.0,0.0,0.0,0.0,0.0,0.0,0.0,0.0,0.0,0.0,0.0,0.0,0.0,0.0,0.0,0.0,0.0,0.0,0.0,0.0,0.0,0.0,0.0,0.0,0.0,0.0,0.0,-2.8995,-3.0116,-3.1288,-3.2333,-2.9946,-2.8342,0.0,0.0,0.0,0.0,0.0,0.0,0.0,0.0,0.0,0.0,0.0,0.0,0.0,0.0,0.0,0.0,0.0,0.0,0.0,0.0,0.0,0.0,0.0,0.0,0.0,0.0,0.0,0.0,0.0,0.0,0.0,0.0,0.0,0.0,0.0,0.0,0.0,0.0,0.0,0.0,0.0,0.0,0.0,0.0,0.0,0.0,0.0,0.0,0.0,0.0,0.0,0.0,0.0,0.0,0.0,0.0,0.0,0.0,0.0,0.0,0.0,0.0,0.0,0.0,0.0,0.0,0.0,0.0,0.0,0.0,0.0,0.0,0.0,0.0,0.0,0.0,0.0,0.0,0.0,0.0,0.0,0.0,0.0,0.0,0.0,0.0,0.0,0.0,0.0,0.0,0.0,0.0,0.0,0.0,0.0,0.0,0.0,0.0,0.0,0.0,0.0,0.0,0.0,0.0,0.0,0.0,0.0,0.0,0.0,-3.0661,-3.1749,-3.281,-3.3752,-3.1698,-2.9929,-2.8554,0.0,0.0,0.0,0.0,0.0,0.0,0.0,0.0,0.0,0.0,0.0,0.0,0.0,0.0,0.0,0.0,0.0,0.0,0.0,0.0,0.0,0.0,0.0,0.0,0.0,0.0,0.0,0.0,0.0,0.0,0.0,0.0,0.0,0.0,0.0,0.0,0.0,0.0,0.0,0.0,0.0,0.0,0.0,0.0,0.0,0.0,0.0,0.0,0.0,0.0,0.0,0.0,0.0,0.0,0.0,0.0,0.0,0.0,0.0,0.0,0.0,0.0,0.0,0.0,0.0,0.0,0.0,0.0,0.0,0.0,0.0,0.0,0.0,0.0,0.0,0.0,0.0,0.0,0.0,0.0,0.0,0.0,0.0,0.0,0.0,0.0,0.0,0.0,0.0,0.0,0.0,0.0,0.0,0.0,0.0,0.0,0.0,0.0,0.0,0.0,0.0,0.0,0.0,0.0,0.0,0.0,0.0,0.0,-3.4817,-3.651,-3.6629,-3.5075,-3.4707,-3.2316,0.0,0.0,0.0,0.0,0.0,0.0,0.0,0.0,0.0,0.0,0.0,0.0,0.0,0.0,0.0,0.0,0.0,0.0,0.0,0.0,0.0,0.0,0.0,0.0,0.0,0.0,0.0,0.0,0.0,0.0,0.0,0.0,0.0,0.0,0.0,0.0,0.0,0.0,0.0,0.0,0.0,0.0,0.0,0.0,0.0,0.0,0.0,0.0,0.0,0.0,0.0,0.0,0.0,0.0,0.0,0.0,0.0,0.0,0.0,0.0,0.0,0.0,0.0,0.0,0.0,0.0,0.0,0.0,0.0,0.0,0.0,0.0,0.0,0.0,0.0,0.0,0.0,0.0,0.0,0.0,0.0,0.0,0.0,0.0,0.0,0.0,0.0,0.0,0.0,0.0,0.0,0.0,0.0,0.0,0.0,0.0,0.0,0.0,0.0,0.0,0.0,0.0,0.0,0.0,0.0,0.0,0.0,0.0,0.0,-3.7449,-3.9176,-3.985,-3.9274,-3.6269,-3.3982,0.0,0.0,0.0,0.0,0.0,0.0,0.0,0.0,0.0,0.0,0.0,0.0,0.0,0.0,0.0,0.0,0.0,0.0,0.0,0.0,0.0,0.0,0.0,0.0,0.0,0.0,0.0,0.0,0.0,0.0,0.0,0.0,0.0,0.0,0.0,0.0,0.0,0.0,0.0,0.0,0.0,0.0,0.0,0.0,0.0,0.0,0.0,0.0,0.0,0.0,0.0,0.0,0.0,0.0,0.0,0.0,0.0,0.0,0.0,0.0,0.0,0.0,0.0,0.0,0.0,0.0,0.0,0.0,0.0,0.0,0.0,0.0,0.0,0.0,0.0,0.0,0.0,0.0,0.0,0.0,0.0,0.0,0.0,0.0,0.0,0.0,0.0,0.0,0.0,0.0,0.0,0.0,0.0,0.0,0.0,0.0,0.0,0.0,0.0,0.0,0.0,0.0,0.0,0.0,0.0,0.0,0.0,0.0,-3.7008,-3.8492,-4.0899,-4.2131,-4.21,-3.7924,-3.498,0.0,0.0,0.0,0.0,0.0,0.0,0.0,0.0,0.0,0.0,0.0,0.0,0.0,0.0,0.0,0.0,0.0,0.0,0.0,0.0,0.0,0.0,0.0,0.0,0.0,0.0,0.0,0.0,0.0,0.0,0.0,0.0,0.0,0.0,0.0,0.0,0.0,0.0,0.0,0.0,0.0,0.0,0.0,0.0,0.0,0.0,0.0,0.0,0.0,0.0,0.0,0.0,0.0,0.0,0.0,0.0,0.0,0.0,0.0,0.0,0.0,0.0,0.0,0.0,0.0,0.0,0.0,0.0,0.0,0.0,0.0,0.0,0.0,0.0,0.0,0.0,0.0,0.0,0.0,0.0,0.0,0.0,0.0,0.0,0.0,0.0,0.0,0.0,0.0,0.0,0.0,0.0,0.0,0.0,0.0,0.0,0.0,0.0,0.0,0.0,0.0,0.0,0.0,0.0,0.0,0.0,0.0,0.0,-3.8641,-3.8658,-4.1792,-4.3426,-4.3237,-3.9351,-3.5762,0.0,0.0,0.0,0.0,0.0,0.0,0.0,0.0,0.0,0.0,0.0,0.0,0.0,0.0,0.0,0.0,0.0,0.0,0.0,0.0,0.0,0.0,0.0,0.0,0.0,0.0,0.0,0.0,0.0,0.0,0.0,0.0,0.0,0.0,0.0,0.0,0.0,0.0,0.0,0.0,0.0,0.0,0.0,0.0,0.0,0.0,0.0,0.0,0.0,0.0,0.0,0.0,0.0,0.0,0.0,0.0,0.0,0.0,0.0,0.0,0.0,0.0,0.0,0.0,0.0,0.0,0.0,0.0,0.0,0.0,0.0,0.0,0.0,0.0,0.0,0.0,0.0,0.0,0.0,0.0,0.0,0.0,0.0,0.0,0.0,0.0,0.0,0.0,0.0,0.0,0.0,0.0,0.0,0.0,0.0,0.0,0.0,0.0,0.0,0.0,0.0,0.0,0.0,0.0,0.0,0.0,0.0,0.0,-3.9535,-3.9552,-4.1506,-4.2283,-4.1635,-3.8751,-3.6855,0.0,0.0,0.0,0.0,0.0,0.0,0.0,0.0,0.0,0.0,0.0,0.0,0.0,0.0,0.0,0.0,0.0,0.0,0.0,0.0,0.0,0.0,0.0,0.0,0.0,0.0,0.0,0.0,0.0,0.0,0.0,0.0,0.0,0.0,0.0,0.0,0.0,0.0,0.0,0.0,0.0,0.0,0.0,0.0,0.0,0.0,0.0,0.0,-3.5869,0.0,0.0,0.0,0.0,0.0,0.0,0.0,0.0,0.0,0.0,0.0,0.0,0.0,0.0,0.0,0.0,0.0,0.0,0.0,0.0,0.0,0.0,0.0,0.0,0.0,0.0,0.0,0.0,0.0,0.0,0.0,0.0,0.0,0.0,0.0,0.0,0.0,0.0,0.0,0.0,0.0,0.0,0.0,0.0,0.0,0.0,0.0,0.0,0.0,0.0,0.0,0.0,0.0,0.0,0.0,0.0,0.0,0.0,0.0,-3.917,-4.0396,-4.1287,-4.1541,-4.1039,-3.8956,-3.7417,0.0,0.0,0.0,0.0,0.0,0.0,0.0,0.0,0.0,0.0,0.0,0.0,0.0,0.0,0.0,0.0,0.0,0.0,0.0,0.0,0.0,0.0,0.0,0.0,0.0,0.0,0.0,0.0,0.0,0.0,0.0,0.0,0.0,0.0,0.0,0.0,0.0,0.0,0.0,0.0,0.0,0.0,0.0,0.0,0.0,0.0,0.0,0.0,0.0,0.0,0.0,0.0,0.0,0.0,0.0,0.0,0.0,0.0,0.0,0.0,0.0,0.0,0.0,0.0,0.0,0.0,0.0,0.0,0.0,0.0,0.0,0.0,0.0,0.0,0.0,0.0,0.0,0.0,0.0,0.0,0.0,0.0,0.0,0.0,0.0,0.0,0.0,0.0,0.0,0.0,0.0,0.0,0.0,0.0,0.0,0.0,0.0,0.0,0.0,0.0,0.0,0.0,0.0,0.0,0.0,0.0,0.0,-3.721,-3.8748,-4.1356,-4.1228,-4.1108,-4.1083,-3.9412,-3.7684,-3.5917,0.0,0.0,0.0,0.0,0.0,0.0,0.0,0.0,0.0,0.0,0.0,0.0,0.0,0.0,0.0,0.0,0.0,0.0,0.0,0.0,0.0,0.0,0.0,0.0,0.0,0.0,0.0,0.0,0.0,0.0,0.0,0.0,0.0,0.0,0.0,0.0,0.0,0.0,-3.2212,-3.4238,0.0,0.0,0.0,0.0,0.0,0.0,0.0,0.0,-3.9219,0.0,0.0,0.0,0.0,0.0,0.0,0.0,0.0,0.0,0.0,0.0,0.0,0.0,0.0,0.0,0.0,0.0,0.0,0.0,0.0,0.0,0.0,0.0,0.0,0.0,0.0,0.0,0.0,0.0,0.0,0.0,0.0,0.0,0.0,0.0,0.0,0.0,0.0,0.0,0.0,0.0,0.0,0.0,0.0,0.0,0.0,0.0,0.0,0.0,0.0,0.0,0.0,0.0,0.0,0.0,0.0,-4.0138,-3.897,-3.9911,-4.3138,-4.1859,-4.1098,-4.107,-3.9423,-3.7687,-3.5896,0.0,0.0,0.0,0.0,0.0,0.0,0.0,0.0,0.0,0.0,0.0,0.0,0.0,0.0,0.0,0.0,0.0,0.0,0.0,0.0,0.0,0.0,0.0,0.0,0.0,0.0,0.0,0.0,0.0,0.0,0.0,0.0,0.0,0.0,0.0,0.0,0.0,0.0,0.0,-3.6001,-3.7358,0.0,0.0,0.0,0.0,0.0,0.0,0.0,0.0,-4.0969,0.0,0.0,0.0,0.0,0.0,0.0,0.0,0.0,0.0,0.0,0.0,0.0,0.0,0.0,0.0,0.0,0.0,0.0,0.0,0.0,0.0,0.0,0.0,0.0,0.0,0.0,0.0,0.0,0.0,0.0,0.0,0.0,0.0,0.0,0.0,0.0,0.0,0.0,0.0,0.0,0.0,0.0,0.0,0.0,0.0,0.0,0.0,0.0,0.0,0.0,0.0,0.0,0.0,0.0,0.0,-4.0713,-4.0279,-4.1103,-4.3552,-4.1991,-4.1113,-4.1055,-3.8967,-3.7215,0.0,0.0,0.0,0.0,0.0,0.0,0.0,0.0,0.0,0.0,0.0,0.0,0.0,0.0,0.0,0.0,0.0,0.0,0.0,0.0,0.0,0.0,0.0,0.0,0.0,0.0,0.0,0.0,0.0,0.0,0.0,0.0,0.0,0.0,0.0,0.0,0.0,0.0,0.0,0.0,-3.7411,-3.8889,-4.1844,0.0,0.0,0.0,0.0,0.0,0.0,-4.1686,-4.2106,0.0,0.0,0.0,0.0,0.0,0.0,0.0,0.0,0.0,0.0,0.0,0.0,0.0,0.0,0.0,0.0,0.0,0.0,0.0,0.0,0.0,0.0,0.0,0.0,0.0,0.0,0.0,0.0,0.0,0.0,0.0,0.0,0.0,0.0,0.0,0.0,0.0,0.0,0.0,0.0,0.0,0.0,0.0,0.0,0.0,0.0,0.0,0.0,0.0,0.0,0.0,0.0,0.0,0.0,0.0,-4.0647,-4.1009,-4.1848,-4.3301,-4.1905,-4.1106,-4.1058,-3.8413,-3.6545,0.0,0.0,0.0,0.0,0.0,0.0,0.0,0.0,0.0,0.0,0.0,0.0,0.0,0.0,0.0,0.0,0.0,0.0,0.0,0.0,0.0,0.0,0.0,0.0,0.0,0.0,0.0,0.0,0.0,0.0,0.0,0.0,0.0,0.0,0.0,0.0,0.0,0.0,0.0,0.0,0.0,-4.0701,-4.357,-4.2167,0.0,0.0,0.0,0.0,-4.1137,-4.2672,0.0,0.0,0.0,0.0,0.0,0.0,0.0,0.0,0.0,0.0,0.0,0.0,0.0,0.0,0.0,0.0,0.0,0.0,0.0,0.0,0.0,0.0,0.0,0.0,0.0,0.0,0.0,0.0,0.0,0.0,0.0,0.0,0.0,0.0,0.0,0.0,0.0,0.0,0.0,0.0,0.0,0.0,0.0,0.0,0.0,0.0,0.0,0.0,0.0,0.0,0.0,0.0,0.0,0.0,0.0,0.0,-3.9779,-4.0716,-4.1575,-4.2453,-4.1615,-4.1109,-4.1069,-3.7872,-3.5709,0.0,0.0,0.0,0.0,0.0,0.0,0.0,0.0,0.0,0.0,0.0,0.0,0.0,0.0,0.0,0.0,0.0,0.0,0.0,0.0,0.0,0.0,0.0,0.0,0.0,0.0,0.0,0.0,0.0,0.0,0.0,0.0,0.0,0.0,0.0,0.0,0.0,0.0,0.0,0.0,0.0,-4.2555,-4.3819,-4.2618,-4.1627,0.0,0.0,-4.2844,-4.2672,-4.4789,0.0,0.0,0.0,0.0,0.0,0.0,0.0,0.0,0.0,0.0,0.0,0.0,0.0,0.0,0.0,0.0,0.0,0.0,0.0,0.0,0.0,0.0,0.0,0.0,0.0,0.0,0.0,0.0,0.0,0.0,0.0,0.0,0.0,0.0,0.0,0.0,0.0,0.0,0.0,0.0,0.0,0.0,0.0,0.0,0.0,0.0,0.0,0.0,0.0,0.0,0.0,0.0,0.0,0.0,0.0,-3.5773,-3.9039,-4.0927,-4.202,-4.2357,-4.1557,-4.1106,-4.1101,-3.7304,-3.5058,0.0,0.0,0.0,0.0,0.0,0.0,0.0,0.0,0.0,0.0,0.0,0.0,0.0,0.0,0.0,0.0,0.0,0.0,0.0,0.0,0.0,0.0,0.0,0.0,0.0,0.0,0.0,0.0,0.0,0.0,0.0,0.0,0.0,0.0,0.0,0.0,0.0,0.0,0.0,0.0,0.0,0.0,-4.4377,-4.3741,0.0,0.0,0.0,-4.3582,-4.3046,0.0,0.0,0.0,0.0,0.0,0.0,0.0,0.0,0.0,0.0,0.0,0.0,0.0,0.0,0.0,0.0,0.0,0.0,0.0,0.0,0.0,0.0,0.0,0.0,0.0,0.0,0.0,0.0,0.0,0.0,0.0,0.0,0.0,0.0,0.0,0.0,0.0,0.0,0.0,0.0,0.0,0.0,0.0,0.0,0.0,0.0,0.0,0.0,0.0,0.0,0.0,0.0,0.0,0.0,0.0,0.0,0.0,-3.8259,-4.1003,-4.229,-4.2064,-4.1457,-4.1101,-4.1035,-3.734,0.0,0.0,0.0,0.0,0.0,0.0,0.0,0.0,0.0,0.0,0.0,0.0,0.0,0.0,0.0,0.0,0.0,0.0,0.0,0.0,0.0,0.0,0.0,0.0,0.0,0.0,0.0,-2.6162,0.0,0.0,0.0,0.0,0.0,0.0,0.0,0.0,0.0,0.0,0.0,0.0,0.0,0.0,-4.3529,-4.4531,-4.4564,-4.4767,0.0,0.0,-4.3985,-4.3545,-4.5419,-4.6012,0.0,0.0,0.0,0.0,0.0,0.0,0.0,0.0,0.0,0.0,0.0,0.0,0.0,0.0,0.0,0.0,0.0,0.0,0.0,0.0,0.0,0.0,0.0,0.0,0.0,0.0,0.0,0.0,0.0,0.0,0.0,0.0,0.0,0.0,0.0,0.0,0.0,0.0,0.0,0.0,0.0,0.0,0.0,0.0,0.0,0.0,0.0,0.0,0.0,0.0,0.0,0.0,0.0,0.0,-3.5584,-3.7419,-4.0696,-4.2004,-4.1225,-4.1138,-4.1113,-4.1055,-3.8461,-3.5919,0.0,0.0,0.0,0.0,0.0,0.0,0.0,0.0,0.0,0.0,0.0,0.0,0.0,0.0,0.0,0.0,0.0,0.0,0.0,0.0,0.0,0.0,0.0,0.0,0.0,0.0,0.0,0.0,0.0,0.0,0.0,0.0,0.0,0.0,0.0,0.0,0.0,0.0,0.0,0.0,0.0,-4.4657,-4.3897,-4.4554,-4.5647,0.0,-4.541,-4.4197,-4.4668,-4.6363,-4.6305,-4.2441,0.0,0.0,0.0,0.0,0.0,0.0,0.0,0.0,0.0,0.0,0.0,0.0,0.0,0.0,0.0,0.0,0.0,0.0,0.0,0.0,0.0,0.0,0.0,0.0,0.0,0.0,0.0,0.0,0.0,0.0,0.0,0.0,0.0,0.0,0.0,0.0,0.0,0.0,0.0,0.0,0.0,0.0,0.0,0.0,0.0,0.0,0.0,0.0,0.0,0.0,0.0,0.0,0.0,-3.4744,-3.6519,-3.9858,-4.1438,-4.1121,-4.1115,-4.0853,-4.0294,-3.8298,-3.5767,0.0,0.0,0.0,0.0,0.0,0.0,0.0,0.0,0.0,0.0,0.0,0.0,0.0,0.0,0.0,0.0,0.0,0.0,0.0,0.0,0.0,0.0,0.0,0.0,0.0,0.0,0.0,0.0,-2.9274,-2.9827,-3.0056,0.0,0.0,0.0,0.0,0.0,0.0,0.0,0.0,0.0,0.0,-4.4661,-4.5859,-4.6428,0.0,0.0,-4.7193,-4.6339,-4.4438,-4.5764,-4.5822,-4.2277,-4.1751,0.0,0.0,0.0,0.0,0.0,0.0,0.0,0.0,0.0,0.0,0.0,0.0,0.0,0.0,0.0,0.0,0.0,0.0,0.0,0.0,0.0,0.0,0.0,0.0,0.0,0.0,0.0,0.0,0.0,0.0,0.0,0.0,0.0,0.0,0.0,0.0,0.0,0.0,0.0,0.0,0.0,0.0,0.0,0.0,0.0,0.0,0.0,0.0,0.0,0.0,0.0,0.0,-3.4337,-3.6359,-3.9468,-4.1064,-4.1107,-4.0832,-4.0413,-3.9772,-3.8112,-3.5848,0.0,0.0,0.0,0.0,0.0,0.0,0.0,0.0,0.0,0.0,0.0,0.0,0.0,0.0,0.0,0.0,0.0,0.0,0.0,0.0,0.0,0.0,0.0,0.0,0.0,0.0,0.0,0.0,-3.0794,-3.1633,-3.1835,0.0,0.0,0.0,0.0,0.0,0.0,0.0,0.0,0.0,0.0,-4.5278,-4.6549,-4.6815,-4.6831,-4.6689,-4.6625,-4.5954,-4.4083,-4.4911,-4.493,-4.2473,0.0,0.0,0.0,0.0,0.0,0.0,0.0,0.0,0.0,0.0,0.0,0.0,0.0,0.0,0.0,0.0,0.0,0.0,0.0,0.0,0.0,0.0,0.0,0.0,0.0,0.0,0.0,-2.5712,0.0,0.0,-2.569,0.0,0.0,0.0,0.0,0.0,0.0,0.0,0.0,0.0,0.0,0.0,0.0,0.0,0.0,0.0,0.0,0.0,0.0,0.0,0.0,0.0,0.0,-3.4542,-3.7244,-3.9659,-4.0958,-4.1072,-4.0265,-3.983,-3.973,-3.8118,-3.6381,-3.4618,0.0,0.0,0.0,0.0,0.0,0.0,0.0,0.0,0.0,0.0,0.0,0.0,0.0,0.0,0.0,0.0,0.0,0.0,0.0,0.0,0.0,0.0,0.0,0.0,0.0,0.0,-2.8233,-3.0011,-3.1732,0.0,0.0,0.0,0.0,0.0,0.0,0.0,0.0,0.0,-4.1193,-4.4796,-4.6777,-4.5211,-4.5019,-4.515,-4.5176,-4.3182,-4.2148,-4.3809,-4.3952,-4.3675,0.0,0.0,0.0,0.0,0.0,0.0,0.0,0.0,0.0,0.0,0.0,0.0,0.0,0.0,0.0,0.0,0.0,0.0,0.0,0.0,0.0,0.0,0.0,0.0,0.0,0.0,0.0,-2.8059,-2.7313,0.0,0.0,0.0,0.0,0.0,0.0,0.0,0.0,0.0,0.0,0.0,-3.3781,-3.5127,0.0,0.0,0.0,0.0,0.0,0.0,0.0,0.0,0.0,0.0,0.0,0.0,-3.5081,-3.715,-3.9652,-4.0926,-4.094,-4.0201,-3.9513,-3.8956,-3.7801,-3.6148,-3.3897,0.0,0.0,0.0,0.0,0.0,0.0,0.0,0.0,0.0,0.0,0.0,0.0,0.0,0.0,0.0,0.0,0.0,0.0,0.0,0.0,0.0,0.0,0.0,0.0,0.0,-3.2022,0.0,0.0,0.0,0.0,0.0,0.0,0.0,0.0,0.0,0.0,-3.9717,-4.1423,-4.2709,-4.3596,-4.4282,-4.4819,-4.4926,-4.5526,0.0,0.0,0.0,0.0,0.0,0.0,0.0,0.0,0.0,0.0,0.0,0.0,0.0,0.0,-4.5554,-4.1862,-4.1428,-4.1709,-4.1967,0.0,0.0,0.0,0.0,0.0,0.0,0.0,0.0,0.0,0.0,0.0,0.0,0.0,0.0,-3.0913,-3.0599,-2.9753,0.0,0.0,0.0,0.0,0.0,0.0,0.0,0.0,-3.4735,-3.6144,-3.6734,-3.8112,-3.8799,-3.8789,-3.827,-3.6147,0.0,0.0,0.0,0.0,0.0,0.0,0.0,0.0,-3.5597,-3.7059,-3.95,-4.0665,-4.0429,-3.9664,-3.8877,-3.8071,-3.7194,-3.5969,-3.4321,-3.261,-3.1172,0.0,0.0,0.0,0.0,0.0,0.0,0.0,0.0,0.0,0.0,0.0,0.0,0.0,0.0,0.0,0.0,0.0,0.0,0.0,0.0,0.0,0.0,0.0,-3.366,0.0,0.0,0.0,0.0,0.0,0.0,0.0,0.0,0.0,-3.969,-4.113,-4.2849,-4.4735,-4.449,-4.4244,-4.4476,0.0,0.0,0.0,0.0,0.0,0.0,0.0,-4.4602,-4.3799,-4.4719,-4.6263,-4.8398,-4.9468,-5.0063,-5.014,0.0,0.0,-4.5208,-4.4715,-4.4914,-4.4906,-4.5145,-4.5207,-4.4855,-4.4942,-4.4989,0.0,0.0,0.0,0.0,-3.3417,0.0,0.0,0.0,-3.4789,-3.4842,0.0,-3.2987,0.0,0.0,0.0,0.0,-3.226,-3.4449,0.0,0.0,-3.9542,-4.0706,-3.9282,-4.0068,-4.0509,-4.0501,-4.0528,-4.0112,-3.9211,-3.6125,0.0,0.0,0.0,0.0,0.0,0.0,-3.6065,-3.7038,-3.9327,-4.0217,-3.9602,-3.8757,-3.793,-3.7169,-3.6356,-3.5889,-3.5811,-3.4321,-3.3448,-3.3351,-3.0269,0.0,0.0,0.0,0.0,0.0,0.0,0.0,0.0,0.0,0.0,0.0,0.0,0.0,0.0,0.0,0.0,0.0,0.0,0.0,0.0,-3.3128,0.0,0.0,0.0,0.0,0.0,0.0,0.0,0.0,0.0,-4.2256,-4.154,-4.2769,-4.4602,-4.6898,0.0,0.0,0.0,0.0,-4.3833,-4.0952,-4.1001,-4.1653,-4.1943,-4.4418,-4.6628,-4.7575,0.0,0.0,-5.2462,-5.1101,-5.0079,-5.0177,-5.0797,-5.0978,-5.0044,-4.9227,-4.8831,-4.876,-4.8119,-4.7807,-4.8001,-4.7348,-4.6868,-4.1059,0.0,0.0,0.0,0.0,-3.7535,-3.7739,-3.8046,-3.7829,-3.7562,-3.7224,-3.6511,0.0,0.0,0.0,0.0,0.0,0.0,-3.7661,-3.8253,-4.0026,-4.0852,-4.0993,-4.1829,-4.2576,-4.3167,-4.3186,-4.3387,-4.3673,-4.2184,-3.908,-3.4652,0.0,0.0,0.0,0.0,-3.7109,-3.8601,-3.9868,-4.0111,-3.9328,-3.8566,-3.7502,-3.6161,-3.5982,-3.5889,-3.5889,-3.5424,-3.463,-3.3451,-3.248,0.0,0.0,0.0,0.0,0.0,0.0,0.0,0.0,0.0,0.0,0.0,0.0,0.0,0.0,0.0,0.0,0.0,0.0,0.0,-3.3236,-3.4794,-3.5717,0.0,0.0,0.0,0.0,0.0,0.0,0.0,0.0,0.0,-4.4041,-4.4315,-4.4628,0.0,0.0,-4.2587,-4.133,-4.2368,-4.3577,-4.4475,-4.4764,0.0,-4.8141,-4.7779,-4.7686,-4.9043,-5.0559,-5.1561,-5.1597,-5.1651,-5.1694,-5.173,-5.1916,-5.1964,-5.1698,-5.1063,-5.0345,-4.9751,-4.939,-4.9296,-4.9519,-4.9428,-4.9332,-4.3785,-4.2305,-4.0542,-3.9784,-3.9728,-3.9748,-4.0231,-4.1011,-4.0713,-4.0701,-4.0847,-3.9857,-3.9105,-3.8539,-3.8117,0.0,0.0,0.0,-4.0009,-4.0785,-4.1272,-4.1566,-4.1775,-4.2294,-4.2975,-4.3816,-4.4143,-4.4739,-4.5594,-4.4713,-4.239,-3.8671,0.0,-3.7466,-3.6207,-3.7552,-3.8399,-3.875,-3.9837,-4.0018,-3.9192,-3.8138,-3.7119,-3.6178,-3.5924,-3.5797,-3.5788,-3.5817,-3.5334,-3.4321,-3.3602,-3.2269,0.0,0.0,0.0,0.0,0.0,0.0,0.0,0.0,0.0,0.0,0.0,-2.9648,-2.764,0.0,0.0,0.0,-3.3295,-3.4897,-3.4977,-3.6509,0.0,0.0,0.0,0.0,0.0,0.0,0.0,-4.0998,-4.3678,-4.5593,-4.5658,-4.5813,-4.5987,-4.6189,-4.4789,-4.3475,-4.2713,0.0,-4.4916,-4.5803,-4.6157,-4.7041,-4.8992,-4.8897,-4.9074,-5.0646,-5.13,-5.1646,-5.1684,-5.2082,-5.2385,-5.24,-5.24,-5.2291,-5.1983,-5.1514,-5.1073,-5.0523,-5.0429,-5.0396,-5.0246,-5.0264,-5.0361,-4.5326,-4.5051,-4.2117,-4.085,-4.0792,-4.0792,-4.2056,-4.4017,-4.3329,-4.3904,-4.5188,-4.2957,-4.2411,-4.3149,-4.0969,0.0,-4.2196,-4.2066,-4.2345,-4.2996,-4.294,-4.2467,-4.1712,-4.17,-4.2143,-4.3028,-4.3739,-4.4586,-4.5421,-4.4682,-4.3874,-4.3085,-4.2371,-4.0312,-3.7295,-3.9309,-3.9641,-3.7961,-3.9427,-3.9881,-3.9162,-3.7668,-3.6849,-3.6797,-3.6135,-3.5722,-3.5618,-3.564,-3.565,-3.556,-3.4084,-3.3131,-3.2914,0.0,0.0,0.0,0.0,0.0,0.0,0.0,0.0,0.0,0.0,0.0,0.0,0.0,0.0,0.0,-3.6892,0.0,-3.6948,-3.8343,0.0,0.0,0.0,-4.0795,-4.1533,-4.3085,-4.4089,-4.4018,0.0,0.0,-4.6591,-4.7184,-4.8188,-4.973,-4.8479,-4.7155,-4.6408,-4.6896,-4.7091,-4.5756,-4.6207,-4.6732,-4.7433,-4.891,-5.0656,-5.1997,-5.2347,-5.2215,-5.2177,-5.2115,-5.2191,-5.2096,-5.221,-5.1964,-5.1244,-5.1059,-5.1078,-5.1035,-5.0959,-5.0749,-5.0152,-4.994,-4.9943,-4.5388,-4.5254,-4.379,-4.3551,-4.4115,-4.4134,-4.4498,-4.5033,-4.4852,-4.5036,-4.5428,-4.4853,-4.4734,-4.4974,-4.4418,-4.4352,-4.4686,-4.4023,-4.3487,-4.303,-4.2396,-4.1627,-4.0843,-4.0816,-4.1258,-4.2085,-4.2297,-4.3162,-4.4547,-4.4393,-4.3893,-4.3143,-4.2917,-4.1443,-3.8825,-3.9265,-3.9335,-3.8876,-3.9184,-3.9265,-3.9025,-3.8136,-3.735,-3.6741,-3.6598,-3.6242,-3.5626,-3.5614,-3.5614,-3.5607,-3.5201,-3.4356,-3.2977,-3.1039,0.0,0.0,0.0,0.0,0.0,0.0,0.0,0.0,0.0,-3.2583,-2.872,0.0,-3.5331,0.0,-3.7585,-3.9852,-4.0272,-4.1266,0.0,0.0,-4.2736,-4.3432,-4.4262,-4.5827,-4.6372,-4.5104,-4.6957,-4.8124,-4.7499,-4.8095,-4.8929,-4.9867,-4.8141,-4.6428,-4.5731,-4.6838,-4.7621,-4.7384,-4.8342,-4.9527,-5.0043,-5.1134,-5.1934,-5.2324,-5.1893,-5.1476,-5.1495,-5.0921,-5.0486,-5.0486,-5.0486,-5.0391,-5.0258,-5.0215,-5.022,-5.0177,-4.9728,-4.9248,-4.9086,-4.868,-4.8346,-4.4279,-4.4241,-4.3704,-4.356,-4.3675,-4.4029,-4.4211,-4.4279,-4.4681,-4.4911,-4.5004,-4.5387,-4.5568,-4.5594,-4.5594,-4.5402,-4.4998,-4.4528,-4.3662,-4.2508,-4.2019,-4.1335,-4.0516,-4.0496,-4.0969,-4.1797,-4.1816,-4.247,-4.3739,-4.4124,-4.4085,-4.3662,-4.4028,-4.2951,-4.0489,-3.9619,-3.9039,-3.8631,-3.8925,-3.9257,-3.9546,-3.8812,-3.7847,-3.6719,-3.635,-3.5623,-3.4444,-3.44,-3.44,-3.4386,-3.4386,-3.3952,-3.2941,-3.1395,-3.0037,0.0,0.0,0.0,0.0,0.0,0.0,0.0,0.0,0.0,0.0,0.0,-3.7866,-3.6903,-4.0291,-4.2412,-4.2106,-4.3176,-4.4197,-4.4911,-4.5388,-4.6121,-4.732,-4.8277,-4.8499,-4.7613,-4.8686,-4.936,-4.8926,-4.9222,-4.9656,-5.0125,-4.9048,-4.8022,-4.764,-4.835,-4.8896,-4.8953,-4.9675,-5.0364,-5.0837,-5.1121,-5.1318,-5.1258,-5.0903,-5.0618,-5.0618,-5.022,-4.9893,-4.9893,-4.9893,-4.9893,-4.9893,-4.9893,-4.9893,-4.9798,-4.9248,-4.8907,-4.9172,-4.8941,-4.8699,-4.2908,-4.2908,-4.2784,-4.2315,-4.1663,-4.2249,-4.2508,-4.2546,-4.3378,-4.3807,-4.4025,-4.4895,-4.5287,-4.5287,-4.5383,-4.4979,-4.4162,-4.4143,-4.3297,-4.1835,-4.1673,-4.1239,-4.0516,-4.0496,-4.0893,-4.1615,-4.1643,-4.2143,-4.3104,-4.3816,-4.4162,-4.4162,-4.4913,-4.4047,-4.1681,-4.0085,-3.8839,-3.7932,-3.8712,-3.9456,-4.0127,-3.9306,-3.8101,-3.6514,-3.5757,-3.4615,-3.2974,-3.2987,-3.2981,-3.2891,-3.2987,-3.3083,-3.3141,-3.1607,-3.0785,0.0,-3.0188,0.0,0.0,0.0,0.0,0.0,0.0,0.0,0.0,-3.9687,-4.0815,-4.093,-4.3788,-4.5067,-4.3711,-4.501,-4.6498,-4.7854,-4.8044,-4.8593,-4.9923,-5.0182,-5.0212,-5.02,-5.0212,-5.0224,-5.0233,-5.0255,-5.0224,-5.0278,-5.0195,-5.0011,-5.0147,-5.0133,-5.0168,-5.0302,-5.029,-5.0281,-5.0209,-5.0062,-5.002,-4.995,-4.9987,-4.9893,-4.995,-4.9931,-4.9893,-4.9893,-4.9893,-4.9893,-4.9893,-4.9893,-4.9893,-4.9893,-4.9362,-4.9097,-4.9457,-4.9419,-4.9624,-4.2981,-4.2914,-4.2235,-4.1834,-4.1642,-4.114,-4.0937,-4.0937,-4.1119,-4.1605,-4.2319,-4.3201,-4.3566,-4.3624,-4.4259,-4.4105,-4.3335,-4.3316,-4.2797,-4.1777,-4.1066,-4.0662,-4.0496,-4.0496,-4.0593,-4.0727,-4.0739,-4.1546,-4.3085,-4.3239,-4.3335,-4.3335,-4.3508,-4.2624,-4.0804,0.0,0.0,0.0,-3.873,-3.9261,-3.9446,-3.8588,-3.7337,-3.5766,-3.5444,0.0,-3.2948,-3.3443,-3.3467,-3.2809,-3.3409,0.0,0.0,0.0,0.0,0.0,0.0,0.0,0.0,0.0,0.0,0.0,-3.8391,-3.8327,-3.8826,-4.1533,-4.3596,-4.4332,-4.6175,-4.7494,-4.7876,-4.8774,-4.948,-4.9755,-4.9801,-4.9935,-5.0228,-5.0278,-5.0278,-5.0278,-5.0271,-5.029,-5.029,-5.029,-5.029,-5.0302,-5.0302,-5.0302,-5.0278,-5.029,-5.0302,-5.029,-5.0267,-5.0207,-5.0108,-5.0044,-4.9965,-4.9906,-4.9893,-4.9893,-4.9893,-4.9893,-4.9893,-4.9893,-4.9893,-4.9893,-4.9893,-4.9893,-4.9893,-4.9893,-4.9746,-4.9514,-4.9021,-4.8382,-4.7883,-4.2409,-4.2371,-4.195,-4.175,0.0,-4.0853,-4.0265,-3.9957,-4.0784,-4.1618,-4.247,-4.2893,-4.3085,-4.3085,-4.3085,-4.2604,-4.1805,-4.1393,-4.0969,-4.0546,-4.0104,-4.0131,-4.0496,-4.0496,-4.0496,-4.0496,-4.0496,-4.0958,-4.1843,-4.2662,-4.3085,-4.3124,-4.3912,-4.3662,-4.2374,-4.1143,-3.9869,-3.8573,-3.8977,-3.9415,-3.9811,-3.9375,-3.8378,-3.6826,-3.663,0.0,0.0,0.0,0.0,0.0,0.0,0.0,0.0,0.0,0.0,-3.5856,-3.5924,-3.6668,-3.8276,-3.9227,-4.04,-4.1992,-4.2498,-4.2575,-4.2145,-4.4418,-4.6405,-4.7646,-4.8544,-4.9213,-4.9652,-5.0073,-5.0302,-5.0302,-5.0302,-5.0302,-5.0302,-5.0302,-5.0302,-5.0302,-5.0302,-5.0302,-5.0302,-5.0302,-5.0302,-5.0302,-5.0302,-5.0302,-5.0302,-5.0302,-5.0302,-5.029,-5.0255,-5.0207,-5.0139,-5.007,-4.9986,-4.9946,-4.9906,-4.9893,-4.9893,-4.9893,-4.9893,-4.9893,-4.9893,-4.9893,-4.9893,-4.9893,-4.9893,-4.9893,-4.9893,-4.9798,-4.9362,-4.8945,-4.8628,-4.2027,-4.2027,-4.2019,-4.2019,-4.197,-4.1104,-4.0285,-3.9592,-4.0835,0.0,0.0,-4.2566,-4.2624,-4.2604,-4.2047,-4.1335,-4.0477,-3.9988,-3.965,-3.9515,-3.9515,-3.9861,-4.0477,-4.0496,-4.0496,-4.0496,-4.0496,-4.0573,-4.0785,-4.2181,-4.2951,-4.3239,-4.4633,-4.5017,-4.4239,-4.2777,-4.1234,-3.9722,-3.9376,-3.9618,-4.0417,-4.0296,-3.9515,-3.8054,-3.7935,-3.7129,-3.5547,-3.5518,-3.548,-3.5369,-3.5511,-3.5664,-3.5799,-3.5799,-3.622,-3.7128,-3.8075,-3.9527,-4.1571,-4.266,-4.3825,-4.5211,-4.5908,-4.608,-4.5526,-4.7054,-4.8602,-4.9977,-5.0206,-5.0302,-5.0302,-5.0302,-5.0302,-5.0302,-5.0302,-5.0302,-5.0302,-5.0302,-5.0302,-5.0302,-5.0302,-5.0302,-5.0302,-5.0302,-5.0302,-5.0302,-5.0302,-5.0302,-5.0302,-5.0302,-5.0302,-5.029,-5.0255,-5.0207,-5.0175,-5.0089,-5.0012,-4.9999,-4.9946,-4.9906,-4.9906,-4.9893,-4.9893,-4.9893,-4.9893,-4.9893,-4.9893,-4.9893,-4.9893,-4.9893,-4.9893,-4.9893,-4.9893,-4.9893,-4.9817,-4.2912,-4.2912,-4.2912,-4.2912,-4.2854,-4.1989,-4.1143,-4.0304,-3.9854,-3.9719,-3.9881,-4.0554,-4.0862,-4.09,-4.1508,-4.1316,-4.0554,-4.1162,-4.1046,-4.0342,-4.0323,-4.0381,-4.0496,-4.0496,-4.0496,-4.0496,-4.0496,-4.0893,-4.1585,-4.1873,-4.2354,-4.3124,-4.4028,-4.4412,-4.4239,-4.3374,-4.2423,-4.1442,-4.0,-3.9752,-4.0622,-3.986,-3.902,-3.8131,-3.8017,-3.7087,-3.5415,-3.6078,-3.6058,-3.5288,-3.5949,-3.6657,-3.7334,-3.7373,-3.8082,-3.968,-4.1227,-4.2259,-4.2622,-4.4065,-4.5059,-4.5269,-4.5392,-4.5698,-4.6328,-4.7914,-4.9033,-4.9301,-4.9901,-5.0302,-5.0302,-5.0302,-5.0302,-5.0302,-5.0302,-5.0302,-5.0302,-5.0302,-5.0302,-5.0302,-5.0302,-5.0302,-5.0302,-5.0302,-5.0302,-5.0302,-5.0302,-5.0302,-5.0302,-5.0302,-5.0302,-5.029,-5.0255,-5.02,-5.0188,-5.0145,-5.0095,-5.0076,-5.0031,-4.9959,-4.9959,-4.992,-4.9893,-4.9893,-4.9893,-4.9893,-4.9893,-4.9893,-4.9893,-4.9893,-4.9893,-4.9893,-4.9893,-4.9874,-4.9855,-4.3758,-4.3758,-4.3739,-4.4008,-4.4363,-4.3066,-4.2008,-4.1143,-4.0304,-3.9938,-3.9977,-4.0342,-4.0496,-4.0496,-4.045,-4.0219,-3.9861,-3.9777,-3.9796,-3.9842,-3.9861,-4.0092,-4.0477,-4.0496,-4.0496,-4.0496,-4.0496,-4.0708,-4.1104,-4.1566,-4.2008,-4.2431,-4.3239,-4.3662,-4.3624,-4.3278,-4.2893,-4.2489,-4.0816,-4.0392,-4.1253,-4.0885,-4.0712,-4.081,-4.0754,-4.0114,-3.8826,-3.9155,-3.8922,-3.8004,-3.8359,-3.8732,-3.9088,-3.9107,-3.9661,-4.0883,-4.2106,-4.2985,-4.3443,-4.4609,-4.5277,-4.5277,-4.5277,-4.5449,-4.5831,-4.7417,-4.8582,-4.9071,-4.9824,-5.0302,-5.0302,-5.0302,-5.0302,-5.0302,-5.0302,-5.0302,-5.0302,-5.0302,-5.0302,-5.0302,-5.0302,-5.0302,-5.0302,-5.0302,-5.0302,-5.0302,-5.0302,-5.0302,-5.0302,-5.0302,-5.0302,-5.029,-5.0259,-5.0267,-5.0255,-5.0207,-5.017,-5.0139,-5.005,-4.9999,-4.9986,-4.9952,-4.9893,-4.9893,-4.9893,-4.9893,-4.9893,-4.9893,-4.9893,-4.9893,-4.9893,-4.9893,-4.9874,-4.9589,-4.9419,-4.4586,-4.4586,-4.4594,-4.4883,-4.5182,-4.3912,-4.2893,-4.2047,-4.1373,-4.1073,-4.1054,-4.0689,-4.0496,-4.0439,-3.9842,-3.9565,-3.9477,-3.8873,-3.895,-3.9534,-3.9573,-4.0008,-4.0727,-4.0804,-4.0777,-4.0796,-4.0785,-4.0689,-4.0612,-4.1181,-4.1623,-4.1846,-4.247,-4.2893,-4.3085,-4.2893,-4.2797,-4.272,-4.1489,-4.1316,-4.2316,-4.2374,-4.2701,-4.3297,-4.3335,-4.2934,-4.2066,-4.1797,-4.1351,-4.0641,-4.0403,-4.0385,-4.054,-4.0568,-4.0864,-4.1485,-4.2316,-4.3157,-4.3968,-4.48,-4.5277,-4.5277,-4.5277,-4.5297,-4.5392,-4.6653,-4.7876,-4.8735,-4.9519,-4.9996,-5.0015,-5.0206,-5.0225,-5.0073,-5.0206,-5.0302,-5.0302,-5.0302,-5.0302,-5.0302,-5.0302,-5.0302,-5.0302,-5.0302,-5.0302,-5.0302,-5.0302,-5.0302,-5.0302,-5.0302,-5.0302,-5.0302,-5.0302,-5.029,-5.0302,-5.0267,-5.0231,-5.0212,-5.0101,-5.0057,-5.0018,-4.9946,-4.9893,-4.9893,-4.9893,-4.9893,-4.9893,-4.9893,-4.9893,-4.9893,-4.9893,-4.9836,-4.957,-4.8717,-4.8433,-4.546,-4.5479,-4.546,-4.5075,-4.4489,-4.4239,-4.372,-4.3008,-4.2874,-4.2854,-4.2624,-4.1208,-4.0554,-4.0496,-4.0458,-4.0439,-4.0439,-4.0304,-4.0323,-4.0381,-4.04,-4.0843,-4.1546,-4.1643,-4.1673,-4.1662,-4.1643,-4.1219,-4.0612,-4.0612,-4.1027,-4.172,-4.1885,-4.2297,-4.2893,-4.2316,-4.195,-4.1923,-4.1758,-4.245,-4.3951,-4.4066,-4.4124,-4.4182,-4.4182,-4.378,-4.29,-4.2123,-4.1639,-4.1444,-4.0756,-4.0652,-4.1275,-4.139,-4.1409,-4.1523,-4.2316,-4.3157,-4.3968,-4.4819,-4.5354,-4.5277,-4.5373,-4.5392,-4.5411,-4.6137,-4.7005,-4.7922,-4.8743,-4.9175,-4.9251,-4.9805,-4.9901,-4.9519,-4.9882,-5.0302,-5.0302,-5.0302,-5.0302,-5.0302,-5.0302,-5.0302,-5.0302,-5.0302,-5.0302,-5.0302,-5.0302,-5.0302,-5.0302,-5.0302,-5.0302,-5.0302,-5.0302,-5.0302,-5.0302,-5.0302,-5.0278,-5.0278,-5.0182,-5.0108,-5.007,-4.9992,-4.9893,-4.9893,-4.9893,-4.9893,-4.9893,-4.9893,-4.9893,-4.9874,-4.9817,-4.9627,-4.8869,-4.7656,-4.7055,-4.5594,-4.5594,-4.5594,-4.5402,-4.5037,-4.4528,-4.4105,-4.3778,-4.3297,-4.3085,-4.3028,-4.2335,-4.2027,-4.2027,-4.2055,-4.2027,-4.2027,-4.2027,-4.1739,-4.1296,-4.1258,-4.12,-4.1085,-4.1585,-4.1816,-4.1816,-4.1816,-4.1643,-4.1239,-4.0746,-4.0689,-4.0989,-4.1035,-4.1219,-4.1546,-4.1739,-4.2019,-4.2558,-4.3047,-4.3855,-4.4836,-4.4547,-4.4547,-4.4989,-4.5075,-4.4662,-4.3857,-4.3425,-4.2766,-4.1803,-4.1803,-4.1778,-4.1561,-4.2001,-4.2049,-4.1638,-4.2775,-4.4083,-4.5401,-4.629,-4.6768,-4.6768,-4.6787,-4.6787,-4.6806,-4.7092,-4.7541,-4.8135,-4.8319,-4.8506,-4.8984,-4.8945,-4.9041,-4.9576,-4.971,-4.9767,-5.0264,-5.029,-5.0302,-5.0302,-5.0302,-5.0302,-5.0302,-5.0302,-5.0302,-5.0302,-5.0302,-5.0302,-5.0302,-5.0302,-5.0302,-5.0302,-5.0302,-5.0302,-5.0302,-5.0302,-5.0302,-5.0271,-5.0231,-5.0158,-5.0095,-5.0031,-4.9933,-4.9893,-4.9893,-4.9893,-4.9893,-4.9893,-4.9893,-4.976,-4.9305,-4.8831,-4.7504,-4.6676,-4.6278,-4.5594,-4.5594,-4.5594,-4.5594,-4.5537,-4.4932,-4.4643,-4.4605,-4.4028,-4.3778,-4.3778,-4.3778,-4.3797,-4.372,-4.3316,-4.3085,-4.3085,-4.3085,-4.2777,-4.22,-4.2154,-4.195,-4.1612,-4.2162,-4.2489,-4.2489,-4.2527,-4.2374,-4.2124,-4.1566,-4.1208,-4.1208,-4.1227,-4.1227,-4.1285,-4.1873,-4.245,-4.3085,-4.3893,-4.4605,-4.5094,-4.4855,-4.4951,-4.5537,-4.5594,-4.5287,-4.4682,-4.4412,-4.3742,-4.2507,-4.2815,-4.279,-4.2364,-4.2852,-4.2967,-4.2727,-4.3883,-4.5191,-4.6443,-4.7311,-4.7788,-4.7788,-4.7788,-4.7788,-4.7777,-4.7732,-4.7831,-4.8099,-4.7821,-4.7832,-4.8268,-4.8135,-4.8389,-4.9239,-4.8953,-4.9144,-4.9873,-5.0088,-5.0163,-5.0156,-5.0224,-5.0302,-5.0302,-5.0302,-5.0302,-5.0302,-5.0302,-5.0302,-5.0302,-5.0302,-5.0302,-5.0302,-5.0302,-5.0302,-5.0302,-5.0302,-5.0302,-5.029,-5.0243,-5.0194,-5.0114,-5.005,-4.9986,-4.9933,-4.9906,-4.9722,-4.9457,-4.9495,-4.9362,-4.9115,-4.8585,-4.7757,-4.6657,-4.6089,-4.5615,-4.5594,-4.5594,-4.5594,-4.5594,-4.5575,-4.5537,-4.5518,-4.546,-4.5421,-4.5421,-4.5364,-4.5402,-4.546,-4.5287,-4.3893,-4.3143,-4.3143,-4.322,-4.3181,-4.3047,-4.3047,-4.3412,-4.4132,-4.4182,-4.4143,-4.397,-4.3951,-4.3643,-4.3008,-4.2931,-4.2989,-4.2912,-4.2835,-4.2912,-4.2854,-4.2893,-4.3047,-4.3258,-4.3912,-4.4374,-4.4528,-4.5171,-4.5518,-4.5594,-4.5594,-4.5556,-4.5421,-4.4739,-4.4241,-4.417,-4.3487,-4.3328,-4.3857,-4.4001,-4.4316,-4.5039,-4.5889,-4.6424,-4.6653,-4.7455,-4.7933,-4.7895,-4.802,-4.7865,-4.8014,-4.78,-4.7656,-4.7433,-4.7335,-4.7164,-4.7187,-4.765,-4.7782,-4.7537,-4.7866,-4.8505,-4.93,-4.9669,-4.9817,-4.9903,-5.0132,-5.029,-5.0302,-5.0302,-5.0302,-5.0302,-5.0302,-5.0302,-5.0302,-5.0302,-5.0302,-5.0302,-5.0302,-5.0302,-5.0302,-5.0302,-5.0302,-5.029,-5.0267,-5.0219,-5.0151,-5.0089,-5.0025,-4.9935,-4.9787,-4.9476,-4.8983,-4.8604,-4.8319,-4.7902,-4.7226,-4.6411,-4.5975,-4.5407,-4.5066,-4.5594,-4.5594,-4.5594,-4.5594,-4.5594,-4.5594,-4.5594,-4.5594,-4.5594,-4.5594,-4.5594,-4.5594,-4.5594,-4.5556,-4.4998,-4.469,-4.471,-4.4701,-4.4412,-4.3932,-4.3874,-4.3758,-4.3585,-4.4047,-4.4316,-4.4316,-4.4316,-4.3893,-4.3162,-4.3085,-4.3085,-4.3085,-4.3085,-4.3085,-4.3085,-4.3085,-4.3335,-4.3855,-4.4182,-4.4547,-4.5124,-4.5441,-4.5594,-4.5594,-4.5594,-4.5594,-4.5594,-4.5306,-4.4893,-4.4329,-4.4491,-4.4505,-4.425,-4.4622,-4.5222,-4.6023,-4.6863,-4.7589,-4.8173,-4.896,-4.9449,-4.948,-4.9494,-4.9381,-4.9279,-4.9157,-4.8924,-4.8469,-4.8284,-4.7923,-4.7183,-4.7186,-4.7597,-4.8269,-4.8232,-4.8389,-4.9092,-4.9424,-4.9556,-4.979,-5.0107,-5.029,-5.0302,-5.0302,-5.0302,-5.0302,-5.0302,-5.0302,-5.0302,-5.0302,-5.0302,-5.0302,-5.0302,-5.0302,-5.0302,-5.0302,-5.0302,-5.0302,-5.0278,-5.0236,-5.0188,-5.0126,-5.0063,-4.9904,-4.9719,-4.9091,-4.849,-4.7808,-4.7485,-4.698,-4.6278,-4.607,-4.5464,-4.5464,-4.5217,-4.5594,-4.5594,-4.5594,-4.5594,-4.5594,-4.5594,-4.5594,-4.5594,-4.5594,-4.5594,-4.5594,-4.5594,-4.5594,-4.5594,-4.5594,-4.5594,-4.5594,-4.5575,-4.5287,-4.4759,-4.4729,-4.4432,-4.4066,-4.4451,-4.4701,-4.4739,-4.472,-4.4421,-4.3998,-4.3912,-4.3893,-4.3932,-4.3912,-4.4047,-4.4278,-4.4335,-4.472,-4.5374,-4.5528,-4.5836,-4.6317,-4.6144,-4.6028,-4.6028,-4.6009,-4.5874,-4.5633,-4.5594,-4.5364,-4.4893,-4.5288,-4.5389,-4.5093,-4.5703,-4.6502,-4.7283,-4.8162,-4.888,-4.9457,-5.0084,-5.0393,-5.0435,-5.0468,-5.0382,-5.0114,-4.9967,-4.9583,-4.9155,-4.8836,-4.8346,-4.7739,-4.7398,-4.7665,-4.8406,-4.8108,-4.811,-4.887,-4.9064,-4.9329,-4.973,-5.0088,-5.0259,-5.0302,-5.0302,-5.0302,-5.0302,-5.0302,-5.0302,-5.0302,-5.0302,-5.0302,-5.0302,-5.0302,-5.0302,-5.0302,-5.0302,-5.0302,-5.0302,-5.0302,-5.0248,-5.0224,-5.0163,-5.0063,-4.9905,-4.9384,-4.8662,-4.7915,-4.7163,-4.6676,-4.6259,-4.6241,-4.6165,-4.5937,-4.5918,-4.571,-4.5594,-4.5594,-4.5594,-4.5594,-4.5594,-4.5594,-4.5594,-4.5594,-4.5594,-4.5594,-4.5594,-4.5594,-4.5594,-4.5594,-4.5594,-4.5594,-4.5594,-4.5594,-4.5556,-4.546,-4.5498,-4.5479,-4.5383,-4.5421,-4.546,-4.5479,-4.5556,-4.5537,-4.5383,-4.5344,-4.5364,-4.5479,-4.546,-4.5778,-4.6769,-4.6615,-4.7135,-4.7615,-4.7692,-4.7875,-4.7981,-4.7278,-4.6894,-4.6913,-4.6904,-4.6567,-4.5768,-4.571,-4.571,-4.5701,-4.5608,-4.588,-4.6529,-4.732,-4.8198,-4.8842,-4.9748,-5.0241,-5.0294,-5.0374,-5.0446,-5.0489,-5.0511,-5.0412,-5.0101,-4.9735,-4.9363,-4.9038,-4.8641,-4.8271,-4.8271,-4.8272,-4.807,-4.7315,-4.739,-4.7703,-4.8218,-4.8622,-4.9048,-4.966,-5.0063,-5.0278,-5.0302,-5.0302,-5.0302,-5.0302,-5.0302,-5.0302,-5.0302,-5.0302,-5.0302,-5.0302,-5.0302,-5.0302,-5.0302,-5.0302,-5.0302,-5.0302,-5.0302,-5.029,-5.0267,-5.02,-5.0151,-4.9955,-4.9005,-4.8232,-4.6803,-4.6165,-4.6241,-4.5994,-4.6127,-4.6487,-4.6582,-4.6601,-4.643,-4.5594,-4.5594,-4.5594,-4.5594,-4.5594,-4.5594,-4.5594,-4.5594,-4.5594,-4.5594,-4.5594,-4.5594,-4.5594,-4.5594,-4.5594,-4.5594,-4.5594,-4.5594,-4.5594,-4.5614,-4.5614,-4.5633,-4.5614,-4.5614,-4.5594,-4.5594,-4.5594,-4.5614,-4.5633,-4.5633,-4.5594,-4.5691,-4.622,-4.6605,-4.6981,-4.7432,-4.7894,-4.8038,-4.8096,-4.8096,-4.8105,-4.7855,-4.774,-4.7721,-4.774,-4.7567,-4.7317,-4.6797,-4.6797,-4.724,-4.6713,-4.6733,-4.7475,-4.8283,-4.8834,-4.9129,-4.9889,-5.0359,-5.0412,-5.0498,-5.0511,-5.0521,-5.0573,-5.0438,-5.0139,-4.9849,-4.9502,-4.9137,-4.873,-4.8495,-4.853,-4.8914,-4.8728,-4.8012,-4.792,-4.7993,-4.829,-4.8816,-4.9174,-4.9449,-4.9955,-5.0267,-5.0302,-5.0302,-5.0302,-5.0302,-5.0302,-5.0302,-5.0302,-5.0302,-5.0302,-5.0302,-5.0302,-5.0302,-5.0302,-5.0302,-5.0302,-5.0302,-5.0302,-5.0302,-5.0278,-5.0248,-5.02,-4.9745,-4.8795,-4.7713,-4.624,-4.5729,-4.6013,-4.6316,-4.6714,-4.7036,-4.7302,-4.7302,-4.7169,-4.5594,-4.5594,-4.5594,-4.5594,-4.5594,-4.5594,-4.5594,-4.5594,-4.5594,-4.5594,-4.5594,-4.5594,-4.5594,-4.5594,-4.5594,-4.5594,-4.5594,-4.5594,-4.5768,-4.6047,-4.6086,-4.6067,-4.6144,-4.6432,-4.6537,-4.6528,-4.6528,-4.6528,-4.6528,-4.6537,-4.6556,-4.6663,-4.7086,-4.7548,-4.7798,-4.8317,-4.8682,-4.899,-4.9086,-4.9067,-4.899,-4.874,-4.8606,-4.8586,-4.8586,-4.8586,-4.8548,-4.8067,-4.7913,-4.7981,-4.752,-4.7625,-4.8305,-4.8837,-4.9236,-4.9606,-5.0012,-5.0359,-5.0412,-5.0508,-5.0542,-5.0532,-5.0584,-5.05,-5.0163,-4.9935,-4.9646,-4.9324,-4.892,-4.8677,-4.8715,-4.8862,-4.8821,-4.8398,-4.86,-4.86,-4.853,-4.89,-4.9252,-4.9435,-4.9903,-5.0212,-5.0302,-5.0302,-5.0302,-5.0302,-5.0302,-5.0302,-5.0302,-5.0302,-5.0302,-5.0302,-5.0302,-5.0302,-5.0302,-5.0302,-5.0302,-5.0302,-5.0302,-5.0302,-5.029,-5.0259,-5.0205,-4.9555,-4.8707,-4.8112,-4.6815,-4.6651,-4.6771,-4.7074,-4.7453,-4.7965,-4.8338,-4.8098,-4.7864,-4.5594,-4.5594,-4.5594,-4.5594,-4.5594,-4.5594,-4.5594,-4.5594,-4.5594,-4.5594,-4.5594,-4.5594,-4.5594,-4.5594,-4.5594,-4.5594,-4.5594,-4.5594,-4.6028,-4.6644,-4.6894,-4.6971,-4.7028,-4.7528,-4.7778,-4.7875,-4.7913,-4.7942,-4.7817,-4.7817,-4.8105,-4.7904,-4.8067,-4.8529,-4.9048,-4.9394,-4.9817,-5.0346,-5.0529,-5.0519,-5.05,-4.9885,-4.9471,-4.9471,-4.9471,-4.9471,-4.9452,-4.9375,-4.9009,-4.8327,-4.8231,-4.8564,-4.904,-4.9174,-4.9564,-5.0149,-5.0283,-5.0337,-5.0382,-5.0468,-5.05,-5.05,-5.0532,-5.0468,-5.0163,-5.0,-4.9822,-4.9539,-4.9083,-4.8816,-4.8763,-4.8735,-4.8546,-4.8528,-4.899,-4.9008,-4.8493,-4.8915,-4.9299,-4.942,-4.9857,-5.0302,-5.0302,-5.0302,-5.0302,-5.0302,-5.0302,-5.0302,-5.0302,-5.0302,-5.0302,-5.0302,-5.0302,-5.0302,-5.0302,-5.0302,-5.0302,-5.0302,-5.0302,-5.0302,-5.0302,-5.0271,-4.9976,-4.9326,-4.8891,-4.8264,-4.7776,-4.7466,-4.7586,-4.8016,-4.8509,-4.9115,-4.9134,-4.8793,-4.8357,-4.5594,-4.5594,-4.5594,-4.5594,-4.5594,-4.5594,-4.5594,-4.5594,-4.5594,-4.5594,-4.5594,-4.5594,-4.5594,-4.5594,-4.5594,-4.5594,-4.5594,-4.5594,-4.6067,-4.6885,-4.7548,-4.7759,-4.7798,-4.799,-4.8163,-4.8182,-4.8279,-4.8096,-4.8096,-4.824,-4.8192,-4.8115,-4.8798,-4.9163,-4.9433,-5.0029,-5.0442,-5.0654,-5.0683,-5.0683,-5.0654,-5.0481,-5.0366,-5.0356,-5.0327,-5.0317,-5.0356,-5.0366,-4.9933,-4.9134,-4.9574,-4.9895,-4.9969,-4.9966,-5.0038,-5.0237,-5.0337,-5.0371,-5.0393,-5.0448,-5.0478,-5.0446,-5.0489,-5.0446,-5.0248,-5.0126,-4.9901,-4.9554,-4.9169,-4.887,-4.8752,-4.8955,-4.9231,-4.9455,-4.9287,-4.8919,-4.8624,-4.9078,-4.9584,-4.9439,-4.9897,-5.0224,-5.0302,-5.0302,-5.0302,-5.0302,-5.0302,-5.0302,-5.0302,-5.0302,-5.0302,-5.0302,-5.0302,-5.0302,-5.0302,-5.0302,-5.0302,-5.0302,-5.0302,-5.0302,-5.0302,-5.029,-4.9792,-4.9143,-4.915,-4.8707,-4.8244,-4.7851,-4.8338,-4.885,-4.9191,-4.957,-4.9457,-4.921,-4.8755,-4.5594,-4.5594,-4.5594,-4.5594,-4.5594,-4.5594,-4.5594,-4.5594,-4.5594,-4.5594,-4.5594,-4.5594,-4.5594,-4.5594,-4.5594,-4.5594,-4.5594,-4.5594,-4.6278,-4.7528,-4.8663,-4.9183,-4.9221,-4.9183,-4.9202,-4.9183,-4.9183,-4.9221,-4.9221,-4.9202,-4.9183,-4.9317,-4.9683,-4.9933,-5.0,-5.0385,-5.0683,-5.0683,-5.0683,-5.0683,-5.0683,-5.0683,-5.0693,-5.0683,-5.0683,-5.0683,-5.0683,-5.0693,-5.0413,-5.0046,-5.0274,-5.0519,-5.0412,-5.0359,-5.0325,-5.0314,-5.0337,-5.0367,-5.0359,-5.0424,-5.0416,-5.039,-5.0424,-5.0412,-5.0314,-5.0219,-5.0019,-4.9712,-4.9461,-4.9134,-4.8821,-4.9049,-4.9361,-4.9527,-4.941,-4.9064,-4.8745,-4.9363,-4.9641,-4.9702,-4.9942,-5.0302,-5.0302,-5.0302,-5.0302,-5.0302,-5.0302,-5.0302,-5.0302,-5.0302,-5.0302,-5.0302,-5.0302,-5.0302,-5.0302,-5.0302,-5.0302,-5.0302,-5.0302,-5.0302,-5.0302,-5.029,-4.9971,-4.9536,-4.941,-4.9227,-4.8846,-4.8679,-4.9059,-4.9495,-4.9779,-4.9779,-4.9665,-4.911,-4.8731,-4.5594,-4.5594,-4.5594,-4.5594,-4.5594,-4.5594,-4.5594,-4.5594,-4.5594,-4.5594,-4.5594,-4.5594,-4.5594,-4.5594,-4.5594,-4.5594,-4.5594,-4.5594,-4.6644,-4.8067,-4.9548,-5.0433,-5.0375,-5.0356,-5.0375,-5.0423,-5.0644,-5.0548,-5.0404,-5.0491,-5.0587,-5.0462,-5.0577,-5.0654,-5.0558,-5.0673,-5.0693,-5.0683,-5.0683,-5.0683,-5.0683,-5.0683,-5.0683,-5.0683,-5.0683,-5.0683,-5.0683,-5.0683,-5.0625,-5.0594,-5.0603,-5.0521,-5.0416,-5.0393,-5.0348,-5.0314,-5.0302,-5.0302,-5.0302,-5.0367,-5.0379,-5.0325,-5.0348,-5.0359,-5.0302,-5.0278,-5.0163,-4.9844,-4.983,-4.9468,-4.9064,-4.8937,-4.9127,-4.9434,-4.9637,-4.9632,-4.9541,-4.9655,-4.9844,-4.983,-5.0088,-5.0248,-5.0302,-5.0302,-5.0302,-5.0302,-5.0302,-5.0302,-5.0302,-5.0302,-5.0302,-5.0302,-5.0302,-5.0302,-5.0302,-5.0302,-5.0302,-5.0302,-5.0302,-5.0302,-5.029,-5.0267,-5.0175,-4.9999,-4.9772,-4.9689,-4.9635,-4.9684,-4.9792,-4.9698,-4.9692,-4.9787,-4.9754,-4.882,-4.8244,-4.5594,-4.5594,-4.5594,-4.5594,-4.5594,-4.5594,-4.5594,-4.5594,-4.5594,-4.5594,-4.5594,-4.5594,-4.5594,-4.5594,-4.5594,-4.5594,-4.5633,-4.5748,-4.6509,-4.8163,-4.9875,-5.0616,-5.0683,-5.0683,-5.0683,-5.0683,-5.0683,-5.0683,-5.0683,-5.0683,-5.0683,-5.0683,-5.0683,-5.0683,-5.0683,-5.0683,-5.0683,-5.0683,-5.0683,-5.0683,-5.0683,-5.0683,-5.0683,-5.0683,-5.0683,-5.0683,-5.0683,-5.0683,-5.0683,-5.0663,-5.0623,-5.0542,-5.0478,-5.0435,-5.0379,-5.0314,-5.0302,-5.0302,-5.0302,-5.0314,-5.0314,-5.0302,-5.0314,-5.0314,-5.0302,-5.0302,-5.0144,-4.9897,-4.9803,-4.9641,-4.9329,-4.9224,-4.9363,-4.9632,-4.9771,-4.9884,-5.0019,-5.0132,-5.0063,-4.9955,-5.0088,-5.0302,-5.0302,-5.0302,-5.0302,-5.0302,-5.0302,-5.0302,-5.0302,-5.0302,-5.0302,-5.0302,-5.0302,-5.0302,-5.0302,-5.0302,-5.0302,-5.0302,-5.0302,-5.0302,-5.029,-5.0278,-5.0231,-5.0139,-5.0057,-5.0012,-4.9946,-4.9927,-4.9916,-4.9751,-4.9542,-4.9536,-4.9283,-4.8435,-4.8181,-4.5594,-4.5594,-4.5594,-4.5594,-4.5594,-4.5594,-4.5594,-4.5594,-4.5594,-4.5594,-4.5594,-4.5594,-4.5594,-4.5594,-4.5594,-4.5594,-4.5825,-4.6479,-4.7221,-4.8375,-4.9827,-5.0654,-5.0683,-5.0683,-5.0683,-5.0683,-5.0683,-5.0683,-5.0683,-5.0683,-5.0683,-5.0683,-5.0683,-5.0683,-5.0683,-5.0683,-5.0683,-5.0683,-5.0683,-5.0683,-5.0683,-5.0683,-5.0683,-5.0683,-5.0683,-5.0683,-5.0683,-5.0683,-5.0683,-5.0673,-5.0633,-5.0572,-5.05,-5.0446,-5.0379,-5.0314,-5.0302,-5.0302,-5.0302,-5.0302,-5.0302,-5.0302,-5.0302,-5.0302,-5.0302,-5.0302,-5.0132,-4.9942,-4.9929,-4.9942,-4.9771,-4.9603,-4.9716,-4.9923,-5.0019,-5.012,-5.0248,-5.0302,-5.0248,-5.0088,-5.0181,-5.0259,-5.0302,-5.0302,-5.0302,-5.0302,-5.0302,-5.0302,-5.0302,-5.0302,-5.0302,-5.0302,-5.0302,-5.0302,-5.0302,-5.0302,-5.0302,-5.0302,-5.0302,-5.0302,-5.0302,-5.029,-5.0267,-5.0118,-4.9961,-5.0063,-5.0044,-5.0025,-4.9759,-4.9493,-4.9258,-4.9195,-4.8935,-4.8378,-4.8409,-4.5594,-4.5594,-4.5594,-4.5594,-4.5594,-4.5594,-4.571,-4.5825,-4.5778,-4.6018,-4.5998,-4.5979,-4.6229,-4.6056,-4.6095,-4.6018,-4.6441,-4.7451,-4.8375,-4.8644,-4.9971,-5.0606,-5.0683,-5.0683,-5.0683,-5.0683,-5.0683,-5.0683,-5.0683,-5.0683,-5.0683,-5.0683,-5.0683,-5.0683,-5.0683,-5.0683,-5.0683,-5.0683,-5.0683,-5.0683,-5.0683,-5.0683,-5.0683,-5.0683,-5.0683,-5.0683,-5.0683,-5.0683,-5.0683,-5.0692,-5.0623,-5.0542,-5.0489,-5.0435,-5.0379,-5.0302,-5.0302,-5.0302,-5.0302,-5.0302,-5.0302,-5.0302,-5.0302,-5.0302,-5.0302,-5.029,-5.0169,-5.0088,-5.0088,-5.0236,-5.0278,-5.0051,-5.0019,-5.0193,-5.029,-5.0302,-5.0302,-5.0302,-5.029,-5.029,-5.0248,-5.029,-5.0302,-5.0302,-5.0302,-5.0302,-5.0302,-5.0302,-5.0302,-5.0302,-5.0302,-5.0302,-5.0302,-5.0302,-5.0302,-5.0302,-5.0302,-5.0302,-5.0302,-5.0302,-5.0302,-5.029,-5.0209,-4.9914,-4.9815,-4.9873,-4.9708,-4.9346,-4.9137,-4.9016,-4.8876,-4.8691,-4.8483,-4.8301,-4.8428,-4.5594,-4.5594,-4.5594,-4.5594,-4.5594,-4.5594,-4.6009,-4.6624,-4.6624,-4.7067,-4.7586,-4.7663,-4.7548,-4.7586,-4.7663,-4.7663,-4.7721,-4.8529,-4.9086,-4.924,-5.0202,-5.0683,-5.0683,-5.0683,-5.0683,-5.0683,-5.0683,-5.0683,-5.0683,-5.0683,-5.0683,-5.0683,-5.0683,-5.0683,-5.0683,-5.0683,-5.0683,-5.0683,-5.0683,-5.0683,-5.0683,-5.0683,-5.0683,-5.0683,-5.0683,-5.0683,-5.0683,-5.0683,-5.0682,-5.0632,-5.0542,-5.0489,-5.0435,-5.0412,-5.0367,-5.0314,-5.0302,-5.0302,-5.0302,-5.0302,-5.0302,-5.0302,-5.0302,-5.0302,-5.0302,-5.0302,-5.0236,-5.0236,-5.0224,-5.0302,-5.0302,-5.0212,-5.0224,-5.029,-5.0302,-5.0302,-5.0302,-5.0302,-5.0302,-5.0302,-5.0302,-5.0302,-5.0302,-5.0302,-5.0302,-5.0302,-5.0302,-5.0302,-5.0302,-5.0302,-5.0302,-5.0302,-5.0302,-5.0302,-5.0302,-5.0302,-5.0302,-5.0302,-5.0302,-5.0302,-5.0302,-5.0302,-5.0133,-4.9716,-4.952,-4.9503,-4.9198,-4.8893,-4.8672,-4.8691,-4.8441,-4.8132,-4.7724,-4.7417,-4.7648,-4.5594,-4.5594,-4.5594,-4.5594,-4.5594,-4.5594,-4.6105,-4.6836,-4.6923,-4.7346,-4.7904,-4.8096,-4.8096,-4.8096,-4.8096,-4.8096,-4.8375,-4.899,-4.9375,-4.9606,-5.026,-5.0683,-5.0683,-5.0683,-5.0683,-5.0683,-5.0683,-5.0683,-5.0683,-5.0683,-5.0683,-5.0683,-5.0683,-5.0683,-5.0683,-5.0683,-5.0683,-5.0683,-5.0683,-5.0683,-5.0683,-5.0683,-5.0683,-5.0683,-5.0683,-5.0683,-5.0683,-5.0683,-5.0663,-5.0603,-5.0532,-5.0468,-5.0424,-5.0359,-5.0325,-5.0302,-5.0302,-5.0302,-5.0302,-5.0302,-5.0302,-5.0302,-5.0302,-5.0302,-5.0302,-5.0302,-5.0302,-5.0302,-5.0302,-5.0302,-5.0302,-5.0302,-5.0302,-5.0302,-5.0302,-5.0302,-5.0302,-5.0302,-5.0302,-5.0302,-5.0302,-5.0302,-5.0302,-5.0302,-5.0302,-5.0302,-5.0302,-5.0302,-5.0302,-5.0302,-5.0302,-5.0206,-5.0187,-5.0206,-5.0225,-5.0245,-5.0283,-5.0302,-5.0302,-5.0302,-5.0302,-5.0302,-4.987,-4.9362,-4.9231,-4.9456,-4.9422,-4.9346,-4.8876,-4.8319,-4.8033,-4.7644,-4.6919,-4.6599,-4.6903,-4.5594,-4.5594,-4.5594,-4.5594,-4.5594,-4.5594,-4.6201,-4.7009,-4.7154,-4.7778,-4.8548,-4.8663,-4.8721,-4.8663,-4.8682,-4.8682,-4.8682,-4.9452,-4.9702,-4.9885,-5.0366,-5.0683,-5.0683,-5.0683,-5.0683,-5.0683,-5.0683,-5.0683,-5.0683,-5.0683,-5.0683,-5.0683,-5.0683,-5.0683,-5.0683,-5.0683,-5.0683,-5.0683,-5.0683,-5.0683,-5.0683,-5.0683,-5.0683,-5.0683,-5.0683,-5.0683,-5.0683,-5.0683,-5.0663,-5.0603,-5.0551,-5.0468,-5.0412,-5.0337,-5.0302,-5.0302,-5.0302,-5.0302,-5.0302,-5.0302,-5.0302,-5.0302,-5.0302,-5.0302,-5.0302,-5.0302,-5.0302,-5.0302,-5.0302,-5.0302,-5.0302,-5.0302,-5.0302,-5.0302,-5.0302,-5.0302,-5.0302,-5.0302,-5.0302,-5.0302,-5.0302,-5.0302,-5.0302,-5.0302,-5.0302,-5.0302,-5.0302,-5.0302,-5.0302,-5.0302,-5.0264,-5.0092,-5.0034,-5.0073,-5.0111,-5.0168,-5.0225,-5.0302,-5.0302,-5.0302,-5.0302,-5.0302,-4.9774,-4.9354,-4.9755,-4.9961,-4.9901,-4.9385,-4.8407,-4.7743,-4.7598,-4.7091,-4.626,-4.6108,-4.6418,-4.5594,-4.5594,-4.5614,-4.5594,-4.5594,-4.5633,-4.6528,-4.7827,-4.7932,-4.8913,-5.0144,-5.0308,-5.024,-5.0221,-5.0221,-5.0308,-5.0366,-5.0327,-5.0385,-5.0423,-5.0596,-5.0683,-5.0683,-5.0683,-5.0683,-5.0683,-5.0683,-5.0683,-5.0683,-5.0683,-5.0683,-5.0683,-5.0683,-5.0683,-5.0683,-5.0683,-5.0683,-5.0683,-5.0683,-5.0683,-5.0683,-5.0683,-5.0683,-5.0683,-5.0683,-5.0683,-5.0683,-5.0683,-5.0682,-5.0603,-5.0551,-5.0478,-5.0393,-5.0337,-5.0302,-5.0302,-5.0302,-5.0302,-5.0302,-5.0302,-5.0302,-5.0302,-5.0302,-5.0302,-5.0302,-5.0302,-5.0302,-5.0302,-5.0302,-5.0302,-5.0302,-5.0302,-5.0302,-5.0302,-5.0302,-5.0302,-5.0302,-5.0302,-5.0302,-5.0314,-5.0314,-5.0314,-5.0333,-5.0302,-5.0302,-5.0302,-5.0302,-5.0302,-5.0302,-5.0302,-4.9996,-4.9767,-4.9805,-4.9843,-4.9939,-5.0015,-5.0111,-5.0225,-5.0302,-5.0302,-5.0302,-5.0245,-4.992,-4.971,-5.0111,-5.013,-4.9786,-4.8984,-4.778,-4.7319,-4.7304,-4.6519,-4.5508,-4.5628,-4.5915,-4.674,-4.6355,-4.6355,-4.6047,-4.5671,-4.6124,-4.699,-4.8029,-4.8644,-4.9529,-5.0529,-5.0683,-5.0683,-5.0683,-5.0683,-5.0664,-5.0683,-5.0683,-5.0683,-5.0683,-5.0683,-5.0683,-5.0683,-5.0683,-5.0683,-5.0683,-5.0683,-5.0683,-5.0683,-5.0683,-5.0683,-5.0683,-5.0683,-5.0683,-5.0683,-5.0683,-5.0683,-5.0683,-5.0683,-5.0683,-5.0683,-5.0683,-5.0683,-5.0683,-5.0683,-5.0683,-5.0683,-5.0683,-5.0682,-5.0603,-5.0532,-5.0459,-5.0412,-5.0337,-5.0302,-5.0302,-5.0302,-5.0302,-5.0302,-5.0302,-5.0302,-5.0302,-5.0302,-5.0302,-5.0302,-5.0302,-5.0302,-5.0302,-5.0302,-5.0302,-5.0302,-5.0302,-5.0302,-5.0302,-5.0302,-5.0302,-5.0302,-5.0302,-5.0302,-5.0314,-5.0325,-5.0325,-5.0333,-5.0302,-5.0302,-5.0302,-5.0283,-5.0245,-5.0264,-5.0302,-4.9862,-4.9301,-4.9435,-4.9595,-4.971,-4.9824,-4.9939,-5.0073,-5.0302,-5.0302,-5.0302,-5.0168,-4.992,-4.9901,-5.0187,-5.0034,-4.9614,-4.906,-4.8277,-4.7662,-4.7094,-4.6233,-4.5398,-4.5186,-4.5466,-4.8067,-4.7528,-4.7288,-4.6817,-4.6306,-4.6932,-4.7682,-4.8471,-4.9086,-4.9875,-5.0519,-5.0683,-5.0683,-5.0683,-5.0683,-5.0683,-5.0683,-5.0683,-5.0683,-5.0683,-5.0683,-5.0683,-5.0683,-5.0683,-5.0683,-5.0683,-5.0683,-5.0683,-5.0683,-5.0683,-5.0683,-5.0683,-5.0683,-5.0683,-5.0683,-5.0683,-5.0683,-5.0683,-5.0683,-5.0683,-5.0683,-5.0683,-5.0683,-5.0683,-5.0683,-5.0683,-5.0683,-5.0683,-5.0663,-5.0633,-5.0532,-5.0478,-5.0435,-5.0348,-5.0302,-5.0302,-5.0302,-5.0302,-5.0302,-5.0302,-5.0302,-5.0302,-5.0302,-5.0302,-5.0302,-5.0302,-5.0302,-5.0302,-5.0302,-5.0302,-5.0302,-5.0302,-5.0302,-5.0302,-5.0302,-5.0314,-5.0325,-5.0325,-5.0337,-5.0348,-5.0348,-5.0337,-5.0325,-5.0314,-5.0302,-5.0302,-5.0264,-5.0187,-5.0054,-4.9958,-4.9155,-4.8418,-4.8617,-4.8785,-4.8886,-4.912,-4.9422,-4.9927,-5.0156,-5.0302,-5.0302,-5.0225,-5.0034,-5.013,-5.0225,-4.9652,-4.906,-4.8984,-4.8831,-4.7968,-4.7094,-4.6191,-4.5517,-4.5209,-4.5055,-4.9298,-4.9163,-4.8375,-4.7971,-4.7855,-4.7981,-4.8509,-4.9183,-4.9375,-4.9942,-5.0654,-5.0683,-5.0683,-5.0683,-5.0683,-5.0683,-5.0683,-5.0683,-5.0683,-5.0683,-5.0683,-5.0683,-5.0683,-5.0683,-5.0683,-5.0683,-5.0683,-5.0683,-5.0683,-5.0683,-5.0683,-5.0683,-5.0683,-5.0683,-5.0683,-5.0683,-5.0683,-5.0683,-5.0683,-5.0683,-5.0683,-5.0683,-5.0683,-5.0683,-5.0683,-5.0683,-5.0683,-5.0683,-5.0683,-5.0663,-5.0582,-5.05,-5.0448,-5.0371,-5.0314,-5.0302,-5.0302,-5.0302,-5.0302,-5.0302,-5.0302,-5.0302,-5.0302,-5.0302,-5.0302,-5.0302,-5.0302,-5.0302,-5.0302,-5.0302,-5.0302,-5.0302,-5.0302,-5.0302,-5.0302,-5.0325,-5.0348,-5.0359,-5.0371,-5.0382,-5.0371,-5.0359,-5.0337,-5.0314,-5.0302,-5.0302,-4.9901,-4.9805,-4.9289,-4.9011,-4.8024,-4.7417,-4.7632,-4.775,-4.7745,-4.8124,-4.8843,-4.9563,-5.0026,-5.0183,-5.0302,-5.0206,-5.013,-5.0015,-4.9977,-4.9232,-4.8774,-4.9079,-4.8953,-4.7995,-4.7132,-4.6412,-4.5632,-4.5144,-4.4979,-5.0212,-5.0173,-4.9837,-4.9067,-4.8163,-4.8663,-4.9106,-4.9471,-4.9952,-5.0366,-5.0683,-5.0683,-5.0683,-5.0683,-5.0683,-5.0683,-5.0683,-5.0683,-5.0683,-5.0683,-5.0683,-5.0683,-5.0683,-5.0683,-5.0683,-5.0683,-5.0683,-5.0683,-5.0683,-5.0683,-5.0683,-5.0683,-5.0683,-5.0683,-5.0683,-5.0683,-5.0683,-5.0683,-5.0683,-5.0683,-5.0683,-5.0683,-5.0683,-5.0683,-5.0683,-5.0683,-5.0683,-5.0683,-5.0683,-5.0663,-5.0603,-5.0542,-5.0489,-5.0382,-5.0337,-5.0302,-5.0302,-5.0302,-5.0302,-5.0302,-5.0302,-5.0302,-5.0302,-5.0302,-5.0302,-5.0302,-5.0302,-5.0302,-5.0302,-5.0302,-5.0302,-5.0302,-5.0302,-5.0302,-5.0314,-5.0337,-5.0371,-5.0412,-5.0393,-5.0404,-5.0393,-5.0371,-5.0348,-5.0325,-5.0314,-5.0264,-4.9805,-4.9297,-4.877,-4.8121,-4.7198,-4.6455,-4.6574,-4.6917,-4.6968,-4.7611,-4.8377,-4.9117,-4.9863,-5.009,-5.0259,-5.0283,-5.0206,-5.0034,-4.9748,-4.9213,-4.906,-4.9461,-4.8934,-4.7586,-4.7067,-4.6827,-4.6035,-4.5137,-4.5014,-5.0683,-5.0683,-5.0683,-5.001,-4.9009,-4.951,-4.9798,-4.9894,-5.0404,-5.0683,-5.0683,-5.0683,-5.0683,-5.0683,-5.0683,-5.0683,-5.0683,-5.0683,-5.0683,-5.0683,-5.0683,-5.0683,-5.0683,-5.0683,-5.0683,-5.0683,-5.0683,-5.0683,-5.0683,-5.0683,-5.0683,-5.0683,-5.0683,-5.0683,-5.0683,-5.0683,-5.0683,-5.0683,-5.0683,-5.0683,-5.0683,-5.0683,-5.0683,-5.0683,-5.0683,-5.0683,-5.0683,-5.0683,-5.0692,-5.0663,-5.0603,-5.0521,-5.0448,-5.0393,-5.0348,-5.0314,-5.0302,-5.0302,-5.0302,-5.0302,-5.0302,-5.0302,-5.0302,-5.0302,-5.0302,-5.0302,-5.0302,-5.0302,-5.0302,-5.0302,-5.0302,-5.0302,-5.0314,-5.0325,-5.0302,-5.0325,-5.0412,-5.0446,-5.0446,-5.0427,-5.0427,-5.0407,-5.0291,-5.0256,-5.018,-5.0054,-4.9633,-4.8926,-4.8057,-4.7376,-4.6531,-4.586,-4.548,-4.5885,-4.6288,-4.6996,-4.7772,-4.8802,-4.9486,-5.0004,-5.0205,-5.0164,-4.9977,-4.9633,-4.9366,-4.9137,-4.8831,-4.8544,-4.7837,-4.692,-4.6582,-4.6293,-4.5902,-4.5072,-4.5061,-5.0683,-5.0683,-5.0683,-5.0625,-5.0442,-5.0606,-5.0616,-5.0529,-5.0654,-5.0683,-5.0683,-5.0683,-5.0683,-5.0683,-5.0683,-5.0683,-5.0683,-5.0683,-5.0683,-5.0683,-5.0683,-5.0683,-5.0683,-5.0683,-5.0683,-5.0683,-5.0683,-5.0683,-5.0683,-5.0683,-5.0683,-5.0683,-5.0683,-5.0683,-5.0683,-5.0683,-5.0683,-5.0683,-5.0683,-5.0683,-5.0683,-5.0683,-5.0683,-5.0683,-5.0683,-5.0683,-5.0683,-5.0673,-5.0673,-5.0613,-5.0572,-5.0489,-5.0424,-5.0359,-5.0325,-5.0302,-5.0302,-5.0302,-5.0302,-5.0302,-5.0302,-5.0302,-5.0302,-5.0302,-5.0302,-5.0302,-5.0302,-5.0302,-5.0302,-5.0302,-5.0302,-5.0302,-5.0337,-5.0367,-5.0325,-5.0359,-5.0457,-5.0519,-5.05,-5.0385,-5.0445,-5.0464,-5.0286,-5.0149,-5.0054,-4.9843,-4.9454,-4.8655,-4.7611,-4.6588,-4.5786,-4.5274,-4.4758,-4.4856,-4.5379,-4.6289,-4.7188,-4.8256,-4.9029,-4.9448,-4.9642,-4.956,-4.9354,-4.9137,-4.8774,-4.8391,-4.7818,-4.7264,-4.6825,-4.6451,-4.5808,-4.5451,-4.5186,-4.5125,-4.5125,-5.0472,-5.0633,-5.0633,-5.0613,-5.0573,-5.0663,-5.0683,-5.0683,-5.0683,-5.0683,-5.0683,-5.0683,-5.0683,-5.0683,-5.0683,-5.0683,-5.0683,-5.0683,-5.0683,-5.0683,-5.0683,-5.0683,-5.0683,-5.0683,-5.0683,-5.0683,-5.0683,-5.0683,-5.0683,-5.0683,-5.0683,-5.0683,-5.0683,-5.0683,-5.0683,-5.0683,-5.0683,-5.0683,-5.0683,-5.0683,-5.0683,-5.0683,-5.0683,-5.0683,-5.0683,-5.0683,-5.0683,-5.0653,-5.0623,-5.0582,-5.0521,-5.0468,-5.0412,-5.0348,-5.0337,-5.0314,-5.0302,-5.0302,-5.0302,-5.0302,-5.0302,-5.0302,-5.0302,-5.0302,-5.0302,-5.0302,-5.0302,-5.0302,-5.0302,-5.0302,-5.0302,-5.0337,-5.039,-5.0401,-5.0412,-5.0478,-5.0551,-5.0562,-5.0553,-5.0322,-5.0256,-4.9505,-4.9103,-4.9186,-4.9194,-4.8984,-4.8525,-4.8184,-4.7308,-4.6007,-4.5003,-4.4589,-4.4224,-4.4125,-4.4464,-4.5552,-4.6221,-4.6966,-4.7856,-4.8561,-4.8713,-4.8888,-4.8598,-4.8334,-4.796,-4.7578,-4.6986,-4.6519,-4.6424,-4.6069,-4.557,-4.5273,-4.5213,-4.5203,-4.5213,-5.044,-5.0593,-5.0582,-5.047,-5.0385,-5.0553,-5.0643,-5.0663,-5.0683,-5.0683,-5.0683,-5.0683,-5.0683,-5.0683,-5.0683,-5.0673,-5.0663,-5.0653,-5.0673,-5.0663,-5.0653,-5.0682,-5.0702,-5.0683,-5.0683,-5.0683,-5.0683,-5.0683,-5.0683,-5.0683,-5.0683,-5.0683,-5.0683,-5.0683,-5.0683,-5.0683,-5.0683,-5.0683,-5.0683,-5.0683,-5.0683,-5.0683,-5.0683,-5.0683,-5.0683,-5.0683,-5.0673,-5.0623,-5.0563,-5.0551,-5.0489,-5.0416,-5.0382,-5.0348,-5.0337,-5.0302,-5.0302,-5.0302,-5.0302,-5.0302,-5.0302,-5.0302,-5.0302,-5.0302,-5.0302,-5.0302,-5.0302,-5.0302,-5.0302,-5.0302,-5.0314,-5.0379,-5.0424,-5.0435,-5.0478,-5.0551,-5.0582,-5.0612,-5.0573,-5.0343,-4.9777,-4.8891,-4.8024,-4.8045,-4.8151,-4.7865,-4.7559,-4.7241,-4.6904,-4.5697,-4.4578,-4.4192,-4.3908,-4.3869,-4.4231,-4.5041,-4.5554,-4.5777,-4.6755,-4.7912,-4.8167,-4.8358,-4.793,-4.7444,-4.6959,-4.65,-4.6156,-4.587,-4.587,-4.5793,-4.5564,-4.5373,-4.5297,-4.5297,-4.5275,-5.0553,-5.0553,-5.0481,-5.0275,-5.0062,-5.0287,-5.0489,-5.0553,-5.0604,-5.0614,-5.0653,-5.0575,-5.0504,-5.0594,-5.0624,-5.0594,-5.0563,-5.0563,-5.0603,-5.0622,-5.0613,-5.0663,-5.0692,-5.0683,-5.0683,-5.0683,-5.0683,-5.0683,-5.0683,-5.0683,-5.0683,-5.0683,-5.0683,-5.0683,-5.0683,-5.0683,-5.0683,-5.0683,-5.0683,-5.0683,-5.0683,-5.0683,-5.0683,-5.0683,-5.0683,-5.0682,-5.0653,-5.0593,-5.0511,-5.0457,-5.0393,-5.0348,-5.0325,-5.0302,-5.0302,-5.0302,-5.0302,-5.0302,-5.0302,-5.0302,-5.0302,-5.0302,-5.0302,-5.0302,-5.0302,-5.0302,-5.0302,-5.0302,-5.0314,-5.0314,-5.0333,-5.0401,-5.0457,-5.0489,-5.0511,-5.0572,-5.0603,-5.0603,-5.0573,-5.0238,-4.9596,-4.874,-4.7624,-4.7369,-4.7161,-4.694,-4.6666,-4.6335,-4.5956,-4.5457,-4.449,-4.4053,-4.3828,-4.3697,-4.4162,-4.4829,-4.5085,-4.535,-4.6519,-4.7562,-4.7725,-4.7613,-4.7139,-4.6557,-4.587,-4.5488,-4.5564,-4.5507,-4.5411,-4.5335,-4.5392,-4.5621,-4.5621,-4.5354,-4.5316,-4.9825,-4.9752,-4.9725,-4.9641,-4.9537,-4.9669,-4.9872,-5.0142,-4.9981,-4.9962,-5.0202,-4.9936,-4.9936,-4.9872,-5.008,-5.0178,-5.0279,-5.0377,-5.0532,-5.0582,-5.0582,-5.0633,-5.0663,-5.0702,-5.0683,-5.0683,-5.0683,-5.0673,-5.0683,-5.0683,-5.0683,-5.0683,-5.0683,-5.0683,-5.0683,-5.0683,-5.0683,-5.0683,-5.0683,-5.0683,-5.0683,-5.0683,-5.0683,-5.0683,-5.0702,-5.0663,-5.0603,-5.0562,-5.0478,-5.0404,-5.0348,-5.0314,-5.0302,-5.0302,-5.0302,-5.0302,-5.0302,-5.0302,-5.0302,-5.0302,-5.0302,-5.0302,-5.0302,-5.0302,-5.0302,-5.0302,-5.0302,-5.0302,-5.0337,-5.0337,-5.039,-5.0446,-5.0519,-5.0551,-5.0582,-5.0623,-5.0643,-5.0643,-5.0576,-4.9922,-4.9298,-4.8087,-4.7011,-4.6395,-4.6188,-4.6014,-4.5816,-4.5555,-4.528,-4.489,-4.4535,-4.4102,-4.3996,-4.3949,-4.4091,-4.4655,-4.4766,-4.5082,-4.6214,-4.6849,-4.6517,-4.6332,-4.6143,-4.587,-4.5488,-4.5354,-4.5335,-4.5277,-4.5277,-4.5277,-4.5354,-4.5679,-4.5889,-4.5698,-4.5526,-4.9186,-4.9405,-4.9375,-4.9287,-4.9113,-4.8996,-4.919,-4.9479,-4.9508,-4.9636,-4.9779,-4.9603,-4.9489,-4.9561,-4.9741,-4.9879,-4.9993,-5.0205,-5.039,-5.0489,-5.0489,-5.0553,-5.0603,-5.0623,-5.0594,-5.0623,-5.0623,-5.0594,-5.0633,-5.0653,-5.0653,-5.0653,-5.0673,-5.0683,-5.0683,-5.0683,-5.0683,-5.0683,-5.0683,-5.0683,-5.0683,-5.0683,-5.0702,-5.0682,-5.0682,-5.0613,-5.0521,-5.0478,-5.0416,-5.0359,-5.0314,-5.0302,-5.0302,-5.0302,-5.0302,-5.0302,-5.0302,-5.0302,-5.0302,-5.0302,-5.0302,-5.0302,-5.0302,-5.0302,-5.0302,-5.0302,-5.0302,-5.0302,-5.0348,-5.0382,-5.0457,-5.0519,-5.0562,-5.0593,-5.0643,-5.0683,-5.0683,-5.0683,-5.0202,-4.9558,-4.8539,-4.7271,-4.6349,-4.5724,-4.5387,-4.5489,-4.5534,-4.5423,-4.5213,-4.4969,-4.4662,-4.4318,-4.4303,-4.4318,-4.4467,-4.4686,-4.5033,-4.5337,-4.584,-4.6152,-4.5535,-4.546,-4.5647,-4.5564,-4.5354,-4.5277,-4.5277,-4.5277,-4.5277,-4.5277,-4.543,-4.587,-4.6194,-4.6309,-4.6137,-4.8555,-4.9171,-4.9199,-4.9034,-4.8747,-4.8477,-4.8532,-4.8799,-4.9174,-4.9401,-4.9416,-4.9386,-4.9311,-4.9249,-4.9416,-4.9566,-4.9683,-4.9876,-5.0057,-5.0314,-5.0205,-5.024,-5.031,-5.0418,-5.0407,-5.0448,-5.0492,-5.0542,-5.0551,-5.0582,-5.0613,-5.0603,-5.0653,-5.0663,-5.0653,-5.0663,-5.0663,-5.0663,-5.0683,-5.0683,-5.0683,-5.0683,-5.0682,-5.0613,-5.0593,-5.0562,-5.0446,-5.0382,-5.0359,-5.0325,-5.0302,-5.0302,-5.0302,-5.0302,-5.0302,-5.0302,-5.0302,-5.0302,-5.0302,-5.0302,-5.0302,-5.0302,-5.0302,-5.0302,-5.0302,-5.0302,-5.0302,-5.0337,-5.0401,-5.0446,-5.0489,-5.0572,-5.0613,-5.0633,-5.0663,-5.0683,-5.0683,-5.0414,-4.9721,-4.9038,-4.8106,-4.6877,-4.5956,-4.537,-4.5369,-4.5309,-4.5277,-4.5267,-4.5194,-4.5023,-4.4831,-4.461,-4.4958,-4.5003,-4.4858,-4.5117,-4.5565,-4.5868,-4.5943,-4.5915,-4.5616,-4.5434,-4.5286,-4.5277,-4.5277,-4.5277,-4.5277,-4.5277,-4.5277,-4.5277,-4.5526,-4.6061,-4.6366,-4.6481,-4.6729,-4.7701,-4.77,-4.8292,-4.8495,-4.8402,-4.8344,-4.8344,-4.8439,-4.8513,-4.8745,-4.89,-4.8728,-4.8622,-4.8729,-4.8949,-4.9097,-4.9161,-4.9457,-4.9541,-4.9655,-4.9697,-4.9811,-4.9819,-5.0006,-5.0106,-5.0221,-5.0321,-5.0489,-5.05,-5.0551,-5.0582,-5.0532,-5.0573,-5.0613,-5.0593,-5.0613,-5.0633,-5.0633,-5.0673,-5.0683,-5.0702,-5.0692,-5.0682,-5.0613,-5.0582,-5.053,-5.0435,-5.0382,-5.0348,-5.0314,-5.0302,-5.0302,-5.0302,-5.0302,-5.029,-5.0302,-5.0278,-5.029,-5.0248,-5.0259,-5.0302,-5.0302,-5.0302,-5.0302,-5.0302,-5.0302,-5.0314,-5.039,-5.0435,-5.0478,-5.0532,-5.0613,-5.0663,-5.0673,-5.0692,-5.0683,-5.0683,-5.0048,-4.9336,-4.8481,-4.7635,-4.6762,-4.5803,-4.5371,-4.537,-4.5329,-4.5298,-4.5277,-4.5277,-4.5184,-4.5162,-4.5121,-4.5807,-4.5906,-4.5513,-4.544,-4.5839,-4.5696,-4.5574,-4.5595,-4.563,-4.5468,-4.5277,-4.5277,-4.5277,-4.5277,-4.5277,-4.5277,-4.5277,-4.5277,-4.5392,-4.5812,-4.6023,-4.6137,-4.6748,-4.6633,-4.7168,-4.7976,-4.8324,-4.8324,-4.8324,-4.8324,-4.8324,-4.8324,-4.8402,-4.855,-4.8383,-4.8324,-4.8324,-4.8569,-4.873,-4.8816,-4.905,-4.9271,-4.9348,-4.9314,-4.9405,-4.9508,-4.9594,-4.9779,-4.993,-5.024,-5.0424,-5.0404,-5.0487,-5.0508,-5.05,-5.0532,-5.0532,-5.0521,-5.0582,-5.0593,-5.0603,-5.0653,-5.0692,-5.0673,-5.0663,-5.0623,-5.0582,-5.0511,-5.0457,-5.0393,-5.0348,-5.0337,-5.0314,-5.0302,-5.0302,-5.0302,-5.0302,-5.0193,-5.0156,-5.0156,-5.0236,-5.0169,-5.0181,-5.0259,-5.029,-5.0302,-5.0302,-5.0356,-5.0356,-5.0302,-5.0348,-5.0457,-5.05,-5.0532,-5.0594,-5.0663,-5.0683,-5.0683,-5.0683,-5.0693,-5.0404,-4.9433,-4.8308,-4.7587,-4.6983,-4.61,-4.54,-4.5379,-4.5319,-4.5288,-4.5277,-4.5277,-4.5277,-4.5277,-4.5488,-4.608,-4.608,-4.5489,-4.5592,-4.6034,-4.5753,-4.5333,-4.5343,-4.5428,-4.5362,-4.5277,-4.5277,-4.5277,-4.5277,-4.5277,-4.5354,-4.5297,-4.5277,-4.5354,-4.5488,-4.5698,-4.5946,-4.6328,-4.5681,-4.7113,-4.7828,-4.8214,-4.8324,-4.8324,-4.8324,-4.8324,-4.8324,-4.8324,-4.8325,-4.8325,-4.8324,-4.8343,-4.8419,-4.8587,-4.8694,-4.8764,-4.8984,-4.9083,-4.9097,-4.9048,-4.9062,-4.9221,-4.9439,-4.9688,-4.9955,-5.0113,-5.0193,-5.0205,-5.0228,-5.0416,-5.0459,-5.0459,-5.0551,-5.0572,-5.0542,-5.0572,-5.0603,-5.0623,-5.0613,-5.0593,-5.0542,-5.05,-5.0435,-5.0359,-5.0325,-5.0302,-5.0302,-5.0302,-5.0302,-5.0302,-5.0302,-5.029,-5.0076,-5.0006,-5.0051,-5.0025,-4.9955,-5.0051,-5.0169,-5.0259,-5.029,-5.0314,-5.0367,-5.0356,-5.0314,-5.0359,-5.0457,-5.0521,-5.0553,-5.0594,-5.0663,-5.0683,-5.0683,-5.0683,-5.0673,-5.0558,-4.9433,-4.8231,-4.7587,-4.7041,-4.6263,-4.5563,-4.5379,-4.5319,-4.5288,-4.5277,-4.5277,-4.5277,-4.5277,-4.5564,-4.6042,-4.5851,-4.5564,-4.5709,-4.6126,-4.5832,-4.5467,-4.5328,-4.5194,-4.5132,-4.5162,-4.5277,-4.5277,-4.5335,-4.543,-4.5526,-4.5449,-4.5564,-4.6042,-4.629,-4.5984,-4.6156,-4.5965,-4.5627,-4.7094,-4.7278,-4.77,-4.8232,-4.8324,-4.8324,-4.8324,-4.8324,-4.8324,-4.8324,-4.8324,-4.8324,-4.8324,-4.8324,-4.842,-4.8458,-4.8514,-4.8458,-4.8477,-4.8641,-4.8568,-4.8622,-4.8917,-4.9113,-4.9348,-4.9541,-4.966,-4.9844,-4.9738,-4.9865,-5.0283,-5.0081,-5.0149,-5.0359,-5.0412,-5.0457,-5.0478,-5.053,-5.0562,-5.0542,-5.0532,-5.053,-5.0468,-5.0393,-5.0348,-5.0314,-5.0302,-5.0302,-5.0302,-5.029,-5.029,-5.0259,-5.0236,-5.0063,-4.9771,-4.983,-4.9876,-4.9844,-4.9903,-5.0006,-5.029,-5.0302,-5.0283,-5.0325,-5.0325,-5.0325,-5.0393,-5.0489,-5.0553,-5.0594,-5.0643,-5.0683,-5.0683,-5.0683,-5.0683,-5.0693,-5.0144,-4.9298,-4.8336,-4.7548,-4.6762,-4.585,-4.5448,-4.54,-4.535,-4.5317,-4.5307,-4.5277,-4.5277,-4.5277,-4.5602,-4.5965,-4.6271,-4.626,-4.594,-4.6071,-4.581,-4.552,-4.5202,-4.4988,-4.491,-4.4957,-4.5121,-4.5314,-4.5411,-4.5526,-4.5908,-4.6175,-4.6424,-4.7062,-4.7311,-4.6795,-4.6247,-4.5985]},{"header":{"parameterUnit":"m.s-1","parameterCategory":1,"la1":31.0,"la2":29.5877,"lo1":-88.7671,"lo2":-86.6584,"dy":0.0162,"dx":0.0185,"nx":115,"ny":88,"refTime":"2024-07-18T06:00:00:Z","depth":0,"parameterNumber":3,"parameterNumberName":"V-component_of_WINDS"},"data":[0.0,0.0,0.0,0.0,0.0,0.0,0.0,0.0,0.0,0.0,0.0,0.0,0.0,0.0,0.0,0.0,0.0,0.0,0.0,0.0,0.0,0.0,0.0,0.0,0.0,0.0,0.0,0.0,0.0,0.0,0.0,0.0,0.0,0.0,0.0,0.0,0.0,0.0,0.0,0.0,0.0,0.0,0.0,0.0,0.0,0.0,0.0,0.0,0.0,0.0,0.0,0.0,0.0,0.0,0.0,0.0,0.0,0.0,0.0,0.0,0.0,0.0,0.0,0.0,0.0,0.0,0.0,0.0,0.0,0.0,0.0,0.0,0.0,0.0,0.0,0.0,0.0,0.0,0.0,0.0,0.0,0.0,0.0,0.0,0.0,0.0,0.0,0.0,0.0,0.0,0.0,0.0,0.0,0.0,0.0,0.0,0.0,0.0,0.0,0.0,0.0,0.0,0.0,0.0,0.0,0.0,0.0,0.0,0.0,0.0,0.0,0.0,0.0,0.0,0.0,0.0,0.0,0.0,0.0,0.0,0.0,0.0,0.0,0.0,0.0,0.0,0.0,0.0,0.0,0.0,0.0,0.0,0.0,0.0,0.0,0.0,0.0,0.0,0.0,0.0,0.0,0.0,0.0,0.0,0.0,0.0,0.0,0.0,0.0,0.0,0.0,0.0,0.0,0.0,0.0,0.0,0.0,0.0,0.0,0.0,0.0,0.0,0.0,0.0,0.0,0.0,0.0,0.0,0.0,0.0,0.0,0.0,0.0,0.0,0.0,0.0,0.0,0.0,0.0,0.0,0.0,0.0,0.0,0.0,0.0,0.0,0.0,0.0,0.0,0.0,0.0,0.0,0.0,0.0,0.0,0.0,0.0,0.0,0.0,0.0,0.0,0.0,0.0,0.0,0.0,0.0,0.0,0.0,0.0,0.0,0.0,0.0,0.0,0.0,0.0,0.0,0.0,0.0,0.0,0.0,0.0,0.0,0.0,0.0,0.0,0.0,0.0,0.0,0.0,0.0,0.0,0.0,0.0,0.0,0.0,0.0,0.0,0.0,0.0,0.0,0.0,0.0,0.0,0.0,0.0,0.0,0.0,0.0,0.0,0.0,0.0,0.0,0.0,0.0,0.0,0.0,0.0,0.0,0.0,0.0,0.0,0.0,0.0,0.0,0.0,0.0,0.0,0.0,0.0,0.0,0.0,0.0,0.0,0.0,0.0,0.0,0.0,0.0,0.0,0.0,0.0,0.0,0.0,0.0,0.0,0.0,0.0,0.0,0.0,0.0,0.0,0.0,0.0,0.0,0.0,0.0,0.0,0.0,0.0,0.0,0.0,0.0,0.0,0.0,0.0,0.0,0.0,0.0,0.0,0.0,0.0,0.0,0.0,0.0,0.0,0.0,0.0,0.0,0.0,0.0,0.0,0.0,0.0,0.0,0.0,0.0,0.0,0.0,0.0,0.0,0.0,0.0,0.0,0.0,0.0,0.0,0.0,0.0,0.0,0.0,0.0,0.0,0.0,0.0,0.0,0.0,0.0,0.0,0.0,0.0,0.0,0.0,0.0,0.0,0.0,0.0,0.0,0.0,0.0,0.0,0.0,0.0,0.0,0.0,0.0,0.0,0.0,0.0,0.0,0.0,0.0,0.0,0.0,0.0,0.0,0.0,0.0,0.0,0.0,0.0,0.0,0.0,0.0,0.0,0.0,0.0,0.0,0.0,0.0,0.0,0.0,0.0,0.0,0.0,0.0,0.0,0.0,0.0,0.0,0.0,0.0,0.0,0.0,0.0,0.0,0.0,0.0,0.0,0.0,0.0,0.0,0.0,0.0,0.0,0.0,0.0,0.0,0.0,0.0,0.0,0.0,0.0,0.0,0.0,0.0,0.0,0.0,0.0,0.0,0.0,0.0,0.0,0.0,0.0,0.0,0.0,0.0,0.0,0.0,0.0,0.0,0.0,0.0,0.0,0.0,0.0,0.0,0.0,0.0,0.0,0.0,0.0,0.0,0.0,0.0,0.0,0.0,0.0,0.0,0.0,0.0,0.0,0.0,0.0,0.0,0.0,0.0,0.0,0.0,0.0,0.0,0.0,0.0,0.0,0.0,0.0,0.0,0.0,0.0,0.0,0.0,0.0,0.0,0.0,0.0,0.0,0.0,0.0,0.0,0.0,0.0,0.0,0.0,0.0,0.0,0.0,0.0,0.0,0.0,0.0,0.0,0.0,0.0,0.0,0.0,0.0,0.0,0.0,0.0,0.0,0.0,0.0,0.0,0.0,0.0,0.0,0.0,0.0,0.0,0.0,0.0,0.0,0.0,0.0,0.0,0.0,0.0,0.0,0.0,0.0,0.0,0.0,0.0,0.0,0.0,0.0,0.0,0.0,0.0,0.0,0.0,0.0,0.0,0.0,0.0,0.0,0.0,0.0,0.0,0.0,0.0,0.0,0.0,0.0,0.0,0.0,0.0,0.0,0.0,0.0,0.0,0.0,0.0,0.0,0.0,0.0,0.0,0.0,0.0,0.0,0.0,0.0,0.0,0.0,0.0,0.0,0.0,0.0,0.0,0.0,0.0,0.0,0.0,0.0,0.0,0.0,0.0,0.0,0.0,0.0,0.0,0.0,0.0,0.0,0.0,0.0,0.0,0.0,0.0,0.0,0.0,0.0,0.0,0.0,0.0,0.0,0.0,0.0,0.0,0.0,0.0,0.0,0.0,0.0,0.0,0.0,0.0,0.0,0.0,0.0,0.0,0.0,0.0,0.0,0.0,0.0,0.0,0.0,0.0,0.0,0.0,0.0,0.0,0.0,0.0,0.0,0.0,0.0,0.0,0.0,0.0,0.0,0.0,0.0,0.0,0.0,0.0,0.0,0.0,0.0,0.0,0.0,0.0,0.0,0.0,0.0,0.0,0.0,0.0,0.0,0.0,0.0,0.0,0.0,0.0,0.0,0.0,0.0,0.0,0.0,0.0,0.0,0.0,0.0,0.0,0.0,0.0,0.0,0.0,0.0,0.0,0.0,0.0,0.0,0.0,0.0,0.0,0.0,0.0,0.0,0.0,0.0,0.0,0.0,0.0,0.0,0.0,0.0,0.0,0.0,0.0,0.0,0.0,0.0,0.0,0.0,0.0,0.0,0.0,0.0,0.0,0.0,0.0,0.0,0.0,0.0,0.0,0.0,0.0,0.0,0.0,0.0,0.0,0.0,0.0,0.0,0.0,0.0,0.0,0.0,0.0,0.0,0.0,0.0,0.0,0.0,0.0,0.0,0.0,0.0,0.0,0.0,0.0,0.0,0.0,0.0,0.0,0.0,0.0,0.0,0.0,0.0,0.0,0.0,0.0,0.0,0.0,0.0,0.0,0.0,0.0,0.0,0.0,0.0,0.0,0.0,0.0,0.0,0.0,0.0,0.0,0.0,0.0,0.0,0.0,0.0,0.0,0.0,0.0,0.0,0.0,0.0,0.0,0.0,0.0,0.0,0.0,0.0,0.0,0.0,0.0,0.0,0.0,0.0,0.0,0.0,0.0,0.0,0.0,0.0,0.0,0.0,0.0,0.0,0.0,0.0,0.0,0.0,0.0,0.0,0.0,0.0,0.0,0.0,0.0,0.0,0.0,0.0,0.0,0.0,0.0,0.0,0.0,0.0,0.0,0.0,0.0,0.0,0.0,0.0,0.0,0.0,0.0,0.0,0.0,0.0,0.0,0.0,0.0,0.0,0.0,0.0,0.0,0.0,0.0,0.0,0.0,0.0,0.0,0.0,0.0,0.0,0.0,0.0,0.0,0.0,0.0,0.0,0.0,0.0,0.0,0.0,0.0,0.0,0.0,0.0,0.0,0.0,0.0,0.0,0.0,0.0,0.0,0.0,0.0,0.0,0.0,0.0,0.0,0.0,0.0,0.0,0.0,0.0,0.0,0.0,0.0,0.0,0.0,0.0,0.0,0.0,0.0,0.0,0.0,0.0,0.0,0.0,0.0,0.0,0.0,0.0,0.0,0.0,0.0,0.0,0.0,0.0,0.0,0.0,0.0,0.0,0.0,0.0,0.0,0.0,0.0,0.0,0.0,0.0,0.0,0.0,0.0,0.0,0.0,0.0,0.0,0.0,0.0,0.0,0.0,0.0,0.0,0.0,0.0,0.0,0.0,0.0,0.0,0.0,0.0,0.0,0.0,0.0,0.0,0.0,0.0,0.0,0.0,0.0,0.0,0.0,0.0,0.0,0.0,0.0,0.0,0.0,0.0,0.0,0.0,0.0,0.0,0.0,0.0,0.0,-0.2798,0.0,0.0,0.0,0.0,0.0,0.0,0.0,0.0,0.0,0.0,0.0,0.0,0.0,0.0,0.0,0.0,0.0,0.0,0.0,0.0,0.0,0.0,0.0,0.0,0.0,0.0,0.0,0.0,0.0,0.0,0.0,0.0,0.0,0.0,0.0,0.0,0.0,0.0,0.0,0.0,0.0,0.0,0.0,0.0,0.0,0.0,0.0,0.0,0.0,0.0,0.0,0.0,0.0,0.0,0.0,0.0,0.0,0.0,0.0,0.0,0.0,0.0,0.0,0.0,0.0,0.0,0.0,0.0,0.0,0.0,0.0,0.0,0.0,0.0,0.0,0.0,0.0,0.0,0.0,0.0,0.0,0.0,0.0,0.0,0.0,0.0,0.0,0.0,0.0,0.0,0.0,0.0,0.0,0.0,0.0,0.0,0.0,0.0,0.0,0.0,0.0,0.0,0.0,0.0,0.0,0.0,0.0,0.0,0.0,0.0,-0.3115,-0.3158,-0.3059,-0.2997,-0.2895,0.0,0.0,0.0,0.0,0.0,0.0,0.0,0.0,0.0,0.0,0.0,0.0,0.0,0.0,0.0,0.0,0.0,0.0,0.0,0.0,0.0,0.0,0.0,0.0,0.0,0.0,0.0,0.0,0.0,0.0,0.0,0.0,0.0,0.0,0.0,0.0,0.0,0.0,0.0,0.0,0.0,0.0,0.0,0.0,0.0,0.0,0.0,0.0,0.0,0.0,0.0,0.0,0.0,0.0,0.0,0.0,0.0,0.0,0.0,0.0,0.0,0.0,0.0,0.0,0.0,0.0,0.0,0.0,0.0,0.0,0.0,0.0,0.0,0.0,0.0,0.0,0.0,0.0,0.0,0.0,0.0,0.0,0.0,0.0,0.0,0.0,0.0,0.0,0.0,0.0,0.0,0.0,0.0,0.0,0.0,0.0,0.0,0.0,0.0,0.0,0.0,0.0,0.0,0.0,0.0,0.0,0.0,0.0,0.0,0.0,0.0,0.0,-0.3071,-0.2977,-0.286,0.0,0.0,0.0,0.0,0.0,0.0,0.0,0.0,0.0,0.0,0.0,0.0,0.0,0.0,0.0,0.0,0.0,0.0,0.0,0.0,0.0,0.0,0.0,0.0,0.0,0.0,0.0,0.0,0.0,0.0,0.0,0.0,0.0,0.0,0.0,0.0,0.0,0.0,0.0,0.0,0.0,0.0,0.0,0.0,0.0,0.0,0.0,0.0,0.0,0.0,0.0,0.0,0.0,0.0,0.0,0.0,0.0,0.0,0.0,0.0,0.0,0.0,0.0,0.0,0.0,0.0,0.0,0.0,0.0,0.0,0.0,0.0,0.0,0.0,0.0,0.0,0.0,0.0,0.0,0.0,0.0,0.0,0.0,0.0,0.0,0.0,0.0,0.0,0.0,0.0,0.0,0.0,0.0,0.0,0.0,0.0,0.0,0.0,0.0,0.0,0.0,0.0,0.0,0.0,0.0,0.0,0.0,0.0,0.0,0.0,-0.294,-0.3184,-0.313,0.0,-0.2564,0.0,0.0,0.0,0.0,0.0,0.0,0.0,0.0,0.0,0.0,0.0,0.0,0.0,0.0,0.0,0.0,0.0,0.0,0.0,0.0,0.0,0.0,0.0,0.0,0.0,0.0,0.0,0.0,0.0,0.0,0.0,0.0,0.0,0.0,0.0,0.0,0.0,0.0,0.0,0.0,0.0,0.0,0.0,0.0,0.0,0.0,0.0,0.0,0.0,0.0,0.0,0.0,0.0,0.0,0.0,0.0,0.0,0.0,0.0,0.0,0.0,0.0,0.0,0.0,0.0,0.0,0.0,0.0,0.0,0.0,0.0,0.0,0.0,0.0,0.0,0.0,0.0,0.0,0.0,0.0,0.0,0.0,0.0,0.0,0.0,0.0,0.0,0.0,0.0,0.0,0.0,0.0,0.0,0.0,0.0,0.0,0.0,0.0,0.0,0.0,0.0,0.0,0.0,0.0,0.0,0.0,0.0,0.0,0.0,0.0,-0.2679,-0.319,-0.3138,-0.2898,0.0,0.0,0.0,0.0,0.0,0.0,0.0,0.0,0.0,0.0,0.0,0.0,0.0,0.0,0.0,0.0,0.0,0.0,0.0,0.0,0.0,0.0,0.0,0.0,0.0,0.0,0.0,0.0,0.0,0.0,0.0,0.0,0.0,0.0,0.0,0.0,0.0,0.0,0.0,0.0,0.0,0.0,0.0,0.0,0.0,0.0,0.0,0.0,0.0,0.0,0.0,0.0,0.0,0.0,0.0,0.0,0.0,0.0,0.0,0.0,0.0,0.0,0.0,0.0,0.0,0.0,0.0,0.0,0.0,0.0,0.0,0.0,0.0,0.0,0.0,0.0,0.0,0.0,0.0,0.0,0.0,0.0,0.0,0.0,0.0,0.0,0.0,0.0,0.0,0.0,0.0,0.0,0.0,0.0,0.0,0.0,0.0,0.0,0.0,0.0,0.0,0.0,0.0,0.0,0.0,0.0,0.0,0.0,0.0,0.0,-0.1695,-0.2496,-0.318,-0.3138,-0.2914,-0.2536,0.0,0.0,0.0,0.0,0.0,0.0,0.0,0.0,0.0,0.0,0.0,0.0,0.0,0.0,0.0,0.0,0.0,0.0,0.0,0.0,0.0,0.0,0.0,0.0,0.0,0.0,0.0,0.0,0.0,0.0,0.0,0.0,0.0,0.0,0.0,0.0,0.0,0.0,0.0,0.0,0.0,0.0,0.0,0.0,0.0,0.0,0.0,0.0,0.0,0.0,0.0,0.0,0.0,0.0,0.0,0.0,0.0,0.0,0.0,0.0,0.0,0.0,0.0,0.0,0.0,0.0,0.0,0.0,0.0,0.0,0.0,0.0,0.0,0.0,0.0,0.0,0.0,0.0,0.0,0.0,0.0,0.0,0.0,0.0,0.0,0.0,0.0,0.0,0.0,0.0,0.0,0.0,0.0,0.0,0.0,0.0,0.0,0.0,0.0,0.0,0.0,0.0,0.0,0.0,0.0,0.0,0.0,0.0,-0.0265,-0.146,-0.2446,-0.3188,-0.3138,-0.3007,0.0,0.0,0.0,0.0,0.0,0.0,0.0,0.0,0.0,0.0,0.0,0.0,0.0,0.0,0.0,0.0,0.0,0.0,0.0,0.0,0.0,0.0,0.0,0.0,0.0,0.0,0.0,0.0,0.0,0.0,0.0,0.0,0.0,0.0,0.0,0.0,0.0,0.0,0.0,0.0,0.0,0.0,0.0,0.0,0.0,0.0,0.0,0.0,0.0,0.0,0.0,0.0,0.0,0.0,0.0,0.0,0.0,0.0,0.0,0.0,0.0,0.0,0.0,0.0,0.0,0.0,0.0,0.0,0.0,0.0,0.0,0.0,0.0,0.0,0.0,0.0,0.0,0.0,0.0,0.0,0.0,0.0,0.0,0.0,0.0,0.0,0.0,0.0,0.0,0.0,0.0,0.0,0.0,0.0,0.0,0.0,0.0,0.0,0.0,0.0,0.0,0.0,0.0,0.0,0.0,0.0,0.0,0.0,0.0,-0.012,-0.1404,-0.252,-0.3342,-0.3177,-0.3003,0.0,0.0,0.0,0.0,0.0,0.0,0.0,0.0,0.0,0.0,0.0,0.0,0.0,0.0,0.0,0.0,0.0,0.0,0.0,0.0,0.0,0.0,0.0,0.0,0.0,0.0,0.0,0.0,0.0,0.0,0.0,0.0,0.0,0.0,0.0,0.0,0.0,0.0,0.0,0.0,0.0,0.0,0.0,0.0,0.0,0.0,0.0,0.0,0.0,0.0,0.0,0.0,0.0,0.0,0.0,0.0,0.0,0.0,0.0,0.0,0.0,0.0,0.0,0.0,0.0,0.0,0.0,0.0,0.0,0.0,0.0,0.0,0.0,0.0,0.0,0.0,0.0,0.0,0.0,0.0,0.0,0.0,0.0,0.0,0.0,0.0,0.0,0.0,0.0,0.0,0.0,0.0,0.0,0.0,0.0,0.0,0.0,0.0,0.0,0.0,0.0,0.0,0.0,0.0,0.0,0.0,0.0,0.0,0.0,0.003,0.0,-0.171,-0.2856,-0.2649,-0.2635,0.0,0.0,0.0,0.0,0.0,0.0,0.0,0.0,0.0,0.0,0.0,0.0,0.0,0.0,0.0,0.0,0.0,0.0,0.0,0.0,0.0,0.0,0.0,0.0,0.0,0.0,0.0,0.0,0.0,0.0,0.0,0.0,0.0,0.0,0.0,0.0,0.0,0.0,0.0,0.0,0.0,0.0,0.0,0.0,0.0,0.0,0.0,0.0,0.0,0.0,0.0,0.0,0.0,0.0,0.0,0.0,0.0,0.0,0.0,0.0,0.0,0.0,0.0,0.0,0.0,0.0,0.0,0.0,0.0,0.0,0.0,0.0,0.0,0.0,0.0,0.0,0.0,0.0,0.0,0.0,0.0,0.0,0.0,0.0,0.0,0.0,0.0,0.0,0.0,0.0,0.0,0.0,0.0,0.0,0.0,0.0,0.0,0.0,0.0,0.0,0.0,0.0,0.0,0.0,0.0,0.0,0.0,0.0,0.0627,0.01,0.0564,-0.0071,-0.1649,-0.163,-0.1853,0.0,0.0,0.0,0.0,0.0,0.0,0.0,0.0,0.0,0.0,0.0,0.0,0.0,0.0,0.0,0.0,0.0,0.0,0.0,0.0,0.0,0.0,0.0,0.0,0.0,0.0,0.0,0.0,0.0,0.0,0.0,0.0,0.0,0.0,0.0,0.0,0.0,0.0,0.0,0.0,0.0,0.0,0.0,0.0,0.0,0.0,0.0,0.0,0.0,0.0,0.0,0.0,0.0,0.0,0.0,0.0,0.0,0.0,0.0,0.0,0.0,0.0,0.0,0.0,0.0,0.0,0.0,0.0,0.0,0.0,0.0,0.0,0.0,0.0,0.0,0.0,0.0,0.0,0.0,0.0,0.0,0.0,0.0,0.0,0.0,0.0,0.0,0.0,0.0,0.0,0.0,0.0,0.0,0.0,0.0,0.0,0.0,0.0,0.0,0.0,0.0,0.0,0.0,0.0,0.0,0.0,0.0,0.0,0.0,-0.0696,0.023,-0.0273,-0.2403,-0.1799,-0.1796,0.0,0.0,0.0,0.0,0.0,0.0,0.0,0.0,0.0,0.0,0.0,0.0,0.0,0.0,0.0,0.0,0.0,0.0,0.0,0.0,0.0,0.0,0.0,0.0,0.0,0.0,0.0,0.0,0.0,0.0,0.0,0.0,0.0,0.0,0.0,0.0,0.0,0.0,0.0,0.0,0.0,0.0,0.0,0.0,0.0,0.0,0.0,0.0,0.0,0.0,0.0,0.0,0.0,0.0,0.0,0.0,0.0,0.0,0.0,0.0,0.0,0.0,0.0,0.0,0.0,0.0,0.0,0.0,0.0,0.0,0.0,0.0,0.0,0.0,0.0,0.0,0.0,0.0,0.0,0.0,0.0,0.0,0.0,0.0,0.0,0.0,0.0,0.0,0.0,0.0,0.0,0.0,0.0,0.0,0.0,0.0,0.0,0.0,0.0,0.0,0.0,0.0,0.0,0.0,0.0,0.0,0.0,0.0,0.0,-0.0401,0.0727,0.043,-0.1584,-0.1142,-0.1372,-0.2373,0.0,0.0,0.0,0.0,0.0,0.0,0.0,0.0,0.0,0.0,0.0,0.0,0.0,0.0,0.0,0.0,0.0,0.0,0.0,0.0,0.0,0.0,0.0,0.0,0.0,0.0,0.0,0.0,0.0,0.0,0.0,0.0,0.0,0.0,0.0,0.0,0.0,0.0,0.0,0.0,0.0,0.0,0.0,0.0,0.0,0.0,0.0,0.0,0.0,0.0,0.0,0.0,0.0,0.0,0.0,0.0,0.0,0.0,0.0,0.0,0.0,0.0,0.0,0.0,0.0,0.0,0.0,0.0,0.0,0.0,0.0,0.0,0.0,0.0,0.0,0.0,0.0,0.0,0.0,0.0,0.0,0.0,0.0,0.0,0.0,0.0,0.0,0.0,0.0,0.0,0.0,0.0,0.0,0.0,0.0,0.0,0.0,0.0,0.0,0.0,0.0,0.0,0.0,0.0,0.0,0.0,0.0,0.0,0.0722,0.1953,0.192,0.0497,0.0151,-0.0705,0.0,0.0,0.0,0.0,0.0,0.0,0.0,0.0,0.0,0.0,0.0,0.0,0.0,0.0,0.0,0.0,0.0,0.0,0.0,0.0,0.0,0.0,0.0,0.0,0.0,0.0,0.0,0.0,0.0,0.0,0.0,0.0,0.0,0.0,0.0,0.0,0.0,0.0,0.0,0.0,0.0,0.0,0.0,0.0,0.0,0.0,0.0,0.0,0.0,0.0,0.0,0.0,0.0,0.0,0.0,0.0,0.0,0.0,0.0,0.0,0.0,0.0,0.0,0.0,0.0,0.0,0.0,0.0,0.0,0.0,0.0,0.0,0.0,0.0,0.0,0.0,0.0,0.0,0.0,0.0,0.0,0.0,0.0,0.0,0.0,0.0,0.0,0.0,0.0,0.0,0.0,0.0,0.0,0.0,0.0,0.0,0.0,0.0,0.0,0.0,0.0,0.0,0.0,0.0,0.0,0.0,0.0,0.0,0.0,0.1963,0.2525,0.2045,0.0471,0.0158,-0.0408,0.0,0.0,0.0,0.0,0.0,0.0,0.0,0.0,0.0,0.0,0.0,0.0,0.0,0.0,0.0,0.0,0.0,0.0,0.0,0.0,0.0,0.0,0.0,0.0,0.0,0.0,0.0,0.0,0.0,0.0,0.0,0.0,0.0,0.0,0.0,0.0,0.0,0.0,0.0,0.0,0.0,0.0,0.0,0.0,0.0,0.0,0.0,0.0,0.0,0.0,0.0,0.0,0.0,0.0,0.0,0.0,0.0,0.0,0.0,0.0,0.0,0.0,0.0,0.0,0.0,0.0,0.0,0.0,0.0,0.0,0.0,0.0,0.0,0.0,0.0,0.0,0.0,0.0,0.0,0.0,0.0,0.0,0.0,0.0,0.0,0.0,0.0,0.0,0.0,0.0,0.0,0.0,0.0,0.0,0.0,0.0,0.0,0.0,0.0,0.0,0.0,0.0,0.0,0.0,0.0,0.0,0.0,0.0,0.2142,0.2523,0.2815,0.2531,0.1562,0.0662,-0.0191,0.0,0.0,0.0,0.0,0.0,0.0,0.0,0.0,0.0,0.0,0.0,0.0,0.0,0.0,0.0,0.0,0.0,0.0,0.0,0.0,0.0,0.0,0.0,0.0,0.0,0.0,0.0,0.0,0.0,0.0,0.0,0.0,0.0,0.0,0.0,0.0,0.0,0.0,0.0,0.0,0.0,0.0,0.0,0.0,0.0,0.0,0.0,0.0,0.0,0.0,0.0,0.0,0.0,0.0,0.0,0.0,0.0,0.0,0.0,0.0,0.0,0.0,0.0,0.0,0.0,0.0,0.0,0.0,0.0,0.0,0.0,0.0,0.0,0.0,0.0,0.0,0.0,0.0,0.0,0.0,0.0,0.0,0.0,0.0,0.0,0.0,0.0,0.0,0.0,0.0,0.0,0.0,0.0,0.0,0.0,0.0,0.0,0.0,0.0,0.0,0.0,0.0,0.0,0.0,0.0,0.0,0.0,0.0,0.2321,0.2661,0.2922,0.3084,0.2976,0.1374,0.0078,0.0,0.0,0.0,0.0,0.0,0.0,0.0,0.0,0.0,0.0,0.0,0.0,0.0,0.0,0.0,0.0,0.0,0.0,0.0,0.0,0.0,0.0,0.0,0.0,0.0,0.0,0.0,0.0,0.0,0.0,0.0,0.0,0.0,0.0,0.0,0.0,0.0,0.0,0.0,0.0,0.0,0.0,0.0,0.0,0.0,0.0,0.0,0.0,0.0,0.0,0.0,0.0,0.0,0.0,0.0,0.0,0.0,0.0,0.0,0.0,0.0,0.0,0.0,0.0,0.0,0.0,0.0,0.0,0.0,0.0,0.0,0.0,0.0,0.0,0.0,0.0,0.0,0.0,0.0,0.0,0.0,0.0,0.0,0.0,0.0,0.0,0.0,0.0,0.0,0.0,0.0,0.0,0.0,0.0,0.0,0.0,0.0,0.0,0.0,0.0,0.0,0.0,0.0,0.0,0.0,0.0,0.0,0.0,0.2418,0.2462,0.2811,0.291,0.2638,0.1184,0.0201,0.0,0.0,0.0,0.0,0.0,0.0,0.0,0.0,0.0,0.0,0.0,0.0,0.0,0.0,0.0,0.0,0.0,0.0,0.0,0.0,0.0,0.0,0.0,0.0,0.0,0.0,0.0,0.0,0.0,0.0,0.0,0.0,0.0,0.0,0.0,0.0,0.0,0.0,0.0,0.0,0.0,0.0,0.0,0.0,0.0,0.0,0.0,0.0,0.5882,0.0,0.0,0.0,0.0,0.0,0.0,0.0,0.0,0.0,0.0,0.0,0.0,0.0,0.0,0.0,0.0,0.0,0.0,0.0,0.0,0.0,0.0,0.0,0.0,0.0,0.0,0.0,0.0,0.0,0.0,0.0,0.0,0.0,0.0,0.0,0.0,0.0,0.0,0.0,0.0,0.0,0.0,0.0,0.0,0.0,0.0,0.0,0.0,0.0,0.0,0.0,0.0,0.0,0.0,0.0,0.0,0.0,0.0,0.0,0.231,0.2426,0.257,0.2586,0.2465,0.1488,0.0571,0.0,0.0,0.0,0.0,0.0,0.0,0.0,0.0,0.0,0.0,0.0,0.0,0.0,0.0,0.0,0.0,0.0,0.0,0.0,0.0,0.0,0.0,0.0,0.0,0.0,0.0,0.0,0.0,0.0,0.0,0.0,0.0,0.0,0.0,0.0,0.0,0.0,0.0,0.0,0.0,0.0,0.0,0.0,0.0,0.0,0.0,0.0,0.0,0.0,0.0,0.0,0.0,0.0,0.0,0.0,0.0,0.0,0.0,0.0,0.0,0.0,0.0,0.0,0.0,0.0,0.0,0.0,0.0,0.0,0.0,0.0,0.0,0.0,0.0,0.0,0.0,0.0,0.0,0.0,0.0,0.0,0.0,0.0,0.0,0.0,0.0,0.0,0.0,0.0,0.0,0.0,0.0,0.0,0.0,0.0,0.0,0.0,0.0,0.0,0.0,0.0,0.0,0.0,0.0,0.0,0.0,0.0,0.2032,0.2158,0.2394,0.2251,0.2289,0.2378,0.1807,0.0905,-0.0196,0.0,0.0,0.0,0.0,0.0,0.0,0.0,0.0,0.0,0.0,0.0,0.0,0.0,0.0,0.0,0.0,0.0,0.0,0.0,0.0,0.0,0.0,0.0,0.0,0.0,0.0,0.0,0.0,0.0,0.0,0.0,0.0,0.0,0.0,0.0,0.0,0.0,0.0,0.5934,0.5922,0.0,0.0,0.0,0.0,0.0,0.0,0.0,0.0,0.5686,0.0,0.0,0.0,0.0,0.0,0.0,0.0,0.0,0.0,0.0,0.0,0.0,0.0,0.0,0.0,0.0,0.0,0.0,0.0,0.0,0.0,0.0,0.0,0.0,0.0,0.0,0.0,0.0,0.0,0.0,0.0,0.0,0.0,0.0,0.0,0.0,0.0,0.0,0.0,0.0,0.0,0.0,0.0,0.0,0.0,0.0,0.0,0.0,0.0,0.0,0.0,0.0,0.0,0.0,0.0,0.0,0.2147,0.2042,0.2004,0.1978,0.2148,0.2109,0.1883,0.1549,0.0781,-0.0392,0.0,0.0,0.0,0.0,0.0,0.0,0.0,0.0,0.0,0.0,0.0,0.0,0.0,0.0,0.0,0.0,0.0,0.0,0.0,0.0,0.0,0.0,0.0,0.0,0.0,0.0,0.0,0.0,0.0,0.0,0.0,0.0,0.0,0.0,0.0,0.0,0.0,0.0,0.0,0.7324,0.6671,0.0,0.0,0.0,0.0,0.0,0.0,0.0,0.0,0.5439,0.0,0.0,0.0,0.0,0.0,0.0,0.0,0.0,0.0,0.0,0.0,0.0,0.0,0.0,0.0,0.0,0.0,0.0,0.0,0.0,0.0,0.0,0.0,0.0,0.0,0.0,0.0,0.0,0.0,0.0,0.0,0.0,0.0,0.0,0.0,0.0,0.0,0.0,0.0,0.0,0.0,0.0,0.0,0.0,0.0,0.0,0.0,0.0,0.0,0.0,0.0,0.0,0.0,0.0,0.0,0.2,0.2067,0.2019,0.1902,0.1833,0.1795,0.1792,0.1701,0.0934,0.0,0.0,0.0,0.0,0.0,0.0,0.0,0.0,0.0,0.0,0.0,0.0,0.0,0.0,0.0,0.0,0.0,0.0,0.0,0.0,0.0,0.0,0.0,0.0,0.0,0.0,0.0,0.0,0.0,0.0,0.0,0.0,0.0,0.0,0.0,0.0,0.0,0.0,0.0,0.0,0.8208,0.7824,0.8181,0.0,0.0,0.0,0.0,0.0,0.0,0.5812,0.5918,0.0,0.0,0.0,0.0,0.0,0.0,0.0,0.0,0.0,0.0,0.0,0.0,0.0,0.0,0.0,0.0,0.0,0.0,0.0,0.0,0.0,0.0,0.0,0.0,0.0,0.0,0.0,0.0,0.0,0.0,0.0,0.0,0.0,0.0,0.0,0.0,0.0,0.0,0.0,0.0,0.0,0.0,0.0,0.0,0.0,0.0,0.0,0.0,0.0,0.0,0.0,0.0,0.0,0.0,0.0,0.173,0.1925,0.1964,0.1843,0.1555,0.148,0.1703,0.1845,0.1117,0.0,0.0,0.0,0.0,0.0,0.0,0.0,0.0,0.0,0.0,0.0,0.0,0.0,0.0,0.0,0.0,0.0,0.0,0.0,0.0,0.0,0.0,0.0,0.0,0.0,0.0,0.0,0.0,0.0,0.0,0.0,0.0,0.0,0.0,0.0,0.0,0.0,0.0,0.0,0.0,0.0,0.8977,0.9013,0.7293,0.0,0.0,0.0,0.0,0.5507,0.6235,0.0,0.0,0.0,0.0,0.0,0.0,0.0,0.0,0.0,0.0,0.0,0.0,0.0,0.0,0.0,0.0,0.0,0.0,0.0,0.0,0.0,0.0,0.0,0.0,0.0,0.0,0.0,0.0,0.0,0.0,0.0,0.0,0.0,0.0,0.0,0.0,0.0,0.0,0.0,0.0,0.0,0.0,0.0,0.0,0.0,0.0,0.0,0.0,0.0,0.0,0.0,0.0,0.0,0.0,0.0,0.0,0.1433,0.1466,0.1497,0.1529,0.1453,0.1391,0.1434,0.1695,0.0974,0.0,0.0,0.0,0.0,0.0,0.0,0.0,0.0,0.0,0.0,0.0,0.0,0.0,0.0,0.0,0.0,0.0,0.0,0.0,0.0,0.0,0.0,0.0,0.0,0.0,0.0,0.0,0.0,0.0,0.0,0.0,0.0,0.0,0.0,0.0,0.0,0.0,0.0,0.0,0.0,0.0,0.9727,0.8965,0.7659,0.6733,0.0,0.0,0.6403,0.7237,0.7244,0.0,0.0,0.0,0.0,0.0,0.0,0.0,0.0,0.0,0.0,0.0,0.0,0.0,0.0,0.0,0.0,0.0,0.0,0.0,0.0,0.0,0.0,0.0,0.0,0.0,0.0,0.0,0.0,0.0,0.0,0.0,0.0,0.0,0.0,0.0,0.0,0.0,0.0,0.0,0.0,0.0,0.0,0.0,0.0,0.0,0.0,0.0,0.0,0.0,0.0,0.0,0.0,0.0,0.0,0.0,0.1406,0.1363,0.1563,0.1605,0.1479,0.1451,0.148,0.1615,0.171,0.1186,0.0,0.0,0.0,0.0,0.0,0.0,0.0,0.0,0.0,0.0,0.0,0.0,0.0,0.0,0.0,0.0,0.0,0.0,0.0,0.0,0.0,0.0,0.0,0.0,0.0,0.0,0.0,0.0,0.0,0.0,0.0,0.0,0.0,0.0,0.0,0.0,0.0,0.0,0.0,0.0,0.0,0.0,0.9991,0.8453,0.0,0.0,0.0,0.7,0.7252,0.0,0.0,0.0,0.0,0.0,0.0,0.0,0.0,0.0,0.0,0.0,0.0,0.0,0.0,0.0,0.0,0.0,0.0,0.0,0.0,0.0,0.0,0.0,0.0,0.0,0.0,0.0,0.0,0.0,0.0,0.0,0.0,0.0,0.0,0.0,0.0,0.0,0.0,0.0,0.0,0.0,0.0,0.0,0.0,0.0,0.0,0.0,0.0,0.0,0.0,0.0,0.0,0.0,0.0,0.0,0.0,0.0,0.1294,0.1611,0.1708,0.1469,0.1493,0.1615,0.1792,0.1794,0.0,0.0,0.0,0.0,0.0,0.0,0.0,0.0,0.0,0.0,0.0,0.0,0.0,0.0,0.0,0.0,0.0,0.0,0.0,0.0,0.0,0.0,0.0,0.0,0.0,0.0,0.0,0.1887,0.0,0.0,0.0,0.0,0.0,0.0,0.0,0.0,0.0,0.0,0.0,0.0,0.0,0.0,1.045,1.0794,0.9219,0.8499,0.0,0.0,0.8003,0.8021,0.8623,0.8424,0.0,0.0,0.0,0.0,0.0,0.0,0.0,0.0,0.0,0.0,0.0,0.0,0.0,0.0,0.0,0.0,0.0,0.0,0.0,0.0,0.0,0.0,0.0,0.0,0.0,0.0,0.0,0.0,0.0,0.0,0.0,0.0,0.0,0.0,0.0,0.0,0.0,0.0,0.0,0.0,0.0,0.0,0.0,0.0,0.0,0.0,0.0,0.0,0.0,0.0,0.0,0.0,0.0,0.0,0.1243,0.1307,0.1466,0.1513,0.144,0.1661,0.1795,0.1792,0.2058,0.1647,0.0,0.0,0.0,0.0,0.0,0.0,0.0,0.0,0.0,0.0,0.0,0.0,0.0,0.0,0.0,0.0,0.0,0.0,0.0,0.0,0.0,0.0,0.0,0.0,0.0,0.0,0.0,0.0,0.0,0.0,0.0,0.0,0.0,0.0,0.0,0.0,0.0,0.0,0.0,0.0,0.0,1.0515,1.0589,0.9826,0.9859,0.0,1.0119,0.9445,1.0724,1.0597,0.9579,0.7197,0.0,0.0,0.0,0.0,0.0,0.0,0.0,0.0,0.0,0.0,0.0,0.0,0.0,0.0,0.0,0.0,0.0,0.0,0.0,0.0,0.0,0.0,0.0,0.0,0.0,0.0,0.0,0.0,0.0,0.0,0.0,0.0,0.0,0.0,0.0,0.0,0.0,0.0,0.0,0.0,0.0,0.0,0.0,0.0,0.0,0.0,0.0,0.0,0.0,0.0,0.0,0.0,0.0,0.1213,0.1315,0.1392,0.1492,0.1616,0.175,0.1918,0.2156,0.2175,0.1953,0.0,0.0,0.0,0.0,0.0,0.0,0.0,0.0,0.0,0.0,0.0,0.0,0.0,0.0,0.0,0.0,0.0,0.0,0.0,0.0,0.0,0.0,0.0,0.0,0.0,0.0,0.0,0.0,0.444,0.5293,0.5978,0.0,0.0,0.0,0.0,0.0,0.0,0.0,0.0,0.0,0.0,1.0671,1.1116,1.0399,0.0,0.0,1.0733,1.0167,1.0925,1.0146,0.8907,0.7455,0.5914,0.0,0.0,0.0,0.0,0.0,0.0,0.0,0.0,0.0,0.0,0.0,0.0,0.0,0.0,0.0,0.0,0.0,0.0,0.0,0.0,0.0,0.0,0.0,0.0,0.0,0.0,0.0,0.0,0.0,0.0,0.0,0.0,0.0,0.0,0.0,0.0,0.0,0.0,0.0,0.0,0.0,0.0,0.0,0.0,0.0,0.0,0.0,0.0,0.0,0.0,0.0,0.0,0.1612,0.1429,0.1853,0.2017,0.193,0.1961,0.2118,0.2389,0.2331,0.2232,0.0,0.0,0.0,0.0,0.0,0.0,0.0,0.0,0.0,0.0,0.0,0.0,0.0,0.0,0.0,0.0,0.0,0.0,0.0,0.0,0.0,0.0,0.0,0.0,0.0,0.0,0.0,0.0,0.543,0.6256,0.6731,0.0,0.0,0.0,0.0,0.0,0.0,0.0,0.0,0.0,0.0,1.1027,1.1337,1.0808,1.0651,1.1425,1.0764,1.0188,1.0228,0.9751,0.8886,0.7585,0.0,0.0,0.0,0.0,0.0,0.0,0.0,0.0,0.0,0.0,0.0,0.0,0.0,0.0,0.0,0.0,0.0,0.0,0.0,0.0,0.0,0.0,0.0,0.0,0.0,0.0,0.0,0.1601,0.0,0.0,0.129,0.0,0.0,0.0,0.0,0.0,0.0,0.0,0.0,0.0,0.0,0.0,0.0,0.0,0.0,0.0,0.0,0.0,0.0,0.0,0.0,0.0,0.0,0.2453,0.1748,0.2904,0.3089,0.2242,0.233,0.2393,0.243,0.254,0.2464,0.2193,0.0,0.0,0.0,0.0,0.0,0.0,0.0,0.0,0.0,0.0,0.0,0.0,0.0,0.0,0.0,0.0,0.0,0.0,0.0,0.0,0.0,0.0,0.0,0.0,0.0,0.0,0.4883,0.6004,0.6745,0.0,0.0,0.0,0.0,0.0,0.0,0.0,0.0,0.0,0.9889,1.0858,1.1392,1.122,1.1016,1.0892,1.095,1.0218,0.9489,0.9013,0.9744,0.9732,0.0,0.0,0.0,0.0,0.0,0.0,0.0,0.0,0.0,0.0,0.0,0.0,0.0,0.0,0.0,0.0,0.0,0.0,0.0,0.0,0.0,0.0,0.0,0.0,0.0,0.0,0.0,0.2424,0.221,0.0,0.0,0.0,0.0,0.0,0.0,0.0,0.0,0.0,0.0,0.0,0.6147,0.6709,0.0,0.0,0.0,0.0,0.0,0.0,0.0,0.0,0.0,0.0,0.0,0.0,0.2838,0.2679,0.3251,0.3491,0.3312,0.2723,0.246,0.2596,0.2602,0.2448,0.2147,0.0,0.0,0.0,0.0,0.0,0.0,0.0,0.0,0.0,0.0,0.0,0.0,0.0,0.0,0.0,0.0,0.0,0.0,0.0,0.0,0.0,0.0,0.0,0.0,0.0,0.5323,0.0,0.0,0.0,0.0,0.0,0.0,0.0,0.0,0.0,0.0,0.9169,0.9849,1.0352,1.0668,1.0989,1.1175,1.1149,1.1245,0.0,0.0,0.0,0.0,0.0,0.0,0.0,0.0,0.0,0.0,0.0,0.0,0.0,0.0,1.0099,0.809,0.7865,0.806,0.8063,0.0,0.0,0.0,0.0,0.0,0.0,0.0,0.0,0.0,0.0,0.0,0.0,0.0,0.0,0.3693,0.352,0.3357,0.0,0.0,0.0,0.0,0.0,0.0,0.0,0.0,0.6359,0.7107,0.6933,0.7322,0.7366,0.7102,0.7007,0.6455,0.0,0.0,0.0,0.0,0.0,0.0,0.0,0.0,0.3624,0.3732,0.4413,0.4543,0.3982,0.3339,0.2889,0.2662,0.2601,0.2476,0.225,0.2066,0.1907,0.0,0.0,0.0,0.0,0.0,0.0,0.0,0.0,0.0,0.0,0.0,0.0,0.0,0.0,0.0,0.0,0.0,0.0,0.0,0.0,0.0,0.0,0.0,0.6581,0.0,0.0,0.0,0.0,0.0,0.0,0.0,0.0,0.0,0.9026,0.9732,1.0436,1.0947,1.1041,1.098,1.0935,0.0,0.0,0.0,0.0,0.0,0.0,0.0,0.9227,0.906,0.8642,0.8574,0.9572,1.0854,1.15,1.0887,0.0,0.0,0.9764,0.9453,0.9547,0.9494,0.9493,0.9197,0.7909,0.7975,0.7933,0.0,0.0,0.0,0.0,0.3807,0.0,0.0,0.0,0.5199,0.5246,0.0,0.4967,0.0,0.0,0.0,0.0,0.3035,0.4382,0.0,0.0,0.7641,0.8097,0.7547,0.7698,0.7782,0.7827,0.7786,0.757,0.7179,0.6126,0.0,0.0,0.0,0.0,0.0,0.0,0.4828,0.4917,0.6273,0.6145,0.4381,0.4202,0.3652,0.2681,0.2542,0.251,0.2504,0.225,0.2119,0.2113,0.1619,0.0,0.0,0.0,0.0,0.0,0.0,0.0,0.0,0.0,0.0,0.0,0.0,0.0,0.0,0.0,0.0,0.0,0.0,0.0,0.0,0.6552,0.0,0.0,0.0,0.0,0.0,0.0,0.0,0.0,0.0,1.0145,0.9781,1.0268,1.0914,1.1639,0.0,0.0,0.0,0.0,1.0523,0.9549,0.9513,0.9377,0.8486,0.9898,1.0926,1.0275,0.0,0.0,1.2051,1.2209,1.2196,1.1527,1.2137,1.271,1.2419,1.1648,1.1105,1.0977,1.0888,1.0216,0.8734,0.8936,0.8951,0.632,0.0,0.0,0.0,0.0,0.5317,0.5809,0.6709,0.6585,0.6412,0.6187,0.6069,0.0,0.0,0.0,0.0,0.0,0.0,0.5671,0.6187,0.7283,0.7756,0.7644,0.7847,0.7891,0.7806,0.7809,0.7797,0.775,0.7533,0.6452,0.4485,0.0,0.0,0.0,0.0,0.5794,0.5984,0.6716,0.6802,0.6141,0.542,0.4522,0.3482,0.2832,0.251,0.251,0.2438,0.2308,0.2083,0.1951,0.0,0.0,0.0,0.0,0.0,0.0,0.0,0.0,0.0,0.0,0.0,0.0,0.0,0.0,0.0,0.0,0.0,0.0,0.0,0.6611,0.7277,0.7633,0.0,0.0,0.0,0.0,0.0,0.0,0.0,0.0,0.0,1.032,1.069,1.0972,0.0,0.0,1.0273,0.9732,0.9928,1.0161,1.0268,1.0489,0.0,1.1059,1.0976,1.1119,1.1661,1.2372,1.2796,1.2566,1.2758,1.2829,1.2598,1.2824,1.2956,1.289,1.2613,1.2261,1.2059,1.1972,1.1608,1.0526,1.0,0.9478,0.8115,0.7412,0.6467,0.6257,0.6604,0.6607,0.7139,0.8065,0.796,0.7819,0.7571,0.7342,0.6544,0.5331,0.4638,0.0,0.0,0.0,0.6337,0.6917,0.7417,0.7657,0.7601,0.7696,0.7771,0.7726,0.7784,0.7889,0.7988,0.8035,0.7379,0.6168,0.0,0.4808,0.4646,0.5612,0.6383,0.6876,0.7338,0.7327,0.6955,0.5913,0.5052,0.4402,0.3499,0.3171,0.3485,0.3173,0.3091,0.3229,0.3161,0.3143,0.0,0.0,0.0,0.0,0.0,0.0,0.0,0.0,0.0,0.0,0.0,0.3739,0.3578,0.0,0.0,0.0,0.5758,0.6665,0.7355,0.776,0.0,0.0,0.0,0.0,0.0,0.0,0.0,0.8901,0.9984,1.0631,1.0436,1.0893,1.1253,1.1249,1.0805,1.0337,0.991,0.0,1.0266,1.0417,1.0709,1.1131,1.1705,1.1514,1.1612,1.251,1.2791,1.2937,1.2946,1.3046,1.3122,1.3065,1.3065,1.3098,1.2961,1.2904,1.2734,1.2597,1.2573,1.2215,1.1312,1.0684,1.0017,0.9583,0.9371,0.7237,0.6882,0.7652,0.7652,0.8318,0.9356,0.921,0.9132,0.9091,0.8593,0.7813,0.6738,0.5439,0.0,0.6636,0.671,0.7181,0.7872,0.7959,0.7727,0.7402,0.7353,0.7431,0.7587,0.7712,0.7862,0.7958,0.7879,0.7736,0.7597,0.6901,0.6295,0.5865,0.6138,0.6767,0.768,0.8021,0.7842,0.7126,0.6008,0.5425,0.5376,0.4437,0.4268,0.4927,0.4297,0.4219,0.4919,0.4752,0.4656,0.4662,0.0,0.0,0.0,0.0,0.0,0.0,0.0,0.0,0.0,0.0,0.0,0.0,0.0,0.0,0.0,0.7548,0.0,0.7854,0.815,0.0,0.0,0.0,0.9184,0.9636,0.9947,1.0027,0.9809,0.0,0.0,1.0382,1.0948,1.1625,1.2226,1.1751,1.1158,1.0661,1.0719,1.0656,1.0091,1.0403,1.0735,1.1169,1.1629,1.222,1.2904,1.3112,1.3079,1.307,1.2994,1.3013,1.2989,1.3017,1.2956,1.2776,1.279,1.2794,1.2724,1.2706,1.2418,1.1463,1.1071,1.0502,0.9286,0.9258,0.881,0.8811,0.9076,0.908,0.9154,0.9265,0.9176,0.8958,0.8574,0.8465,0.814,0.7677,0.7333,0.7372,0.7628,0.7564,0.757,0.7684,0.7571,0.7434,0.7156,0.7197,0.7275,0.7421,0.7458,0.7611,0.7855,0.7828,0.774,0.7607,0.7423,0.7121,0.6671,0.6879,0.7157,0.7381,0.7839,0.8033,0.794,0.6982,0.6376,0.6231,0.5388,0.4973,0.5007,0.4807,0.4807,0.5004,0.4947,0.5058,0.5408,0.3949,0.0,0.0,0.0,0.0,0.0,0.0,0.0,0.0,0.0,0.5635,0.5161,0.0,0.6988,0.0,0.7861,0.8471,0.856,0.8771,0.0,0.0,0.9181,0.938,0.961,0.995,1.0015,0.969,1.0356,1.0779,1.053,1.0993,1.1465,1.1742,1.1059,1.0399,0.9929,1.017,1.0339,1.0234,1.0607,1.1037,1.1324,1.1982,1.2588,1.3046,1.2998,1.2894,1.2899,1.2696,1.2587,1.2587,1.2587,1.2564,1.2531,1.2462,1.2521,1.2452,1.2398,1.2222,1.1898,1.1239,1.0497,0.8858,0.885,0.8941,0.8961,0.8985,0.9108,0.9095,0.8958,0.8938,0.8679,0.829,0.8259,0.8137,0.7988,0.7988,0.7955,0.7884,0.7851,0.7699,0.7495,0.7456,0.7288,0.7098,0.7095,0.7224,0.737,0.7373,0.7489,0.7712,0.778,0.7773,0.7699,0.7763,0.7573,0.7139,0.712,0.7147,0.7203,0.7743,0.8166,0.8406,0.7808,0.7143,0.6474,0.5961,0.5562,0.5263,0.5295,0.5295,0.5254,0.5254,0.5377,0.5623,0.4517,0.4221,0.0,0.0,0.0,0.0,0.0,0.0,0.0,0.0,0.0,0.0,0.0,0.7661,0.7592,0.8472,0.9015,0.895,0.9177,0.9445,0.9751,0.9855,1.0067,1.0436,1.0537,1.053,1.0283,1.0682,1.0886,1.0679,1.0969,1.1179,1.1227,1.0761,1.0427,1.0344,1.0387,1.0449,1.0461,1.0729,1.105,1.1445,1.2037,1.2557,1.2721,1.2691,1.2621,1.2621,1.2521,1.2382,1.2382,1.2382,1.2382,1.2382,1.2382,1.2382,1.2358,1.2222,1.2137,1.2203,1.175,1.1243,0.834,0.834,0.8365,0.8321,0.8193,0.8452,0.8552,0.8559,0.8481,0.8317,0.811,0.8017,0.7934,0.7934,0.7951,0.788,0.7787,0.7784,0.7634,0.7377,0.7395,0.7272,0.7098,0.7095,0.721,0.7385,0.7343,0.7431,0.76,0.7726,0.7787,0.7787,0.7919,0.7767,0.735,0.7068,0.6936,0.7116,0.7612,0.8072,0.8301,0.822,0.7579,0.6397,0.6305,0.6143,0.5777,0.5817,0.5853,0.58,0.5817,0.5833,0.5844,0.5431,0.5255,0.0,0.5153,0.0,0.0,0.0,0.0,0.0,0.0,0.0,0.0,0.821,0.8443,0.8467,0.9208,0.9579,0.9291,0.9567,0.9989,1.0554,1.0596,1.0828,1.1411,1.124,1.1017,1.1072,1.1017,1.0962,1.0735,1.0911,1.0962,1.0802,1.0726,1.0744,1.0945,1.0828,1.0664,1.0692,1.0747,1.0975,1.1476,1.2019,1.2356,1.2396,1.2405,1.2382,1.2396,1.2391,1.2382,1.2382,1.2382,1.2382,1.2382,1.2382,1.2382,1.2382,1.225,1.2184,1.2274,1.2264,1.2085,0.8063,0.8099,0.8114,0.8132,0.8094,0.7811,0.7726,0.7726,0.7714,0.7664,0.7557,0.7617,0.7682,0.7692,0.7804,0.7777,0.7641,0.7638,0.7546,0.7366,0.7241,0.717,0.7095,0.7095,0.7112,0.7136,0.7183,0.7326,0.7597,0.7624,0.7641,0.7641,0.7672,0.7516,0.7149,0.0,0.0,0.0,0.7309,0.7232,0.6867,0.7326,0.7004,0.5905,0.6609,0.0,0.6554,0.6766,0.6847,0.675,0.6835,0.0,0.0,0.0,0.0,0.0,0.0,0.0,0.0,0.0,0.0,0.0,0.7724,0.7841,0.8032,0.8733,0.9267,0.9373,0.9815,1.0095,1.0176,1.0367,1.0517,1.0633,1.0699,1.0728,1.0848,1.0802,1.0802,1.0802,1.0743,1.0747,1.0747,1.0747,1.0747,1.0692,1.0692,1.0692,1.0802,1.0747,1.0692,1.0747,1.0857,1.1131,1.1568,1.1841,1.2169,1.2327,1.2382,1.2382,1.2382,1.2382,1.2382,1.2382,1.2382,1.2382,1.2382,1.2382,1.2382,1.2382,1.2403,1.2288,1.2165,1.2063,1.1883,0.7717,0.771,0.7728,0.7738,0.0,0.7433,0.7281,0.7225,0.7375,0.7479,0.7489,0.7563,0.7597,0.7597,0.7597,0.7512,0.7324,0.7299,0.7224,0.7149,0.7071,0.7031,0.7095,0.7095,0.7095,0.7095,0.7095,0.7176,0.7331,0.7522,0.7597,0.7604,0.7743,0.7699,0.7472,0.7255,0.7165,0.7193,0.7268,0.7261,0.7154,0.7476,0.707,0.5956,0.6748,0.0,0.0,0.0,0.0,0.0,0.0,0.0,0.0,0.0,0.0,0.7051,0.6699,0.6755,0.7397,0.7625,0.8036,0.8734,0.8888,0.8904,0.8862,0.9441,0.9864,1.0128,1.0318,1.0461,1.0554,1.0643,1.0692,1.0692,1.0692,1.0692,1.0692,1.0692,1.0692,1.0692,1.0692,1.0692,1.0692,1.0692,1.0692,1.0692,1.0692,1.0692,1.0692,1.0692,1.0692,1.0747,1.0911,1.1131,1.1345,1.1732,1.2001,1.2164,1.2327,1.2382,1.2382,1.2382,1.2382,1.2382,1.2382,1.2382,1.2382,1.2382,1.2382,1.2382,1.2382,1.2358,1.225,1.2147,1.2124,0.7411,0.7411,0.7456,0.7456,0.74,0.7248,0.7058,0.6937,0.72,0.0,0.0,0.7506,0.7516,0.7512,0.7414,0.7288,0.7092,0.7051,0.6947,0.6923,0.6923,0.6984,0.7092,0.7095,0.7095,0.7095,0.7095,0.7109,0.7146,0.7438,0.7573,0.7624,0.782,0.7887,0.7801,0.7543,0.741,0.7317,0.7254,0.7343,0.7536,0.765,0.7146,0.5942,0.6774,0.684,0.6028,0.6743,0.6937,0.6475,0.6461,0.6489,0.6514,0.6514,0.6918,0.785,0.8093,0.8402,0.8836,0.9068,0.9315,0.9558,0.9758,0.9795,0.9677,1.0002,1.0331,1.0623,1.0672,1.0692,1.0692,1.0692,1.0692,1.0692,1.0692,1.0692,1.0692,1.0692,1.0692,1.0692,1.0692,1.0692,1.0692,1.0692,1.0692,1.0692,1.0692,1.0692,1.0692,1.0692,1.0692,1.0747,1.0911,1.1131,1.1181,1.1564,1.1891,1.1946,1.2164,1.2327,1.2327,1.2382,1.2382,1.2382,1.2382,1.2382,1.2382,1.2382,1.2382,1.2382,1.2382,1.2382,1.2382,1.2382,1.2363,0.7567,0.7567,0.7567,0.7567,0.7556,0.7404,0.7255,0.7061,0.7027,0.7004,0.6987,0.7105,0.7159,0.7166,0.7319,0.7285,0.7105,0.7258,0.7238,0.7068,0.7065,0.7075,0.7095,0.7095,0.7095,0.7095,0.7095,0.721,0.7333,0.7383,0.7468,0.7604,0.7763,0.7831,0.7801,0.7648,0.7528,0.7354,0.7098,0.6697,0.6207,0.676,0.6574,0.5699,0.6533,0.6957,0.6764,0.7136,0.7336,0.73,0.7477,0.7625,0.7723,0.7731,0.7964,0.8434,0.8763,0.8982,0.906,0.9316,0.9526,0.9571,0.9648,0.9713,0.9847,1.0184,1.0366,1.0423,1.0607,1.0692,1.0692,1.0692,1.0692,1.0692,1.0692,1.0692,1.0692,1.0692,1.0692,1.0692,1.0692,1.0692,1.0692,1.0692,1.0692,1.0692,1.0692,1.0692,1.0692,1.0692,1.0692,1.0747,1.0911,1.1072,1.1126,1.1404,1.1623,1.1618,1.1896,1.211,1.211,1.2273,1.2382,1.2382,1.2382,1.2382,1.2382,1.2382,1.2382,1.2382,1.2382,1.2382,1.2382,1.2377,1.2372,0.7716,0.7716,0.7712,0.776,0.7773,0.7594,0.7407,0.7255,0.7061,0.6997,0.7004,0.7068,0.7095,0.7095,0.7132,0.7092,0.6984,0.7014,0.7017,0.698,0.6984,0.7024,0.7092,0.7095,0.7095,0.7095,0.7095,0.7132,0.7248,0.7329,0.7407,0.7482,0.7624,0.7699,0.7692,0.7631,0.7563,0.7492,0.7197,0.6895,0.6719,0.7025,0.6996,0.6646,0.7094,0.7344,0.7328,0.7478,0.7654,0.7862,0.7979,0.81,0.8308,0.8312,0.843,0.869,0.895,0.9137,0.9234,0.9482,0.9624,0.9624,0.9624,0.9661,0.9742,1.0079,1.0327,1.0375,1.059,1.0692,1.0692,1.0692,1.0692,1.0692,1.0692,1.0692,1.0692,1.0692,1.0692,1.0692,1.0692,1.0692,1.0692,1.0692,1.0692,1.0692,1.0692,1.0692,1.0692,1.0692,1.0692,1.0747,1.0798,1.0857,1.0911,1.1131,1.1295,1.1345,1.1728,1.1946,1.2001,1.2223,1.2382,1.2382,1.2382,1.2382,1.2382,1.2382,1.2382,1.2382,1.2382,1.2382,1.2377,1.2307,1.2264,0.7862,0.7862,0.7813,0.7864,0.7967,0.7743,0.7563,0.7414,0.7295,0.7196,0.7193,0.7129,0.7095,0.7085,0.698,0.6976,0.6916,0.6854,0.6868,0.6927,0.6933,0.7054,0.7136,0.7149,0.719,0.7193,0.7146,0.7129,0.7115,0.7261,0.7339,0.7426,0.7489,0.7563,0.7597,0.7563,0.7546,0.7533,0.7316,0.7285,0.7461,0.7472,0.7529,0.7634,0.7641,0.7667,0.7749,0.7699,0.7851,0.8222,0.822,0.8308,0.8617,0.8669,0.8686,0.8771,0.8995,0.9173,0.9396,0.9522,0.9624,0.9624,0.9624,0.9628,0.9648,0.9916,1.0176,1.0359,1.0526,1.0627,1.0631,1.0672,1.0676,1.0643,1.0672,1.0692,1.0692,1.0692,1.0692,1.0692,1.0692,1.0692,1.0692,1.0692,1.0692,1.0692,1.0692,1.0692,1.0692,1.0692,1.0692,1.0692,1.0692,1.0747,1.0692,1.0857,1.1021,1.1017,1.1509,1.1787,1.1951,1.2164,1.2382,1.2382,1.2382,1.2382,1.2382,1.2382,1.2382,1.2382,1.2382,1.2368,1.2302,1.209,1.202,0.7965,0.7968,0.7965,0.7897,0.7845,0.7801,0.7709,0.7584,0.756,0.7556,0.7516,0.722,0.7105,0.7095,0.7088,0.7085,0.7085,0.7061,0.7065,0.7075,0.7078,0.7156,0.7326,0.7343,0.7395,0.7346,0.7343,0.7268,0.7115,0.7115,0.7234,0.7356,0.7433,0.7458,0.7563,0.7461,0.7397,0.7439,0.7363,0.7485,0.775,0.777,0.778,0.779,0.779,0.7818,0.7854,0.776,0.7905,0.8291,0.8246,0.8363,0.8726,0.875,0.8755,0.8779,0.8995,0.9173,0.9396,0.9527,0.964,0.9624,0.9644,0.9648,0.9652,0.9807,1.0045,1.0241,1.0416,1.0452,1.0469,1.0586,1.0607,1.0526,1.0603,1.0692,1.0692,1.0692,1.0692,1.0692,1.0692,1.0692,1.0692,1.0692,1.0692,1.0692,1.0692,1.0692,1.0692,1.0692,1.0692,1.0692,1.0692,1.0692,1.0692,1.0692,1.0802,1.0802,1.124,1.1568,1.1732,1.206,1.2382,1.2382,1.2382,1.2382,1.2382,1.2382,1.2382,1.2377,1.2363,1.2316,1.2128,1.1827,1.1732,0.7988,0.7988,0.7988,0.7955,0.7891,0.7851,0.7777,0.7719,0.7634,0.7597,0.7587,0.7465,0.7411,0.7411,0.7368,0.7411,0.7411,0.7411,0.736,0.7282,0.7275,0.7265,0.7244,0.7333,0.7373,0.7373,0.7373,0.7343,0.7272,0.7139,0.7129,0.7227,0.7189,0.7268,0.7326,0.736,0.7456,0.7552,0.759,0.7733,0.7906,0.7855,0.7855,0.7933,0.7897,0.7875,0.7832,0.7804,0.783,0.7984,0.7984,0.8215,0.8597,0.8688,0.8746,0.8803,0.9092,0.942,0.9702,0.9839,0.9941,0.9941,0.9945,0.9945,0.9949,1.001,1.0431,1.1168,1.0712,1.031,1.0412,1.0404,1.0424,1.0538,1.0566,1.0578,1.0684,1.0747,1.0692,1.0692,1.0692,1.0692,1.0692,1.0692,1.0692,1.0692,1.0692,1.0692,1.0692,1.0692,1.0692,1.0692,1.0692,1.0692,1.0692,1.0692,1.0692,1.0743,1.1021,1.135,1.1623,1.1896,1.2219,1.2382,1.2382,1.2382,1.2382,1.2382,1.2382,1.2349,1.2236,1.2118,1.1789,1.1638,1.1539,0.7988,0.7988,0.7988,0.7988,0.7978,0.7923,0.7872,0.7865,0.7763,0.7719,0.7719,0.7719,0.7723,0.7709,0.7638,0.7597,0.7597,0.7597,0.7543,0.7441,0.748,0.7397,0.7291,0.7434,0.7492,0.7492,0.7499,0.7472,0.7428,0.7329,0.722,0.722,0.7223,0.7223,0.7233,0.7383,0.7485,0.7597,0.774,0.7865,0.7901,0.7909,0.7926,0.7978,0.7988,0.7934,0.7879,0.7831,0.7811,0.783,0.7887,0.8124,0.8571,0.8718,0.8839,0.9033,0.9328,0.9657,0.9872,1.011,1.0212,1.0212,1.0212,1.0212,1.0264,1.0473,1.1098,1.1825,1.1481,1.1263,1.1199,1.1168,1.1283,1.1424,1.1358,1.1402,1.1629,1.1391,1.1236,1.1177,1.0962,1.0692,1.0692,1.0692,1.0692,1.0692,1.0692,1.0692,1.0692,1.0692,1.0692,1.0692,1.0692,1.0692,1.0692,1.0692,1.0692,1.0747,1.0966,1.1185,1.1455,1.1728,1.2001,1.2219,1.2327,1.234,1.2274,1.2283,1.225,1.2189,1.2057,1.1907,1.1633,1.1491,1.1373,0.7988,0.7988,0.7988,0.7988,0.7985,0.7978,0.7975,0.7965,0.7958,0.7958,0.7948,0.7955,0.7965,0.7934,0.774,0.7607,0.7607,0.7621,0.7614,0.759,0.759,0.7655,0.7732,0.779,0.7784,0.7753,0.775,0.7695,0.7584,0.757,0.758,0.7567,0.7553,0.7567,0.7556,0.7563,0.759,0.7628,0.7743,0.7824,0.7851,0.7914,0.7975,0.7988,0.7988,0.7982,0.7958,0.7889,0.7901,0.8186,0.8011,0.8226,0.8873,0.8952,0.9167,0.9522,0.9754,0.9868,0.9916,1.0087,1.0188,1.018,1.0152,1.0228,1.037,1.1145,1.1827,1.1991,1.2905,1.3302,1.3364,1.3159,1.3195,1.3127,1.3331,1.3509,1.3788,1.2788,1.2363,1.2096,1.1286,1.0747,1.0692,1.0692,1.0692,1.0692,1.0692,1.0692,1.0692,1.0692,1.0692,1.0692,1.0692,1.0692,1.0692,1.0692,1.0692,1.0747,1.0857,1.1076,1.1291,1.1564,1.1837,1.2046,1.224,1.2278,1.2156,1.2062,1.1991,1.1888,1.1775,1.1572,1.1463,1.1321,1.1236,0.7988,0.7988,0.7988,0.7988,0.7988,0.7988,0.7988,0.7988,0.7988,0.7988,0.7988,0.7988,0.7988,0.7982,0.7884,0.783,0.7833,0.7882,0.7831,0.7746,0.7736,0.7716,0.7685,0.7767,0.7814,0.7814,0.7814,0.774,0.7611,0.7597,0.7597,0.7597,0.7597,0.7597,0.7597,0.7597,0.7641,0.7733,0.779,0.7855,0.7957,0.7961,0.7988,0.7988,0.7988,0.7988,0.7988,0.7938,0.7916,0.7966,0.7945,0.8198,0.8702,0.9129,0.9509,0.9782,0.9961,1.0115,1.0185,1.0239,1.0285,1.0235,1.007,1.0327,1.0981,1.1518,1.2312,1.3784,1.4417,1.4995,1.5388,1.4539,1.3705,1.3841,1.383,1.399,1.4019,1.3706,1.3221,1.2472,1.1396,1.0747,1.0692,1.0692,1.0692,1.0692,1.0692,1.0692,1.0692,1.0692,1.0692,1.0692,1.0692,1.0692,1.0692,1.0692,1.0692,1.0692,1.0802,1.0907,1.1126,1.14,1.1673,1.1923,1.2109,1.2126,1.2034,1.1864,1.1784,1.1713,1.1539,1.1487,1.1335,1.1335,1.1274,0.7988,0.7988,0.7988,0.7988,0.7988,0.7988,0.7988,0.7988,0.7988,0.7988,0.7988,0.7988,0.7988,0.7988,0.7988,0.7988,0.7988,0.7985,0.7934,0.7892,0.7837,0.7834,0.777,0.7838,0.7882,0.7889,0.7885,0.7783,0.7709,0.7743,0.774,0.7746,0.7743,0.7767,0.7807,0.7818,0.7885,0.8001,0.8028,0.8082,0.8167,0.8136,0.8116,0.8116,0.8113,0.8089,0.7995,0.7988,0.7948,0.7916,0.8037,0.8361,0.8867,0.9402,0.9778,1.005,1.0237,1.0334,1.0343,1.0304,1.0253,1.0147,0.9981,1.0308,1.1455,1.1996,1.3344,1.4911,1.5927,1.6529,1.6788,1.5859,1.4972,1.5088,1.4995,1.5054,1.5175,1.4942,1.397,1.263,1.1391,1.0798,1.0692,1.0692,1.0692,1.0692,1.0692,1.0692,1.0692,1.0692,1.0692,1.0692,1.0692,1.0692,1.0692,1.0692,1.0692,1.0692,1.0692,1.0852,1.0962,1.1236,1.15,1.1751,1.1913,1.1907,1.1836,1.1704,1.1638,1.1534,1.1529,1.151,1.1453,1.1449,1.1397,0.7988,0.7988,0.7988,0.7988,0.7988,0.7988,0.7988,0.7988,0.7988,0.7988,0.7988,0.7988,0.7988,0.7988,0.7988,0.7988,0.7988,0.7988,0.7982,0.7965,0.7971,0.7968,0.7951,0.7958,0.7965,0.7968,0.7982,0.7978,0.7951,0.7944,0.7948,0.7968,0.7965,0.8072,0.8299,0.8272,0.8364,0.8449,0.8463,0.8442,0.8514,0.8336,0.8269,0.8272,0.8323,0.8211,0.8019,0.8008,0.8008,0.8058,0.8247,0.8711,0.9361,0.9681,0.997,1.0326,1.0574,1.0507,1.0347,1.0249,1.0091,0.9871,0.9761,1.0257,1.1509,1.2689,1.3922,1.5227,1.6511,1.745,1.745,1.7331,1.7141,1.7221,1.684,1.6951,1.7075,1.6446,1.4995,1.2901,1.15,1.0802,1.0692,1.0692,1.0692,1.0692,1.0692,1.0692,1.0692,1.0692,1.0692,1.0692,1.0692,1.0692,1.0692,1.0692,1.0692,1.0692,1.0692,1.0747,1.0857,1.1072,1.1291,1.1533,1.1652,1.1691,1.1615,1.151,1.1529,1.1468,1.1501,1.159,1.1614,1.1619,1.1576,0.7988,0.7988,0.7988,0.7988,0.7988,0.7988,0.7988,0.7988,0.7988,0.7988,0.7988,0.7988,0.7988,0.7988,0.7988,0.7988,0.7988,0.7988,0.7988,0.7992,0.7992,0.7995,0.7992,0.7992,0.7988,0.7988,0.7988,0.7992,0.7995,0.7995,0.7988,0.8005,0.815,0.8218,0.8337,0.8364,0.8445,0.8525,0.8535,0.8535,0.8482,0.8438,0.8418,0.8414,0.8418,0.8387,0.8343,0.8252,0.8252,0.833,0.85,0.8925,0.9605,1.0043,1.0269,1.0387,1.0377,1.0417,1.0257,0.993,0.9761,0.9706,0.943,1.0033,1.1345,1.2313,1.3496,1.4905,1.6246,1.7054,1.7305,1.7682,1.7736,1.7475,1.7501,1.7527,1.7338,1.5861,1.4508,1.3539,1.1878,1.0857,1.0692,1.0692,1.0692,1.0692,1.0692,1.0692,1.0692,1.0692,1.0692,1.0692,1.0692,1.0692,1.0692,1.0692,1.0692,1.0692,1.0692,1.0692,1.0802,1.0852,1.1072,1.1313,1.1434,1.151,1.1368,1.1401,1.1472,1.1548,1.1647,1.1728,1.1794,1.1794,1.1761,0.7988,0.7988,0.7988,0.7988,0.7988,0.7988,0.7988,0.7988,0.7988,0.7988,0.7988,0.7988,0.7988,0.7988,0.7988,0.7988,0.7988,0.7988,0.8019,0.8119,0.8126,0.8123,0.8136,0.8187,0.8153,0.8204,0.8204,0.8204,0.8204,0.8153,0.8157,0.8228,0.8303,0.8384,0.8428,0.852,0.8584,0.8638,0.8655,0.8652,0.8638,0.8594,0.857,0.8567,0.8567,0.8567,0.856,0.8476,0.8448,0.8514,0.8647,0.915,0.9937,1.0158,1.0353,1.0488,1.0459,1.0417,1.0257,0.9875,0.9596,0.9651,0.9375,0.9816,1.1236,1.2046,1.2955,1.4202,1.5601,1.6405,1.6596,1.7363,1.7709,1.7615,1.7689,1.7689,1.7305,1.5535,1.4239,1.3593,1.2096,1.1017,1.0692,1.0692,1.0692,1.0692,1.0692,1.0692,1.0692,1.0692,1.0692,1.0692,1.0692,1.0692,1.0692,1.0692,1.0692,1.0692,1.0692,1.0692,1.0747,1.0798,1.0958,1.127,1.1469,1.1606,1.1564,1.1577,1.1661,1.1737,1.1831,1.1959,1.1996,1.1992,1.1878,0.7988,0.7988,0.7988,0.7988,0.7988,0.7988,0.7988,0.7988,0.7988,0.7988,0.7988,0.7988,0.7988,0.7988,0.7988,0.7988,0.7988,0.7988,0.8116,0.8225,0.8269,0.8282,0.8292,0.8381,0.8425,0.8442,0.8448,0.8507,0.8431,0.8431,0.8482,0.8501,0.8476,0.8557,0.8648,0.871,0.8784,0.8821,0.891,0.8851,0.8848,0.874,0.8723,0.8723,0.8723,0.8723,0.872,0.8706,0.8642,0.8576,0.8885,0.944,1.0144,1.0172,1.0309,1.066,1.0688,1.0527,1.0308,0.9981,0.9816,0.9816,0.9651,0.9981,1.1236,1.1773,1.2422,1.3506,1.4948,1.5861,1.5962,1.69,1.755,1.7543,1.7469,1.7535,1.7411,1.5423,1.4078,1.3647,1.22,1.0692,1.0692,1.0692,1.0692,1.0692,1.0692,1.0692,1.0692,1.0692,1.0692,1.0692,1.0692,1.0692,1.0692,1.0692,1.0692,1.0692,1.0692,1.0692,1.0692,1.0743,1.0908,1.1218,1.1456,1.1643,1.1746,1.178,1.1865,1.1916,1.2038,1.2189,1.2194,1.2109,1.2001,0.7988,0.7988,0.7988,0.7988,0.7988,0.7988,0.7988,0.7988,0.7988,0.7988,0.7988,0.7988,0.7988,0.7988,0.7988,0.7988,0.7988,0.7988,0.8123,0.832,0.8384,0.8421,0.8428,0.8462,0.8492,0.8496,0.8513,0.8535,0.8535,0.8506,0.8552,0.8538,0.8604,0.8669,0.8716,0.8821,0.8838,0.8875,0.8937,0.8937,0.8875,0.8844,0.8824,0.8879,0.8817,0.8872,0.8879,0.8824,0.8917,0.9051,0.9356,0.9755,1.028,1.0393,1.0522,1.0621,1.0527,1.0363,1.0253,0.9978,0.9926,1.0091,0.9871,1.0091,1.0852,1.14,1.2268,1.3452,1.4798,1.582,1.6549,1.7336,1.7434,1.6788,1.6491,1.6665,1.6802,1.4829,1.3112,1.3652,1.2037,1.0962,1.0692,1.0692,1.0692,1.0692,1.0692,1.0692,1.0692,1.0692,1.0692,1.0692,1.0692,1.0692,1.0692,1.0692,1.0692,1.0692,1.0692,1.0692,1.0692,1.0747,1.0925,1.1233,1.146,1.1637,1.1805,1.1931,1.1996,1.2123,1.2208,1.2302,1.2274,1.2212,1.21,0.7988,0.7988,0.7988,0.7988,0.7988,0.7988,0.7988,0.7988,0.7988,0.7988,0.7988,0.7988,0.7988,0.7988,0.7988,0.7988,0.7988,0.7988,0.816,0.8381,0.8581,0.8672,0.8679,0.8672,0.8676,0.8672,0.8672,0.8679,0.8679,0.8676,0.8672,0.8696,0.876,0.8804,0.876,0.8828,0.8937,0.8937,0.8937,0.8937,0.8937,0.8937,0.8881,0.8937,0.8937,0.8937,0.8937,0.8881,0.9003,0.9275,0.9545,0.982,1.0257,1.0417,1.0582,1.0637,1.0527,1.0476,1.0417,1.0202,1.0143,1.0366,1.0202,1.0257,1.0637,1.1076,1.1778,1.2856,1.3717,1.4846,1.6158,1.6829,1.6516,1.5497,1.4812,1.4942,1.6015,1.3922,1.2896,1.2738,1.1932,1.0692,1.0692,1.0692,1.0692,1.0692,1.0692,1.0692,1.0692,1.0692,1.0692,1.0692,1.0692,1.0692,1.0692,1.0692,1.0692,1.0692,1.0692,1.0692,1.0692,1.0747,1.1021,1.1266,1.1464,1.1648,1.1896,1.2081,1.2175,1.2283,1.2354,1.2354,1.2325,1.2131,1.2037,0.7988,0.7988,0.7988,0.7988,0.7988,0.7988,0.7988,0.7988,0.7988,0.7988,0.7988,0.7988,0.7988,0.7988,0.7988,0.7988,0.7988,0.7988,0.8225,0.8476,0.8737,0.8893,0.8882,0.8879,0.8882,0.8834,0.893,0.8913,0.8831,0.8903,0.892,0.8841,0.8861,0.8875,0.8858,0.8878,0.8881,0.8937,0.8937,0.8937,0.8937,0.8937,0.8937,0.8937,0.8937,0.8937,0.8937,0.8937,0.904,0.932,0.9379,0.9706,1.0143,1.0253,1.0472,1.0637,1.0692,1.0692,1.0692,1.0476,1.0421,1.0582,1.0472,1.0417,1.0692,1.0802,1.1236,1.2254,1.2309,1.3545,1.4942,1.5547,1.5137,1.4175,1.3068,1.3009,1.3275,1.2842,1.2254,1.2309,1.1391,1.0852,1.0692,1.0692,1.0692,1.0692,1.0692,1.0692,1.0692,1.0692,1.0692,1.0692,1.0692,1.0692,1.0692,1.0692,1.0692,1.0692,1.0692,1.0692,1.0747,1.0857,1.1181,1.1428,1.1548,1.1815,1.2203,1.233,1.2299,1.2276,1.2217,1.224,1.229,1.2003,1.1805,0.7988,0.7988,0.7988,0.7988,0.7988,0.7988,0.7988,0.7988,0.7988,0.7988,0.7988,0.7988,0.7988,0.7988,0.7988,0.7988,0.7995,0.8015,0.8201,0.8492,0.8794,0.8868,0.8937,0.8937,0.8937,0.8937,0.8937,0.8937,0.8937,0.8937,0.8937,0.8937,0.8937,0.8937,0.8937,0.8937,0.8937,0.8937,0.8937,0.8937,0.8937,0.8937,0.8937,0.8937,0.8937,0.8937,0.8937,0.8937,0.8937,0.9047,0.9268,0.9596,0.9926,1.0147,1.0421,1.0637,1.0692,1.0692,1.0692,1.0637,1.0637,1.0692,1.0637,1.0637,1.0692,1.0692,1.1232,1.2037,1.2417,1.2896,1.397,1.4406,1.3922,1.3009,1.2467,1.2091,1.1605,1.1286,1.15,1.1878,1.1391,1.0692,1.0692,1.0692,1.0692,1.0692,1.0692,1.0692,1.0692,1.0692,1.0692,1.0692,1.0692,1.0692,1.0692,1.0692,1.0692,1.0692,1.0692,1.0692,1.0747,1.0802,1.1021,1.1345,1.1614,1.1891,1.2164,1.2159,1.2041,1.2059,1.2008,1.195,1.1832,1.1684,1.1734,0.7988,0.7988,0.7988,0.7988,0.7988,0.7988,0.7988,0.7988,0.7988,0.7988,0.7988,0.7988,0.7988,0.7988,0.7988,0.7988,0.8029,0.8143,0.8326,0.853,0.873,0.8875,0.8937,0.8937,0.8937,0.8937,0.8937,0.8937,0.8937,0.8937,0.8937,0.8937,0.8937,0.8937,0.8937,0.8937,0.8937,0.8937,0.8937,0.8937,0.8937,0.8937,0.8937,0.8937,0.8937,0.8937,0.8937,0.8937,0.8937,0.8992,0.9213,0.9544,0.9816,1.0091,1.0421,1.0637,1.0692,1.0692,1.0692,1.0692,1.0692,1.0692,1.0692,1.0692,1.0692,1.0692,1.1286,1.1932,1.1987,1.1932,1.2467,1.3117,1.2684,1.1928,1.1605,1.1341,1.0852,1.0692,1.0852,1.1391,1.1067,1.0798,1.0692,1.0692,1.0692,1.0692,1.0692,1.0692,1.0692,1.0692,1.0692,1.0692,1.0692,1.0692,1.0692,1.0692,1.0692,1.0692,1.0692,1.0692,1.0692,1.0747,1.0857,1.1168,1.142,1.1673,1.1841,1.1837,1.1774,1.1711,1.1599,1.1527,1.1523,1.1503,1.1622,0.7988,0.7988,0.7988,0.7988,0.7988,0.7988,0.8008,0.8029,0.8072,0.8062,0.8059,0.8056,0.8099,0.8069,0.8076,0.8062,0.8137,0.8367,0.853,0.8577,0.8811,0.8923,0.8937,0.8937,0.8937,0.8937,0.8937,0.8937,0.8937,0.8937,0.8937,0.8937,0.8937,0.8937,0.8937,0.8937,0.8937,0.8937,0.8937,0.8937,0.8937,0.8937,0.8937,0.8937,0.8937,0.8937,0.8937,0.8937,0.8937,0.8995,0.9268,0.9596,0.9871,1.0147,1.0421,1.0692,1.0692,1.0692,1.0692,1.0692,1.0692,1.0692,1.0692,1.0692,1.0692,1.0747,1.1122,1.1391,1.1391,1.0907,1.0802,1.1555,1.1605,1.1013,1.0747,1.0692,1.0692,1.0692,1.0747,1.0747,1.0852,1.0747,1.0692,1.0692,1.0692,1.0692,1.0692,1.0692,1.0692,1.0692,1.0692,1.0692,1.0692,1.0692,1.0692,1.0692,1.0692,1.0692,1.0692,1.0692,1.0692,1.0747,1.0844,1.1008,1.1272,1.1457,1.1476,1.1393,1.1344,1.126,1.1172,1.1018,1.1138,1.1318,1.1459,0.7988,0.7988,0.7988,0.7988,0.7988,0.7988,0.8113,0.8221,0.8221,0.8299,0.8391,0.8404,0.8384,0.8391,0.8404,0.8404,0.8414,0.8557,0.8655,0.8682,0.8852,0.8937,0.8937,0.8937,0.8937,0.8937,0.8937,0.8937,0.8937,0.8937,0.8937,0.8937,0.8937,0.8937,0.8937,0.8937,0.8937,0.8937,0.8937,0.8937,0.8937,0.8937,0.8937,0.8937,0.8937,0.8937,0.8937,0.8937,0.9051,0.9327,0.9596,0.9871,1.0147,1.0257,1.0476,1.0637,1.0692,1.0692,1.0692,1.0692,1.0692,1.0692,1.0692,1.0692,1.0692,1.0692,1.0907,1.0907,1.0962,1.0692,1.0692,1.1017,1.0962,1.0747,1.0692,1.0692,1.0692,1.0692,1.0692,1.0692,1.0692,1.0692,1.0692,1.0692,1.0692,1.0692,1.0692,1.0692,1.0692,1.0692,1.0692,1.0692,1.0692,1.0692,1.0692,1.0692,1.0692,1.0692,1.0692,1.0692,1.0692,1.0692,1.0828,1.0908,1.0978,1.1145,1.1076,1.1007,1.1013,1.1018,1.0794,1.0561,1.0689,1.0893,1.111,0.7988,0.7988,0.7988,0.7988,0.7988,0.7988,0.813,0.8258,0.8327,0.8402,0.8501,0.8535,0.8535,0.8535,0.8535,0.8535,0.853,0.8638,0.8706,0.8747,0.8862,0.8937,0.8937,0.8937,0.8937,0.8937,0.8937,0.8937,0.8937,0.8937,0.8937,0.8937,0.8937,0.8937,0.8937,0.8937,0.8937,0.8937,0.8937,0.8937,0.8937,0.8937,0.8937,0.8937,0.8937,0.8937,0.8937,0.8937,0.9047,0.9379,0.9651,0.9981,1.0202,1.0417,1.0582,1.0692,1.0692,1.0692,1.0692,1.0692,1.0692,1.0692,1.0692,1.0692,1.0692,1.0692,1.0692,1.0692,1.0692,1.0692,1.0692,1.0692,1.0692,1.0692,1.0692,1.0692,1.0692,1.0692,1.0692,1.0692,1.0692,1.0692,1.0692,1.0692,1.0692,1.0692,1.0692,1.0692,1.0692,1.0692,1.0692,1.0672,1.0668,1.0672,1.0676,1.068,1.0688,1.0692,1.0692,1.0692,1.0692,1.0692,1.0657,1.0605,1.0745,1.0908,1.0787,1.077,1.0724,1.0712,1.0649,1.0508,1.0348,1.0438,1.0775,0.7988,0.7988,0.7988,0.7988,0.7988,0.7988,0.8147,0.8289,0.8368,0.8425,0.856,0.8581,0.8591,0.8581,0.8584,0.8584,0.8584,0.872,0.8764,0.874,0.8824,0.8937,0.8937,0.8937,0.8937,0.8937,0.8937,0.8937,0.8937,0.8937,0.8937,0.8937,0.8937,0.8937,0.8937,0.8937,0.8937,0.8937,0.8937,0.8937,0.8937,0.8937,0.8937,0.8937,0.8937,0.8937,0.8937,0.8937,0.9047,0.9379,0.9655,0.9981,1.0257,1.0527,1.0692,1.0692,1.0692,1.0692,1.0692,1.0692,1.0692,1.0692,1.0692,1.0692,1.0692,1.0692,1.0692,1.0692,1.0692,1.0692,1.0692,1.0692,1.0692,1.0692,1.0692,1.0692,1.0692,1.0692,1.0692,1.0692,1.0692,1.0692,1.0692,1.0692,1.0692,1.0692,1.0692,1.0692,1.0692,1.0692,1.0684,1.0647,1.0635,1.0643,1.0651,1.0664,1.0676,1.0692,1.0692,1.0692,1.0692,1.0692,1.0637,1.0547,1.0633,1.0791,1.0607,1.0497,1.04,1.0421,1.0443,1.0386,1.0255,1.0486,1.0877,0.7988,0.7988,0.7992,0.7988,0.7988,0.7995,0.8204,0.8487,0.8452,0.8625,0.8842,0.8814,0.8859,0.8855,0.8855,0.8814,0.8824,0.8817,0.8828,0.8834,0.8865,0.8937,0.8937,0.8937,0.8937,0.8937,0.8937,0.8937,0.8937,0.8937,0.8937,0.8937,0.8937,0.8937,0.8937,0.8937,0.8937,0.8937,0.8937,0.8937,0.8937,0.8937,0.8937,0.8937,0.8937,0.8937,0.8937,0.8937,0.9051,0.9379,0.9655,0.9926,1.0253,1.0527,1.0692,1.0692,1.0692,1.0692,1.0692,1.0692,1.0692,1.0692,1.0692,1.0692,1.0692,1.0692,1.0692,1.0692,1.0692,1.0692,1.0692,1.0692,1.0692,1.0692,1.0692,1.0692,1.0692,1.0692,1.0692,1.0637,1.0637,1.0637,1.0641,1.0692,1.0692,1.0692,1.0692,1.0692,1.0692,1.0692,1.0627,1.0578,1.0586,1.0595,1.0615,1.0631,1.0651,1.0676,1.0692,1.0692,1.0692,1.068,1.0611,1.0566,1.0651,1.0655,1.0582,1.0412,1.0156,1.0166,1.0325,1.026,1.0037,1.0482,1.097,0.8241,0.8174,0.8174,0.8119,0.8002,0.8133,0.8286,0.8469,0.8577,0.8733,0.891,0.8937,0.8937,0.8937,0.8937,0.8933,0.8937,0.8937,0.8937,0.8937,0.8937,0.8937,0.8937,0.8937,0.8937,0.8937,0.8937,0.8937,0.8937,0.8937,0.8937,0.8937,0.8937,0.8937,0.8937,0.8937,0.8937,0.8937,0.8937,0.8937,0.8937,0.8937,0.8937,0.8937,0.8937,0.8937,0.8937,0.8937,0.9051,0.9379,0.9651,0.9923,1.0257,1.0527,1.0692,1.0692,1.0692,1.0692,1.0692,1.0692,1.0692,1.0692,1.0692,1.0692,1.0692,1.0692,1.0692,1.0692,1.0692,1.0692,1.0692,1.0692,1.0692,1.0692,1.0692,1.0692,1.0692,1.0692,1.0692,1.0637,1.0582,1.0582,1.0641,1.0692,1.0692,1.0692,1.0688,1.068,1.0684,1.0692,1.0599,1.0423,1.0451,1.0542,1.0566,1.059,1.0615,1.0643,1.0692,1.0692,1.0692,1.0664,1.0611,1.0607,1.0668,1.0635,1.0546,1.0428,1.0262,1.024,1.0279,1.0197,1.0169,1.0484,1.0915,0.8476,0.8381,0.8391,0.8255,0.8113,0.8275,0.8408,0.8547,0.8655,0.8794,0.8851,0.8937,0.8937,0.8937,0.8937,0.8937,0.8937,0.8937,0.8937,0.8937,0.8937,0.8937,0.8937,0.8937,0.8937,0.8937,0.8937,0.8937,0.8937,0.8937,0.8937,0.8937,0.8937,0.8937,0.8937,0.8937,0.8937,0.8937,0.8937,0.8937,0.8937,0.8937,0.8937,0.8937,0.8937,0.8937,0.8937,0.8937,0.9047,0.9213,0.9651,0.9926,1.0147,1.0472,1.0692,1.0692,1.0692,1.0692,1.0692,1.0692,1.0692,1.0692,1.0692,1.0692,1.0692,1.0692,1.0692,1.0692,1.0692,1.0692,1.0692,1.0692,1.0692,1.0692,1.0692,1.0637,1.0582,1.0582,1.0527,1.0472,1.0472,1.0527,1.0582,1.0637,1.0692,1.0692,1.0684,1.0668,1.0639,1.0619,1.0729,1.0623,1.0445,1.0592,1.095,1.089,1.0787,1.0669,1.0718,1.0692,1.0692,1.0676,1.0635,1.0655,1.0676,1.0554,1.0428,1.0412,1.0379,1.0305,1.0279,1.0293,1.0352,1.0645,1.0869,0.8693,0.8669,0.853,0.8459,0.8438,0.8514,0.8554,0.8672,0.8706,0.875,0.8875,0.8937,0.8937,0.8937,0.8937,0.8937,0.8937,0.8937,0.8937,0.8937,0.8937,0.8937,0.8937,0.8937,0.8937,0.8937,0.8937,0.8937,0.8937,0.8937,0.8937,0.8937,0.8937,0.8937,0.8937,0.8937,0.8937,0.8937,0.8937,0.8937,0.8937,0.8937,0.8937,0.8937,0.8937,0.8937,0.8937,0.8937,0.8937,0.9047,0.9489,0.9816,0.9978,1.0363,1.0637,1.0692,1.0692,1.0692,1.0692,1.0692,1.0692,1.0692,1.0692,1.0692,1.0692,1.0692,1.0692,1.0692,1.0692,1.0692,1.0692,1.0692,1.0692,1.0692,1.0692,1.0582,1.0472,1.0417,1.0363,1.0308,1.0363,1.0417,1.0527,1.0637,1.0692,1.0692,1.0607,1.0586,1.0477,1.0473,1.0867,1.0893,1.056,1.075,1.1463,1.1387,1.1052,1.0874,1.0862,1.0781,1.0692,1.0672,1.0655,1.0631,1.0623,1.0465,1.0367,1.0432,1.0461,1.0366,1.0287,1.0289,1.0378,1.0578,1.085,0.8797,0.879,0.8788,0.8652,0.8492,0.8581,0.8659,0.8723,0.8808,0.8824,0.8937,0.8937,0.8937,0.8937,0.8937,0.8937,0.8937,0.8937,0.8937,0.8937,0.8937,0.8937,0.8937,0.8937,0.8937,0.8937,0.8937,0.8937,0.8937,0.8937,0.8937,0.8937,0.8937,0.8937,0.8937,0.8937,0.8937,0.8937,0.8937,0.8937,0.8937,0.8937,0.8937,0.8937,0.8937,0.8937,0.8937,0.8937,0.8937,0.9047,0.9379,0.9596,0.9871,1.0308,1.0527,1.0692,1.0692,1.0692,1.0692,1.0692,1.0692,1.0692,1.0692,1.0692,1.0692,1.0692,1.0692,1.0692,1.0692,1.0692,1.0692,1.0692,1.0692,1.0692,1.0637,1.0527,1.0363,1.0257,1.0253,1.0198,1.0253,1.0363,1.0472,1.0582,1.0637,1.0684,1.0586,1.0535,1.0478,1.0613,1.1059,1.1475,1.1235,1.1643,1.2311,1.1926,1.1336,1.117,1.1054,1.0933,1.0798,1.0688,1.0672,1.0635,1.0574,1.0461,1.0428,1.0513,1.0457,1.0223,1.0219,1.0221,1.0364,1.0524,1.0703,0.8937,0.8937,0.8937,0.8818,0.8642,0.873,0.8781,0.8798,0.8831,0.8937,0.8937,0.8937,0.8937,0.8937,0.8937,0.8937,0.8937,0.8937,0.8937,0.8937,0.8937,0.8937,0.8937,0.8937,0.8937,0.8937,0.8937,0.8937,0.8937,0.8937,0.8937,0.8937,0.8937,0.8937,0.8937,0.8937,0.8937,0.8937,0.8937,0.8937,0.8937,0.8937,0.8937,0.8937,0.8937,0.8937,0.8937,0.8937,0.8995,0.9161,0.9379,0.9706,0.9978,1.0253,1.0472,1.0637,1.0692,1.0692,1.0692,1.0692,1.0692,1.0692,1.0692,1.0692,1.0692,1.0692,1.0692,1.0692,1.0692,1.0692,1.0692,1.0692,1.0637,1.0582,1.0692,1.0582,1.0257,1.0091,1.0091,1.0088,1.0088,1.0084,1.046,1.0625,1.0609,1.0639,1.055,1.0679,1.0985,1.1156,1.1494,1.1914,1.2133,1.2725,1.3382,1.2812,1.2244,1.166,1.1482,1.1143,1.0958,1.0777,1.0623,1.055,1.0493,1.0444,1.0379,1.0318,1.0168,0.9973,1.0061,1.0104,1.0334,1.0458,1.0507,0.8937,0.8937,0.8937,0.8927,0.8951,0.8923,0.8868,0.891,0.8875,0.8937,0.8937,0.8937,0.8937,0.8937,0.8937,0.8937,0.8937,0.8937,0.8937,0.8937,0.8937,0.8937,0.8937,0.8937,0.8937,0.8937,0.8937,0.8937,0.8937,0.8937,0.8937,0.8937,0.8937,0.8937,0.8937,0.8937,0.8937,0.8937,0.8937,0.8937,0.8937,0.8937,0.8937,0.8937,0.8937,0.8937,0.8937,0.8992,0.9106,0.9323,0.9544,0.9871,1.0202,1.0417,1.0582,1.0692,1.0692,1.0692,1.0692,1.0692,1.0692,1.0692,1.0692,1.0692,1.0692,1.0692,1.0692,1.0692,1.0692,1.0692,1.0692,1.0692,1.0527,1.0476,1.0582,1.0417,1.0036,0.982,0.9816,0.9794,0.9691,0.9695,1.0288,1.066,1.0639,1.0595,1.0455,1.0731,1.1266,1.1508,1.1734,1.2662,1.3046,1.3607,1.4036,1.3657,1.3142,1.248,1.1884,1.1473,1.1062,1.0704,1.0547,1.0444,1.0367,1.0286,1.0164,1.0046,0.9953,0.9926,0.9946,1.0024,1.0224,1.0314,1.0314,0.9754,0.9213,0.9213,0.9323,0.943,0.9047,0.8937,0.8937,0.8937,0.8937,0.8937,0.8937,0.8937,0.8937,0.8937,0.8937,0.8937,0.8937,0.8937,0.8937,0.8937,0.8937,0.8937,0.8937,0.8937,0.8937,0.8937,0.8937,0.8937,0.8937,0.8937,0.8937,0.8937,0.8937,0.8937,0.8937,0.8937,0.8937,0.8937,0.8937,0.8937,0.8937,0.8937,0.8937,0.8937,0.8937,0.8937,0.9103,0.9268,0.9489,0.9706,0.9981,1.0257,1.0472,1.0527,1.0637,1.0692,1.0692,1.0692,1.0692,1.0692,1.0692,1.0692,1.0692,1.0692,1.0692,1.0692,1.0692,1.0692,1.0692,1.0692,1.0527,1.0366,1.0312,1.0257,0.9926,0.9655,0.9599,0.9541,0.9497,0.9428,0.9511,0.9934,1.0399,1.0456,1.0412,1.0314,1.0958,1.1522,1.1577,1.1796,1.3208,1.3997,1.4497,1.4716,1.4527,1.4021,1.3356,1.2544,1.1827,1.1358,1.067,1.0441,1.0274,1.0249,1.0167,1.0041,0.9888,0.9868,0.9845,0.9842,0.983,0.992,0.9969,0.992,0.9919,0.9434,0.9489,0.9868,1.0194,0.9541,0.9158,0.9047,0.8937,0.8937,0.8937,0.8937,0.8937,0.8937,0.8937,0.8992,0.9047,0.9103,0.9106,0.9047,0.9103,0.9051,0.894,0.8937,0.8937,0.8937,0.8937,0.8937,0.8937,0.8937,0.8937,0.8937,0.8937,0.8937,0.8937,0.8937,0.8937,0.8937,0.8937,0.8937,0.8937,0.8937,0.8937,0.8937,0.8937,0.8937,0.9106,0.9268,0.9485,0.9655,0.9871,1.0143,1.0308,1.0472,1.0527,1.0692,1.0692,1.0692,1.0692,1.0692,1.0692,1.0692,1.0692,1.0692,1.0692,1.0692,1.0692,1.0692,1.0692,1.0692,1.0637,1.0421,1.0202,1.0147,0.9926,0.9655,0.9489,0.9437,0.943,0.9387,0.9226,0.9393,0.9553,0.9939,1.029,1.0228,1.0163,1.0961,1.1694,1.1765,1.2101,1.3511,1.4532,1.4892,1.5284,1.5509,1.4966,1.4269,1.3241,1.2168,1.112,1.0444,1.0297,1.0139,0.9981,0.9884,0.9811,0.975,0.975,0.9734,0.9685,0.9644,0.9628,0.9628,0.9727,0.9541,0.9541,0.9812,1.0629,1.1328,1.0574,0.9871,0.9541,0.9265,0.921,0.9103,0.9316,0.9588,0.932,0.9154,0.932,0.9485,0.9485,0.9379,0.9382,0.9323,0.9161,0.8995,0.8937,0.8937,0.8937,0.8937,0.8937,0.8937,0.8937,0.8937,0.8937,0.8937,0.8937,0.8937,0.8937,0.8937,0.8937,0.8937,0.8937,0.8937,0.8937,0.8937,0.8937,0.8937,0.9051,0.9217,0.9434,0.9761,1.0036,1.0253,1.0472,1.0582,1.0692,1.0692,1.0692,1.0692,1.0692,1.0692,1.0692,1.0692,1.0692,1.0692,1.0692,1.0692,1.0692,1.0692,1.0692,1.0637,1.0637,1.0641,1.0312,1.0036,0.9871,0.9761,0.9544,0.9379,0.9379,0.943,0.9311,0.9024,0.9033,0.9257,0.9637,0.9971,0.9977,1.0132,1.0804,1.1458,1.1915,1.2495,1.389,1.4771,1.5153,1.5422,1.5163,1.4703,1.3595,1.3284,1.2356,1.1293,1.0283,1.0073,0.9896,0.975,0.9669,0.9685,0.9673,0.9652,0.9636,0.9648,0.9697,0.9697,0.964,0.9632,1.225,1.2462,1.2571,1.2896,1.3215,1.2788,1.1973,1.1059,1.1596,1.1592,1.0785,1.1701,1.1701,1.1973,1.116,1.0895,1.0515,1.0135,0.9651,0.9489,0.9489,0.9213,0.9047,0.894,0.8937,0.8937,0.8937,0.8992,0.8937,0.8937,0.8937,0.8937,0.8937,0.8937,0.8937,0.8937,0.8937,0.8937,0.8937,0.8937,0.8937,0.8937,0.8937,0.8937,0.894,0.9161,0.9379,0.9599,0.9926,1.0198,1.0472,1.0637,1.0692,1.0692,1.0692,1.0692,1.0692,1.0692,1.0692,1.0692,1.0692,1.0692,1.0692,1.0692,1.0692,1.0692,1.0692,1.0692,1.0527,1.0527,1.0366,1.0091,0.982,0.9655,0.9489,0.9268,0.9158,0.9158,0.9203,0.9084,0.8804,0.8912,0.9138,0.9334,0.966,0.9728,1.0,1.0622,1.1185,1.1609,1.2403,1.38,1.4136,1.428,1.3902,1.3599,1.3367,1.298,1.2708,1.2225,1.1221,1.0378,0.9966,0.975,0.9669,0.964,0.9636,0.9624,0.9624,0.9624,0.964,0.9709,0.9754,0.9713,0.9677,1.3467,1.3701,1.3809,1.4191,1.4781,1.5097,1.4454,1.3431,1.3324,1.2837,1.2354,1.2886,1.3318,1.3048,1.2344,1.186,1.1542,1.0958,1.0366,0.9871,0.9871,0.9541,0.9379,0.9268,0.932,0.9268,0.9268,0.932,0.9213,0.9103,0.9103,0.9103,0.8992,0.8937,0.8937,0.8937,0.8937,0.8937,0.8937,0.8937,0.8937,0.8937,0.894,0.9051,0.9051,0.9323,0.9706,0.9926,1.0143,1.0417,1.0637,1.0692,1.0692,1.0692,1.0692,1.0692,1.0692,1.0692,1.0692,1.0692,1.0692,1.0692,1.0692,1.0692,1.0692,1.0692,1.0692,1.0692,1.0472,1.0308,1.0036,0.982,0.9599,0.9434,0.9158,0.8937,0.8937,0.8937,0.8852,0.8794,0.8832,0.8921,0.9062,0.9199,0.9389,0.9565,0.9731,0.9966,1.0542,1.1056,1.1863,1.3022,1.3071,1.3022,1.2646,1.2445,1.2436,1.236,1.2069,1.1561,1.0879,1.0339,0.9859,0.9685,0.964,0.9624,0.9624,0.9624,0.9624,0.9624,0.9657,0.975,0.9819,0.9843,0.9807,1.3694,1.4099,1.4282,1.5108,1.6133,1.6988,1.6829,1.5914,1.4508,1.3642,1.3588,1.3696,1.3965,1.418,1.3588,1.3107,1.2733,1.2205,1.1614,1.0637,1.0958,1.0794,1.0464,1.0029,1.0084,0.9978,0.9757,0.9596,0.9655,0.9489,0.9323,0.9379,0.9103,0.9047,0.9103,0.9047,0.9047,0.9047,0.8937,0.8937,0.8937,0.8937,0.9051,0.9323,0.9434,0.9599,1.0091,1.0308,1.0417,1.0582,1.0692,1.0692,1.0692,1.0692,1.0692,1.0692,1.0692,1.0692,1.0692,1.0692,1.0692,1.0692,1.0692,1.0692,1.0692,1.0692,1.0692,1.0527,1.0312,1.0091,0.9871,0.9544,0.9323,0.9213,0.9047,0.8937,0.8937,0.8889,0.8767,0.8702,0.8699,0.8794,0.8933,0.9076,0.9282,0.9476,0.9624,0.9673,0.9916,1.0498,1.1126,1.2058,1.1889,1.1796,1.181,1.1668,1.1731,1.1649,1.1349,1.097,1.027,0.9917,0.9677,0.9624,0.9624,0.9624,0.9624,0.9624,0.9624,0.9624,0.9677,0.9791,0.9855,0.988,0.9933,1.5499,1.6366,1.6628,1.6935,1.7199,1.7477,1.7477,1.7153,1.6823,1.6015,1.5535,1.6068,1.6446,1.6127,1.5316,1.4835,1.462,1.3658,1.3275,1.2842,1.2679,1.2304,1.2191,1.1487,1.1223,1.0789,1.041,0.9871,0.9816,0.9655,0.9489,0.9651,0.943,0.9323,0.9434,0.9323,0.9213,0.9213,0.8992,0.8937,0.894,0.8995,0.9051,0.9323,0.9489,0.9765,1.0147,1.0308,1.0472,1.0637,1.0692,1.0692,1.0692,1.0692,1.0747,1.0692,1.0802,1.0747,1.0852,1.0798,1.0692,1.0692,1.0692,1.0692,1.0692,1.0692,1.0637,1.0366,1.0147,0.9926,0.9651,0.9323,0.9047,0.8992,0.8995,0.8937,0.8937,0.8825,0.8699,0.8603,0.856,0.8667,0.88,0.8973,0.9179,0.9377,0.9525,0.9624,0.9624,0.9965,1.0064,1.0677,1.0575,1.0493,1.0717,1.0857,1.0952,1.0707,1.0365,1.0004,0.9751,0.9665,0.9624,0.9624,0.9624,0.9624,0.9624,0.9624,0.9624,0.9624,0.9648,0.9738,0.9782,0.9807,0.9937,1.6342,1.7168,1.7462,1.7589,1.7589,1.7589,1.7589,1.7589,1.7589,1.7259,1.6776,1.7312,1.7589,1.7589,1.6783,1.6187,1.5861,1.5055,1.4245,1.3976,1.4024,1.3701,1.3324,1.2999,1.2354,1.1814,1.0794,1.0202,1.0198,0.9985,0.9875,0.9816,0.9651,0.9651,0.9706,0.9489,0.9434,0.9379,0.9103,0.8995,0.9106,0.9161,0.9268,0.9489,0.9761,1.0036,1.0253,1.0472,1.0527,1.0637,1.0692,1.0692,1.0692,1.0692,1.1013,1.1177,1.1177,1.0907,1.1122,1.1067,1.0798,1.0747,1.0692,1.0692,1.0531,1.0531,1.0692,1.0472,1.0036,0.9816,0.9651,0.932,0.9047,0.8937,0.8937,0.8937,0.8881,0.8831,0.8716,0.8572,0.8605,0.8761,0.8909,0.9031,0.9232,0.9426,0.9575,0.9624,0.9624,0.9624,0.9624,0.9669,0.9795,0.9795,1.0033,1.0108,1.01,0.9829,0.9739,0.969,0.976,0.9694,0.9624,0.9624,0.9624,0.9624,0.9624,0.964,0.9628,0.9624,0.964,0.9669,0.9713,0.9766,0.9847,1.6627,1.7206,1.7467,1.7549,1.7589,1.7589,1.7589,1.7589,1.7589,1.7589,1.7529,1.7529,1.7589,1.7536,1.7384,1.673,1.6293,1.6021,1.5269,1.4948,1.4835,1.4995,1.4883,1.4347,1.3652,1.2792,1.1878,1.1282,1.1013,1.0958,1.0848,1.0143,0.9923,0.9923,0.9655,0.9544,0.9596,0.9544,0.9379,0.9268,0.9323,0.9434,0.9596,0.9816,1.0147,1.0417,1.0582,1.0692,1.0692,1.0692,1.0692,1.0692,1.0692,1.0747,1.1446,1.166,1.1555,1.1664,1.1878,1.1555,1.1122,1.0798,1.0747,1.0637,1.0476,1.0531,1.0637,1.0417,1.0036,0.9706,0.9541,0.932,0.9047,0.8937,0.8937,0.8937,0.8878,0.8858,0.8716,0.8559,0.8605,0.8772,0.8888,0.9011,0.9232,0.9426,0.9575,0.9624,0.9624,0.9624,0.9624,0.9685,0.9786,0.9746,0.9685,1.0029,1.0226,1.0108,1.0132,0.9945,0.9916,1.0109,1.0064,0.9624,0.9624,0.9636,0.9657,0.9677,0.9661,0.9685,0.9786,0.9839,0.9774,0.9811,0.977,1.6663,1.7199,1.7266,1.742,1.7615,1.7589,1.7589,1.7589,1.7589,1.7589,1.7589,1.7589,1.7589,1.7589,1.7589,1.7265,1.71,1.6942,1.71,1.6988,1.6452,1.6664,1.6446,1.5482,1.4781,1.3976,1.3275,1.2901,1.2254,1.2516,1.2087,1.0688,1.1332,1.1118,1.0417,1.0257,1.0036,0.9926,0.9765,0.9599,0.9596,0.9651,0.9765,0.9981,1.0253,1.0472,1.0637,1.0692,1.0692,1.0692,1.0747,1.0747,1.0798,1.0907,1.15,1.2467,1.2309,1.2205,1.2254,1.2096,1.166,1.0747,1.0692,1.0688,1.0582,1.0582,1.0582,1.0253,0.9871,0.9541,0.932,0.9158,0.8937,0.8937,0.8937,0.8937,0.8881,0.8842,0.8693,0.8523,0.8491,0.8561,0.855,0.8783,0.9031,0.9278,0.9529,0.9579,0.9624,0.9624,0.9624,0.9693,0.977,0.9835,0.9886,1.0606,1.0901,1.0734,1.0771,1.1009,1.1061,1.0886,1.069,1.0158,0.9735,0.9652,0.9677,0.9758,0.9815,0.9868,1.0057,1.011,1.0,1.0041,1.0142]}]]